<?xml version="1.0" encoding="UTF-8" standalone="no" ?>
<gpx xmlns="http://www.topografix.com/GPX/1/1" creator="www.cicloide.com" version="1.1" xmlns:xsi="http://www.w3.org/2001/XMLSchema-instance" xsi:schemaLocation="http://www.topografix.com/GPX/1/1 http://www.topografix.com/GPX/1/1/gpx.xsd">
  <trk>
    <name>www.cicloide.com 19726</name>
    <desc>www.cicloide.com 19726</desc>
    <trkseg>
      <trkpt lat="41.605762730" lon="2.540424651">
        <ele>117.42</ele>
        <time>2014-10-12T05:38:24Z</time>
      </trkpt>
      <trkpt lat="41.605776812" lon="2.540383328">
        <ele>117.42</ele>
        <time>2014-10-12T05:38:46Z</time>
      </trkpt>
      <trkpt lat="41.605775387" lon="2.540410234">
        <ele>117.42</ele>
        <time>2014-10-12T05:39:02Z</time>
      </trkpt>
      <trkpt lat="41.605789385" lon="2.540441917">
        <ele>117.42</ele>
        <time>2014-10-12T05:39:09Z</time>
      </trkpt>
      <trkpt lat="41.605796509" lon="2.540443761">
        <ele>117.42</ele>
        <time>2014-10-12T05:39:10Z</time>
      </trkpt>
      <trkpt lat="41.605822829" lon="2.540405372">
        <ele>117.42</ele>
        <time>2014-10-12T05:39:16Z</time>
      </trkpt>
      <trkpt lat="41.605875635" lon="2.540406797">
        <ele>117.90</ele>
        <time>2014-10-12T05:39:21Z</time>
      </trkpt>
      <trkpt lat="41.606019049" lon="2.540385004">
        <ele>117.90</ele>
        <time>2014-10-12T05:39:27Z</time>
      </trkpt>
      <trkpt lat="41.606167995" lon="2.540403528">
        <ele>117.90</ele>
        <time>2014-10-12T05:39:33Z</time>
      </trkpt>
      <trkpt lat="41.606318283" lon="2.540475948">
        <ele>117.90</ele>
        <time>2014-10-12T05:39:41Z</time>
      </trkpt>
      <trkpt lat="41.606512994" lon="2.540553229">
        <ele>118.38</ele>
        <time>2014-10-12T05:39:51Z</time>
      </trkpt>
      <trkpt lat="41.606682560" lon="2.540638808">
        <ele>118.86</ele>
        <time>2014-10-12T05:39:59Z</time>
      </trkpt>
      <trkpt lat="41.606876853" lon="2.540738553">
        <ele>119.34</ele>
        <time>2014-10-12T05:40:08Z</time>
      </trkpt>
      <trkpt lat="41.607073744" lon="2.540796975">
        <ele>119.82</ele>
        <time>2014-10-12T05:40:17Z</time>
      </trkpt>
      <trkpt lat="41.607267533" lon="2.540823462">
        <ele>120.78</ele>
        <time>2014-10-12T05:40:25Z</time>
      </trkpt>
      <trkpt lat="41.607482194" lon="2.540845674">
        <ele>120.78</ele>
        <time>2014-10-12T05:40:34Z</time>
      </trkpt>
      <trkpt lat="41.607688556" lon="2.540842321">
        <ele>121.26</ele>
        <time>2014-10-12T05:40:43Z</time>
      </trkpt>
      <trkpt lat="41.607880083" lon="2.540836956">
        <ele>122.71</ele>
        <time>2014-10-12T05:40:51Z</time>
      </trkpt>
      <trkpt lat="41.608013607" lon="2.540895295">
        <ele>122.71</ele>
        <time>2014-10-12T05:40:57Z</time>
      </trkpt>
      <trkpt lat="41.608158949" lon="2.540836873">
        <ele>122.71</ele>
        <time>2014-10-12T05:41:03Z</time>
      </trkpt>
      <trkpt lat="41.608368329" lon="2.540764621">
        <ele>123.67</ele>
        <time>2014-10-12T05:41:12Z</time>
      </trkpt>
      <trkpt lat="41.608432953" lon="2.540745091">
        <ele>124.15</ele>
        <time>2014-10-12T05:41:15Z</time>
      </trkpt>
      <trkpt lat="41.608574691" lon="2.540720783">
        <ele>124.15</ele>
        <time>2014-10-12T05:41:23Z</time>
      </trkpt>
      <trkpt lat="41.608715842" lon="2.540698068">
        <ele>124.63</ele>
        <time>2014-10-12T05:41:29Z</time>
      </trkpt>
      <trkpt lat="41.608843247" lon="2.540662864">
        <ele>125.11</ele>
        <time>2014-10-12T05:41:34Z</time>
      </trkpt>
      <trkpt lat="41.609053633" lon="2.540613998">
        <ele>125.59</ele>
        <time>2014-10-12T05:41:43Z</time>
      </trkpt>
      <trkpt lat="41.609062686" lon="2.540598324">
        <ele>125.59</ele>
        <time>2014-10-12T05:41:51Z</time>
      </trkpt>
      <trkpt lat="41.609074588" lon="2.540566053">
        <ele>125.59</ele>
        <time>2014-10-12T05:42:05Z</time>
      </trkpt>
      <trkpt lat="41.609092777" lon="2.540568568">
        <ele>125.59</ele>
        <time>2014-10-12T05:42:20Z</time>
      </trkpt>
      <trkpt lat="41.609091352" lon="2.540598827">
        <ele>126.07</ele>
        <time>2014-10-12T05:42:40Z</time>
      </trkpt>
      <trkpt lat="41.609145247" lon="2.540590193">
        <ele>126.07</ele>
        <time>2014-10-12T05:42:47Z</time>
      </trkpt>
      <trkpt lat="41.609292182" lon="2.540583907">
        <ele>126.55</ele>
        <time>2014-10-12T05:42:55Z</time>
      </trkpt>
      <trkpt lat="41.609410115" lon="2.540580470">
        <ele>127.03</ele>
        <time>2014-10-12T05:43:01Z</time>
      </trkpt>
      <trkpt lat="41.609577167" lon="2.540566389">
        <ele>127.51</ele>
        <time>2014-10-12T05:43:08Z</time>
      </trkpt>
      <trkpt lat="41.609774812" lon="2.540510565">
        <ele>127.99</ele>
        <time>2014-10-12T05:43:16Z</time>
      </trkpt>
      <trkpt lat="41.609950413" lon="2.540470416">
        <ele>128.95</ele>
        <time>2014-10-12T05:43:23Z</time>
      </trkpt>
      <trkpt lat="41.610132216" lon="2.540365642">
        <ele>129.92</ele>
        <time>2014-10-12T05:43:31Z</time>
      </trkpt>
      <trkpt lat="41.610281498" lon="2.540255504">
        <ele>129.92</ele>
        <time>2014-10-12T05:43:38Z</time>
      </trkpt>
      <trkpt lat="41.610458189" lon="2.540158944">
        <ele>130.88</ele>
        <time>2014-10-12T05:43:46Z</time>
      </trkpt>
      <trkpt lat="41.610538823" lon="2.540107144">
        <ele>131.36</ele>
        <time>2014-10-12T05:43:50Z</time>
      </trkpt>
      <trkpt lat="41.610722386" lon="2.540022822">
        <ele>132.32</ele>
        <time>2014-10-12T05:43:58Z</time>
      </trkpt>
      <trkpt lat="41.610931850" lon="2.539910253">
        <ele>132.80</ele>
        <time>2014-10-12T05:44:06Z</time>
      </trkpt>
      <trkpt lat="41.611158497" lon="2.539790224">
        <ele>133.28</ele>
        <time>2014-10-12T05:44:15Z</time>
      </trkpt>
      <trkpt lat="41.611346587" lon="2.539673716">
        <ele>134.24</ele>
        <time>2014-10-12T05:44:22Z</time>
      </trkpt>
      <trkpt lat="41.611590919" lon="2.539488727">
        <ele>134.72</ele>
        <time>2014-10-12T05:44:32Z</time>
      </trkpt>
      <trkpt lat="41.611700722" lon="2.539394850">
        <ele>135.20</ele>
        <time>2014-10-12T05:44:37Z</time>
      </trkpt>
      <trkpt lat="41.611817063" lon="2.539300051">
        <ele>136.16</ele>
        <time>2014-10-12T05:44:44Z</time>
      </trkpt>
      <trkpt lat="41.612006075" lon="2.539049432">
        <ele>137.13</ele>
        <time>2014-10-12T05:44:54Z</time>
      </trkpt>
      <trkpt lat="41.612138509" lon="2.538808452">
        <ele>138.09</ele>
        <time>2014-10-12T05:45:02Z</time>
      </trkpt>
      <trkpt lat="41.612287958" lon="2.538555989">
        <ele>139.05</ele>
        <time>2014-10-12T05:45:11Z</time>
      </trkpt>
      <trkpt lat="41.612473282" lon="2.538321044">
        <ele>140.01</ele>
        <time>2014-10-12T05:45:20Z</time>
      </trkpt>
      <trkpt lat="41.612646955" lon="2.538093140">
        <ele>140.97</ele>
        <time>2014-10-12T05:45:28Z</time>
      </trkpt>
      <trkpt lat="41.612851976" lon="2.537848473">
        <ele>141.93</ele>
        <time>2014-10-12T05:45:37Z</time>
      </trkpt>
      <trkpt lat="41.613058171" lon="2.537615623">
        <ele>142.41</ele>
        <time>2014-10-12T05:45:47Z</time>
      </trkpt>
      <trkpt lat="41.613222373" lon="2.537418062">
        <ele>143.37</ele>
        <time>2014-10-12T05:45:55Z</time>
      </trkpt>
      <trkpt lat="41.613368134" lon="2.537234079">
        <ele>143.85</ele>
        <time>2014-10-12T05:46:02Z</time>
      </trkpt>
      <trkpt lat="41.613536443" lon="2.537020257">
        <ele>144.82</ele>
        <time>2014-10-12T05:46:10Z</time>
      </trkpt>
      <trkpt lat="41.613697627" lon="2.536750024">
        <ele>145.30</ele>
        <time>2014-10-12T05:46:19Z</time>
      </trkpt>
      <trkpt lat="41.613823690" lon="2.536466716">
        <ele>146.74</ele>
        <time>2014-10-12T05:46:27Z</time>
      </trkpt>
      <trkpt lat="41.613905665" lon="2.536274351">
        <ele>147.22</ele>
        <time>2014-10-12T05:46:33Z</time>
      </trkpt>
      <trkpt lat="41.614040949" lon="2.535954330">
        <ele>148.18</ele>
        <time>2014-10-12T05:46:42Z</time>
      </trkpt>
      <trkpt lat="41.614141029" lon="2.535620228">
        <ele>149.14</ele>
        <time>2014-10-12T05:46:52Z</time>
      </trkpt>
      <trkpt lat="41.614279331" lon="2.535213538">
        <ele>150.10</ele>
        <time>2014-10-12T05:47:04Z</time>
      </trkpt>
      <trkpt lat="41.614402293" lon="2.534829060">
        <ele>151.54</ele>
        <time>2014-10-12T05:47:15Z</time>
      </trkpt>
      <trkpt lat="41.614512850" lon="2.534500322">
        <ele>152.51</ele>
        <time>2014-10-12T05:47:24Z</time>
      </trkpt>
      <trkpt lat="41.614640088" lon="2.534126656">
        <ele>153.47</ele>
        <time>2014-10-12T05:47:35Z</time>
      </trkpt>
      <trkpt lat="41.614725080" lon="2.533819208">
        <ele>154.91</ele>
        <time>2014-10-12T05:47:44Z</time>
      </trkpt>
      <trkpt lat="41.614828262" lon="2.533473455">
        <ele>156.35</ele>
        <time>2014-10-12T05:47:54Z</time>
      </trkpt>
      <trkpt lat="41.614892802" lon="2.533225015">
        <ele>156.83</ele>
        <time>2014-10-12T05:48:02Z</time>
      </trkpt>
      <trkpt lat="41.614967401" lon="2.532937097">
        <ele>157.79</ele>
        <time>2014-10-12T05:48:10Z</time>
      </trkpt>
      <trkpt lat="41.615069996" lon="2.532622105">
        <ele>159.24</ele>
        <time>2014-10-12T05:48:19Z</time>
      </trkpt>
      <trkpt lat="41.615153982" lon="2.532276770">
        <ele>159.72</ele>
        <time>2014-10-12T05:48:28Z</time>
      </trkpt>
      <trkpt lat="41.615202933" lon="2.531920372">
        <ele>159.72</ele>
        <time>2014-10-12T05:48:37Z</time>
      </trkpt>
      <trkpt lat="41.615155072" lon="2.531621641">
        <ele>161.64</ele>
        <time>2014-10-12T05:48:45Z</time>
      </trkpt>
      <trkpt lat="41.615111737" lon="2.531419888">
        <ele>163.08</ele>
        <time>2014-10-12T05:48:52Z</time>
      </trkpt>
      <trkpt lat="41.615121963" lon="2.531146219">
        <ele>163.08</ele>
        <time>2014-10-12T05:49:00Z</time>
      </trkpt>
      <trkpt lat="41.615148199" lon="2.530751599">
        <ele>164.52</ele>
        <time>2014-10-12T05:49:11Z</time>
      </trkpt>
      <trkpt lat="41.615172422" lon="2.530408276">
        <ele>165.96</ele>
        <time>2014-10-12T05:49:20Z</time>
      </trkpt>
      <trkpt lat="41.615178709" lon="2.530069899">
        <ele>166.93</ele>
        <time>2014-10-12T05:49:29Z</time>
      </trkpt>
      <trkpt lat="41.615189522" lon="2.529680643">
        <ele>167.89</ele>
        <time>2014-10-12T05:49:39Z</time>
      </trkpt>
      <trkpt lat="41.615191617" lon="2.529301278">
        <ele>168.85</ele>
        <time>2014-10-12T05:49:49Z</time>
      </trkpt>
      <trkpt lat="41.615203435" lon="2.529003218">
        <ele>170.29</ele>
        <time>2014-10-12T05:49:57Z</time>
      </trkpt>
      <trkpt lat="41.615250207" lon="2.528702894">
        <ele>170.77</ele>
        <time>2014-10-12T05:50:05Z</time>
      </trkpt>
      <trkpt lat="41.615322459" lon="2.528330486">
        <ele>171.25</ele>
        <time>2014-10-12T05:50:15Z</time>
      </trkpt>
      <trkpt lat="41.615385407" lon="2.527980793">
        <ele>172.69</ele>
        <time>2014-10-12T05:50:25Z</time>
      </trkpt>
      <trkpt lat="41.615439218" lon="2.527690947">
        <ele>173.17</ele>
        <time>2014-10-12T05:50:33Z</time>
      </trkpt>
      <trkpt lat="41.615505855" lon="2.527377715">
        <ele>174.62</ele>
        <time>2014-10-12T05:50:42Z</time>
      </trkpt>
      <trkpt lat="41.615560337" lon="2.527112931">
        <ele>175.58</ele>
        <time>2014-10-12T05:50:50Z</time>
      </trkpt>
      <trkpt lat="41.615569222" lon="2.526800286">
        <ele>177.02</ele>
        <time>2014-10-12T05:50:59Z</time>
      </trkpt>
      <trkpt lat="41.615557906" lon="2.526563665">
        <ele>177.98</ele>
        <time>2014-10-12T05:51:06Z</time>
      </trkpt>
      <trkpt lat="41.615516500" lon="2.526238866">
        <ele>178.94</ele>
        <time>2014-10-12T05:51:15Z</time>
      </trkpt>
      <trkpt lat="41.615499568" lon="2.525870230">
        <ele>179.90</ele>
        <time>2014-10-12T05:51:25Z</time>
      </trkpt>
      <trkpt lat="41.615506106" lon="2.525551047">
        <ele>180.87</ele>
        <time>2014-10-12T05:51:33Z</time>
      </trkpt>
      <trkpt lat="41.615509626" lon="2.525210071">
        <ele>181.83</ele>
        <time>2014-10-12T05:51:42Z</time>
      </trkpt>
      <trkpt lat="41.615523373" lon="2.524947383">
        <ele>182.79</ele>
        <time>2014-10-12T05:51:49Z</time>
      </trkpt>
      <trkpt lat="41.615558158" lon="2.524560725">
        <ele>184.23</ele>
        <time>2014-10-12T05:51:59Z</time>
      </trkpt>
      <trkpt lat="41.615592021" lon="2.524214218">
        <ele>185.67</ele>
        <time>2014-10-12T05:52:08Z</time>
      </trkpt>
      <trkpt lat="41.615616831" lon="2.523934933">
        <ele>187.59</ele>
        <time>2014-10-12T05:52:16Z</time>
      </trkpt>
      <trkpt lat="41.615617921" lon="2.523746507">
        <ele>188.56</ele>
        <time>2014-10-12T05:52:22Z</time>
      </trkpt>
      <trkpt lat="41.615657735" lon="2.523410309">
        <ele>189.52</ele>
        <time>2014-10-12T05:52:31Z</time>
      </trkpt>
      <trkpt lat="41.615679779" lon="2.523183160">
        <ele>190.48</ele>
        <time>2014-10-12T05:52:38Z</time>
      </trkpt>
      <trkpt lat="41.615712552" lon="2.522946455">
        <ele>191.44</ele>
        <time>2014-10-12T05:52:45Z</time>
      </trkpt>
      <trkpt lat="41.615771226" lon="2.522648897">
        <ele>192.40</ele>
        <time>2014-10-12T05:52:53Z</time>
      </trkpt>
      <trkpt lat="41.615795030" lon="2.522400709">
        <ele>193.84</ele>
        <time>2014-10-12T05:53:00Z</time>
      </trkpt>
      <trkpt lat="41.615842388" lon="2.522116060">
        <ele>194.80</ele>
        <time>2014-10-12T05:53:08Z</time>
      </trkpt>
      <trkpt lat="41.615861331" lon="2.521835266">
        <ele>195.77</ele>
        <time>2014-10-12T05:53:15Z</time>
      </trkpt>
      <trkpt lat="41.615892093" lon="2.521576014">
        <ele>195.77</ele>
        <time>2014-10-12T05:53:21Z</time>
      </trkpt>
      <trkpt lat="41.615930063" lon="2.521234870">
        <ele>196.73</ele>
        <time>2014-10-12T05:53:30Z</time>
      </trkpt>
      <trkpt lat="41.615987060" lon="2.520963632">
        <ele>197.21</ele>
        <time>2014-10-12T05:53:37Z</time>
      </trkpt>
      <trkpt lat="41.616056378" lon="2.520679569">
        <ele>198.17</ele>
        <time>2014-10-12T05:53:45Z</time>
      </trkpt>
      <trkpt lat="41.616148411" lon="2.520400871">
        <ele>199.13</ele>
        <time>2014-10-12T05:53:52Z</time>
      </trkpt>
      <trkpt lat="41.616239187" lon="2.520177661">
        <ele>199.61</ele>
        <time>2014-10-12T05:53:59Z</time>
      </trkpt>
      <trkpt lat="41.616358210" lon="2.520065427">
        <ele>199.61</ele>
        <time>2014-10-12T05:54:04Z</time>
      </trkpt>
      <trkpt lat="41.616519227" lon="2.519927293">
        <ele>198.17</ele>
        <time>2014-10-12T05:54:09Z</time>
      </trkpt>
      <trkpt lat="41.616632634" lon="2.519865016">
        <ele>199.61</ele>
        <time>2014-10-12T05:54:13Z</time>
      </trkpt>
      <trkpt lat="41.616831955" lon="2.519786561">
        <ele>201.05</ele>
        <time>2014-10-12T05:54:21Z</time>
      </trkpt>
      <trkpt lat="41.616994313" lon="2.519751944">
        <ele>201.53</ele>
        <time>2014-10-12T05:54:27Z</time>
      </trkpt>
      <trkpt lat="41.617222049" lon="2.519712130">
        <ele>202.98</ele>
        <time>2014-10-12T05:54:35Z</time>
      </trkpt>
      <trkpt lat="41.617461520" lon="2.519680027">
        <ele>204.42</ele>
        <time>2014-10-12T05:54:44Z</time>
      </trkpt>
      <trkpt lat="41.617676935" lon="2.519655217">
        <ele>205.38</ele>
        <time>2014-10-12T05:54:53Z</time>
      </trkpt>
      <trkpt lat="41.617752875" lon="2.519651193">
        <ele>205.86</ele>
        <time>2014-10-12T05:54:59Z</time>
      </trkpt>
      <trkpt lat="41.617803418" lon="2.519645661">
        <ele>206.82</ele>
        <time>2014-10-12T05:55:09Z</time>
      </trkpt>
      <trkpt lat="41.617818505" lon="2.519672651">
        <ele>206.82</ele>
        <time>2014-10-12T05:55:17Z</time>
      </trkpt>
      <trkpt lat="41.617828480" lon="2.519728558">
        <ele>206.82</ele>
        <time>2014-10-12T05:55:25Z</time>
      </trkpt>
      <trkpt lat="41.617896038" lon="2.519797793">
        <ele>207.78</ele>
        <time>2014-10-12T05:55:31Z</time>
      </trkpt>
      <trkpt lat="41.617918669" lon="2.519860741">
        <ele>208.26</ele>
        <time>2014-10-12T05:55:35Z</time>
      </trkpt>
      <trkpt lat="41.617887153" lon="2.519990828">
        <ele>209.70</ele>
        <time>2014-10-12T05:55:43Z</time>
      </trkpt>
      <trkpt lat="41.617777518" lon="2.520083532">
        <ele>211.63</ele>
        <time>2014-10-12T05:55:51Z</time>
      </trkpt>
      <trkpt lat="41.617698309" lon="2.520215631">
        <ele>213.07</ele>
        <time>2014-10-12T05:55:59Z</time>
      </trkpt>
      <trkpt lat="41.617707948" lon="2.520310514">
        <ele>214.51</ele>
        <time>2014-10-12T05:56:03Z</time>
      </trkpt>
      <trkpt lat="41.617684479" lon="2.520517463">
        <ele>215.95</ele>
        <time>2014-10-12T05:56:12Z</time>
      </trkpt>
      <trkpt lat="41.617669475" lon="2.520663979">
        <ele>215.95</ele>
        <time>2014-10-12T05:56:18Z</time>
      </trkpt>
      <trkpt lat="41.617678109" lon="2.520760538">
        <ele>215.95</ele>
        <time>2014-10-12T05:56:22Z</time>
      </trkpt>
      <trkpt lat="41.617736866" lon="2.520997830">
        <ele>217.40</ele>
        <time>2014-10-12T05:56:33Z</time>
      </trkpt>
      <trkpt lat="41.617760838" lon="2.521085924">
        <ele>217.88</ele>
        <time>2014-10-12T05:56:37Z</time>
      </trkpt>
      <trkpt lat="41.617817081" lon="2.521271499">
        <ele>218.84</ele>
        <time>2014-10-12T05:56:46Z</time>
      </trkpt>
      <trkpt lat="41.617847004" lon="2.521437712">
        <ele>220.28</ele>
        <time>2014-10-12T05:56:54Z</time>
      </trkpt>
      <trkpt lat="41.617910706" lon="2.521621276">
        <ele>221.72</ele>
        <time>2014-10-12T05:57:03Z</time>
      </trkpt>
      <trkpt lat="41.617965608" lon="2.521645919">
        <ele>222.20</ele>
        <time>2014-10-12T05:57:07Z</time>
      </trkpt>
      <trkpt lat="41.617994693" lon="2.521589089">
        <ele>223.16</ele>
        <time>2014-10-12T05:57:11Z</time>
      </trkpt>
      <trkpt lat="41.618028304" lon="2.521487082">
        <ele>225.09</ele>
        <time>2014-10-12T05:57:17Z</time>
      </trkpt>
      <trkpt lat="41.618093180" lon="2.521357246">
        <ele>227.01</ele>
        <time>2014-10-12T05:57:26Z</time>
      </trkpt>
      <trkpt lat="41.618166774" lon="2.521226069">
        <ele>228.45</ele>
        <time>2014-10-12T05:57:34Z</time>
      </trkpt>
      <trkpt lat="41.618232404" lon="2.521058766">
        <ele>230.85</ele>
        <time>2014-10-12T05:57:44Z</time>
      </trkpt>
      <trkpt lat="41.618249335" lon="2.520956759">
        <ele>232.30</ele>
        <time>2014-10-12T05:57:51Z</time>
      </trkpt>
      <trkpt lat="41.618273391" lon="2.520824324">
        <ele>234.22</ele>
        <time>2014-10-12T05:57:58Z</time>
      </trkpt>
      <trkpt lat="41.618395516" lon="2.520687029">
        <ele>235.66</ele>
        <time>2014-10-12T05:58:06Z</time>
      </trkpt>
      <trkpt lat="41.618442035" lon="2.520653082">
        <ele>236.14</ele>
        <time>2014-10-12T05:58:09Z</time>
      </trkpt>
      <trkpt lat="41.618615624" lon="2.520603294">
        <ele>237.58</ele>
        <time>2014-10-12T05:58:20Z</time>
      </trkpt>
      <trkpt lat="41.618693241" lon="2.520587284">
        <ele>238.54</ele>
        <time>2014-10-12T05:58:25Z</time>
      </trkpt>
      <trkpt lat="41.618792483" lon="2.520548560">
        <ele>239.99</ele>
        <time>2014-10-12T05:58:32Z</time>
      </trkpt>
      <trkpt lat="41.618898681" lon="2.520493239">
        <ele>241.43</ele>
        <time>2014-10-12T05:58:40Z</time>
      </trkpt>
      <trkpt lat="41.619011334" lon="2.520425765">
        <ele>243.35</ele>
        <time>2014-10-12T05:58:48Z</time>
      </trkpt>
      <trkpt lat="41.619144187" lon="2.520347143">
        <ele>245.27</ele>
        <time>2014-10-12T05:58:58Z</time>
      </trkpt>
      <trkpt lat="41.619270083" lon="2.520309173">
        <ele>247.20</ele>
        <time>2014-10-12T05:59:07Z</time>
      </trkpt>
      <trkpt lat="41.619390531" lon="2.520333480">
        <ele>248.64</ele>
        <time>2014-10-12T05:59:16Z</time>
      </trkpt>
      <trkpt lat="41.619512740" lon="2.520367595">
        <ele>250.56</ele>
        <time>2014-10-12T05:59:25Z</time>
      </trkpt>
      <trkpt lat="41.619556661" lon="2.520377066">
        <ele>251.04</ele>
        <time>2014-10-12T05:59:29Z</time>
      </trkpt>
      <trkpt lat="41.619684149" lon="2.520343706">
        <ele>253.44</ele>
        <time>2014-10-12T05:59:40Z</time>
      </trkpt>
      <trkpt lat="41.619753719" lon="2.520337839">
        <ele>255.37</ele>
        <time>2014-10-12T05:59:47Z</time>
      </trkpt>
      <trkpt lat="41.619844831" lon="2.520293247">
        <ele>256.81</ele>
        <time>2014-10-12T05:59:54Z</time>
      </trkpt>
      <trkpt lat="41.619969469" lon="2.520233903">
        <ele>258.73</ele>
        <time>2014-10-12T06:00:04Z</time>
      </trkpt>
      <trkpt lat="41.620086816" lon="2.520185288">
        <ele>259.69</ele>
        <time>2014-10-12T06:00:12Z</time>
      </trkpt>
      <trkpt lat="41.620191590" lon="2.520184031">
        <ele>261.14</ele>
        <time>2014-10-12T06:00:21Z</time>
      </trkpt>
      <trkpt lat="41.620304829" lon="2.520211356">
        <ele>262.10</ele>
        <time>2014-10-12T06:00:29Z</time>
      </trkpt>
      <trkpt lat="41.620430893" lon="2.520267347">
        <ele>263.54</ele>
        <time>2014-10-12T06:00:38Z</time>
      </trkpt>
      <trkpt lat="41.620560310" lon="2.520265587">
        <ele>264.98</ele>
        <time>2014-10-12T06:00:47Z</time>
      </trkpt>
      <trkpt lat="41.620652846" lon="2.520260390">
        <ele>265.94</ele>
        <time>2014-10-12T06:00:53Z</time>
      </trkpt>
      <trkpt lat="41.620741359" lon="2.520271203">
        <ele>267.38</ele>
        <time>2014-10-12T06:01:00Z</time>
      </trkpt>
      <trkpt lat="41.620826938" lon="2.520289308">
        <ele>267.86</ele>
        <time>2014-10-12T06:01:06Z</time>
      </trkpt>
      <trkpt lat="41.620988290" lon="2.520306993">
        <ele>269.79</ele>
        <time>2014-10-12T06:01:16Z</time>
      </trkpt>
      <trkpt lat="41.621120389" lon="2.520361224">
        <ele>270.75</ele>
        <time>2014-10-12T06:01:25Z</time>
      </trkpt>
      <trkpt lat="41.621282495" lon="2.520370696">
        <ele>272.67</ele>
        <time>2014-10-12T06:01:36Z</time>
      </trkpt>
      <trkpt lat="41.621369583" lon="2.520370528">
        <ele>273.63</ele>
        <time>2014-10-12T06:01:43Z</time>
      </trkpt>
      <trkpt lat="41.621390453" lon="2.520376647">
        <ele>274.11</ele>
        <time>2014-10-12T06:01:45Z</time>
      </trkpt>
      <trkpt lat="41.621453821" lon="2.520380503">
        <ele>275.56</ele>
        <time>2014-10-12T06:01:49Z</time>
      </trkpt>
      <trkpt lat="41.621529761" lon="2.520411516">
        <ele>276.04</ele>
        <time>2014-10-12T06:01:55Z</time>
      </trkpt>
      <trkpt lat="41.621667224" lon="2.520443618">
        <ele>278.44</ele>
        <time>2014-10-12T06:02:04Z</time>
      </trkpt>
      <trkpt lat="41.621793288" lon="2.520481672">
        <ele>280.84</ele>
        <time>2014-10-12T06:02:14Z</time>
      </trkpt>
      <trkpt lat="41.621852632" lon="2.520507908">
        <ele>281.80</ele>
        <time>2014-10-12T06:02:19Z</time>
      </trkpt>
      <trkpt lat="41.621941312" lon="2.520523414">
        <ele>283.73</ele>
        <time>2014-10-12T06:02:27Z</time>
      </trkpt>
      <trkpt lat="41.622064694" lon="2.520527186">
        <ele>286.13</ele>
        <time>2014-10-12T06:02:37Z</time>
      </trkpt>
      <trkpt lat="41.622158320" lon="2.520503800">
        <ele>287.09</ele>
        <time>2014-10-12T06:02:45Z</time>
      </trkpt>
      <trkpt lat="41.622280444" lon="2.520454096">
        <ele>288.53</ele>
        <time>2014-10-12T06:02:55Z</time>
      </trkpt>
      <trkpt lat="41.622342554" lon="2.520433393">
        <ele>289.49</ele>
        <time>2014-10-12T06:03:00Z</time>
      </trkpt>
      <trkpt lat="41.622462164" lon="2.520465328">
        <ele>290.94</ele>
        <time>2014-10-12T06:03:09Z</time>
      </trkpt>
      <trkpt lat="41.622421511" lon="2.520534143">
        <ele>291.42</ele>
        <time>2014-10-12T06:03:16Z</time>
      </trkpt>
      <trkpt lat="41.622376920" lon="2.520539926">
        <ele>292.38</ele>
        <time>2014-10-12T06:03:20Z</time>
      </trkpt>
      <trkpt lat="41.622300309" lon="2.520574544">
        <ele>293.82</ele>
        <time>2014-10-12T06:03:29Z</time>
      </trkpt>
      <trkpt lat="41.622272900" lon="2.520607149">
        <ele>294.30</ele>
        <time>2014-10-12T06:03:32Z</time>
      </trkpt>
      <trkpt lat="41.622237780" lon="2.520621566">
        <ele>295.26</ele>
        <time>2014-10-12T06:03:35Z</time>
      </trkpt>
      <trkpt lat="41.622154213" lon="2.520695327">
        <ele>296.22</ele>
        <time>2014-10-12T06:03:43Z</time>
      </trkpt>
      <trkpt lat="41.622086822" lon="2.520745199">
        <ele>297.67</ele>
        <time>2014-10-12T06:03:50Z</time>
      </trkpt>
      <trkpt lat="41.622003757" lon="2.520798005">
        <ele>299.11</ele>
        <time>2014-10-12T06:03:58Z</time>
      </trkpt>
      <trkpt lat="41.621982635" lon="2.520813931">
        <ele>299.11</ele>
        <time>2014-10-12T06:04:00Z</time>
      </trkpt>
      <trkpt lat="41.621961848" lon="2.520833293">
        <ele>299.59</ele>
        <time>2014-10-12T06:04:02Z</time>
      </trkpt>
      <trkpt lat="41.621871659" lon="2.520895822">
        <ele>300.55</ele>
        <time>2014-10-12T06:04:11Z</time>
      </trkpt>
      <trkpt lat="41.621791611" lon="2.520957178">
        <ele>301.51</ele>
        <time>2014-10-12T06:04:18Z</time>
      </trkpt>
      <trkpt lat="41.621661440" lon="2.520991711">
        <ele>301.99</ele>
        <time>2014-10-12T06:04:25Z</time>
      </trkpt>
      <trkpt lat="41.621510985" lon="2.520972265">
        <ele>302.95</ele>
        <time>2014-10-12T06:04:33Z</time>
      </trkpt>
      <trkpt lat="41.621370756" lon="2.520961452">
        <ele>303.91</ele>
        <time>2014-10-12T06:04:42Z</time>
      </trkpt>
      <trkpt lat="41.621344521" lon="2.520967068">
        <ele>303.91</ele>
        <time>2014-10-12T06:04:44Z</time>
      </trkpt>
      <trkpt lat="41.621285680" lon="2.520976372">
        <ele>304.39</ele>
        <time>2014-10-12T06:04:48Z</time>
      </trkpt>
      <trkpt lat="41.621138829" lon="2.521021215">
        <ele>305.84</ele>
        <time>2014-10-12T06:04:58Z</time>
      </trkpt>
      <trkpt lat="41.621134973" lon="2.521115093">
        <ele>306.32</ele>
        <time>2014-10-12T06:05:05Z</time>
      </trkpt>
      <trkpt lat="41.621155760" lon="2.521117272">
        <ele>307.28</ele>
        <time>2014-10-12T06:05:08Z</time>
      </trkpt>
      <trkpt lat="41.621201693" lon="2.521116769">
        <ele>308.24</ele>
        <time>2014-10-12T06:05:12Z</time>
      </trkpt>
      <trkpt lat="41.621288530" lon="2.521172090">
        <ele>310.16</ele>
        <time>2014-10-12T06:05:19Z</time>
      </trkpt>
      <trkpt lat="41.621377294" lon="2.521272505">
        <ele>311.60</ele>
        <time>2014-10-12T06:05:28Z</time>
      </trkpt>
      <trkpt lat="41.621434375" lon="2.521358922">
        <ele>312.57</ele>
        <time>2014-10-12T06:05:35Z</time>
      </trkpt>
      <trkpt lat="41.621522888" lon="2.521488171">
        <ele>314.49</ele>
        <time>2014-10-12T06:05:45Z</time>
      </trkpt>
      <trkpt lat="41.621606790" lon="2.521645583">
        <ele>315.93</ele>
        <time>2014-10-12T06:05:55Z</time>
      </trkpt>
      <trkpt lat="41.621687424" lon="2.521782292">
        <ele>317.37</ele>
        <time>2014-10-12T06:06:04Z</time>
      </trkpt>
      <trkpt lat="41.621751294" lon="2.521932915">
        <ele>319.30</ele>
        <time>2014-10-12T06:06:12Z</time>
      </trkpt>
      <trkpt lat="41.621821451" lon="2.522120586">
        <ele>321.22</ele>
        <time>2014-10-12T06:06:22Z</time>
      </trkpt>
      <trkpt lat="41.621824888" lon="2.522141541">
        <ele>321.22</ele>
        <time>2014-10-12T06:06:23Z</time>
      </trkpt>
      <trkpt lat="41.621885405" lon="2.522256624">
        <ele>323.14</ele>
        <time>2014-10-12T06:06:30Z</time>
      </trkpt>
      <trkpt lat="41.621956148" lon="2.522248494">
        <ele>324.58</ele>
        <time>2014-10-12T06:06:37Z</time>
      </trkpt>
      <trkpt lat="41.621944916" lon="2.522089657">
        <ele>326.50</ele>
        <time>2014-10-12T06:06:48Z</time>
      </trkpt>
      <trkpt lat="41.621943827" lon="2.522077251">
        <ele>326.50</ele>
        <time>2014-10-12T06:06:49Z</time>
      </trkpt>
      <trkpt lat="41.621944330" lon="2.521940459">
        <ele>327.95</ele>
        <time>2014-10-12T06:06:57Z</time>
      </trkpt>
      <trkpt lat="41.621948102" lon="2.521820849">
        <ele>328.43</ele>
        <time>2014-10-12T06:07:04Z</time>
      </trkpt>
      <trkpt lat="41.621970984" lon="2.521723703">
        <ele>329.39</ele>
        <time>2014-10-12T06:07:10Z</time>
      </trkpt>
      <trkpt lat="41.622070226" lon="2.521580875">
        <ele>330.35</ele>
        <time>2014-10-12T06:07:19Z</time>
      </trkpt>
      <trkpt lat="41.622125714" lon="2.521569727">
        <ele>330.83</ele>
        <time>2014-10-12T06:07:23Z</time>
      </trkpt>
      <trkpt lat="41.622240546" lon="2.521617085">
        <ele>331.79</ele>
        <time>2014-10-12T06:07:31Z</time>
      </trkpt>
      <trkpt lat="41.622358731" lon="2.521728397">
        <ele>333.23</ele>
        <time>2014-10-12T06:07:40Z</time>
      </trkpt>
      <trkpt lat="41.622502313" lon="2.521832416">
        <ele>335.16</ele>
        <time>2014-10-12T06:07:51Z</time>
      </trkpt>
      <trkpt lat="41.622646314" lon="2.521917073">
        <ele>336.60</ele>
        <time>2014-10-12T06:08:01Z</time>
      </trkpt>
      <trkpt lat="41.622814204" lon="2.521937693">
        <ele>338.04</ele>
        <time>2014-10-12T06:08:10Z</time>
      </trkpt>
      <trkpt lat="41.622980081" lon="2.521896538">
        <ele>339.96</ele>
        <time>2014-10-12T06:08:19Z</time>
      </trkpt>
      <trkpt lat="41.623126513" lon="2.521861836">
        <ele>340.92</ele>
        <time>2014-10-12T06:08:28Z</time>
      </trkpt>
      <trkpt lat="41.623255008" lon="2.521951355">
        <ele>342.37</ele>
        <time>2014-10-12T06:08:36Z</time>
      </trkpt>
      <trkpt lat="41.623360955" lon="2.522094099">
        <ele>342.85</ele>
        <time>2014-10-12T06:08:43Z</time>
      </trkpt>
      <trkpt lat="41.623503028" lon="2.522245811">
        <ele>343.33</ele>
        <time>2014-10-12T06:08:52Z</time>
      </trkpt>
      <trkpt lat="41.623646527" lon="2.522374306">
        <ele>343.81</ele>
        <time>2014-10-12T06:09:01Z</time>
      </trkpt>
      <trkpt lat="41.623843669" lon="2.522536077">
        <ele>344.29</ele>
        <time>2014-10-12T06:09:11Z</time>
      </trkpt>
      <trkpt lat="41.624008541" lon="2.522710756">
        <ele>345.25</ele>
        <time>2014-10-12T06:09:20Z</time>
      </trkpt>
      <trkpt lat="41.624087834" lon="2.522853080">
        <ele>345.73</ele>
        <time>2014-10-12T06:09:27Z</time>
      </trkpt>
      <trkpt lat="41.624104095" lon="2.522899851">
        <ele>345.73</ele>
        <time>2014-10-12T06:09:34Z</time>
      </trkpt>
      <trkpt lat="41.624103843" lon="2.522859115">
        <ele>345.73</ele>
        <time>2014-10-12T06:09:50Z</time>
      </trkpt>
      <trkpt lat="41.624134437" lon="2.522915442">
        <ele>345.73</ele>
        <time>2014-10-12T06:10:00Z</time>
      </trkpt>
      <trkpt lat="41.624154218" lon="2.522963973">
        <ele>345.73</ele>
        <time>2014-10-12T06:10:02Z</time>
      </trkpt>
      <trkpt lat="41.624207024" lon="2.523165893">
        <ele>345.73</ele>
        <time>2014-10-12T06:10:09Z</time>
      </trkpt>
      <trkpt lat="41.624214317" lon="2.523189865">
        <ele>346.21</ele>
        <time>2014-10-12T06:10:10Z</time>
      </trkpt>
      <trkpt lat="41.624285395" lon="2.523452889">
        <ele>346.21</ele>
        <time>2014-10-12T06:10:18Z</time>
      </trkpt>
      <trkpt lat="41.624363766" lon="2.523682553">
        <ele>347.65</ele>
        <time>2014-10-12T06:10:27Z</time>
      </trkpt>
      <trkpt lat="41.624467869" lon="2.523880115">
        <ele>348.62</ele>
        <time>2014-10-12T06:10:36Z</time>
      </trkpt>
      <trkpt lat="41.624588652" lon="2.524152275">
        <ele>350.54</ele>
        <time>2014-10-12T06:10:48Z</time>
      </trkpt>
      <trkpt lat="41.624664006" lon="2.524347490">
        <ele>351.98</ele>
        <time>2014-10-12T06:10:57Z</time>
      </trkpt>
      <trkpt lat="41.624730893" lon="2.524582602">
        <ele>352.94</ele>
        <time>2014-10-12T06:11:07Z</time>
      </trkpt>
      <trkpt lat="41.624808845" lon="2.524796089">
        <ele>353.90</ele>
        <time>2014-10-12T06:11:16Z</time>
      </trkpt>
      <trkpt lat="41.624875230" lon="2.524979234">
        <ele>354.86</ele>
        <time>2014-10-12T06:11:24Z</time>
      </trkpt>
      <trkpt lat="41.625013447" lon="2.525205545">
        <ele>354.86</ele>
        <time>2014-10-12T06:11:35Z</time>
      </trkpt>
      <trkpt lat="41.625180080" lon="2.525401011">
        <ele>355.34</ele>
        <time>2014-10-12T06:11:45Z</time>
      </trkpt>
      <trkpt lat="41.625353920" lon="2.525605111">
        <ele>356.31</ele>
        <time>2014-10-12T06:11:55Z</time>
      </trkpt>
      <trkpt lat="41.625475625" lon="2.525813988">
        <ele>356.79</ele>
        <time>2014-10-12T06:12:04Z</time>
      </trkpt>
      <trkpt lat="41.625602276" lon="2.526006352">
        <ele>356.79</ele>
        <time>2014-10-12T06:12:12Z</time>
      </trkpt>
      <trkpt lat="41.625803274" lon="2.526172565">
        <ele>356.79</ele>
        <time>2014-10-12T06:12:21Z</time>
      </trkpt>
      <trkpt lat="41.625986502" lon="2.526305502">
        <ele>355.34</ele>
        <time>2014-10-12T06:12:29Z</time>
      </trkpt>
      <trkpt lat="41.626155901" lon="2.526528210">
        <ele>355.34</ele>
        <time>2014-10-12T06:12:38Z</time>
      </trkpt>
      <trkpt lat="41.626272828" lon="2.526730297">
        <ele>356.79</ele>
        <time>2014-10-12T06:12:46Z</time>
      </trkpt>
      <trkpt lat="41.626310212" lon="2.526926350">
        <ele>357.27</ele>
        <time>2014-10-12T06:12:55Z</time>
      </trkpt>
      <trkpt lat="41.626311553" lon="2.526945545">
        <ele>357.27</ele>
        <time>2014-10-12T06:12:56Z</time>
      </trkpt>
      <trkpt lat="41.626396964" lon="2.527028609">
        <ele>357.27</ele>
        <time>2014-10-12T06:13:02Z</time>
      </trkpt>
      <trkpt lat="41.626455470" lon="2.527150817">
        <ele>358.23</ele>
        <time>2014-10-12T06:13:09Z</time>
      </trkpt>
      <trkpt lat="41.626523363" lon="2.527206138">
        <ele>358.71</ele>
        <time>2014-10-12T06:13:14Z</time>
      </trkpt>
      <trkpt lat="41.626578684" lon="2.527223237">
        <ele>358.71</ele>
        <time>2014-10-12T06:13:18Z</time>
      </trkpt>
      <trkpt lat="41.626665940" lon="2.527214604">
        <ele>359.67</ele>
        <time>2014-10-12T06:13:23Z</time>
      </trkpt>
      <trkpt lat="41.626848749" lon="2.527234217">
        <ele>360.63</ele>
        <time>2014-10-12T06:13:32Z</time>
      </trkpt>
      <trkpt lat="41.627066008" lon="2.527212005">
        <ele>361.59</ele>
        <time>2014-10-12T06:13:41Z</time>
      </trkpt>
      <trkpt lat="41.627269604" lon="2.527161462">
        <ele>361.59</ele>
        <time>2014-10-12T06:13:48Z</time>
      </trkpt>
      <trkpt lat="41.627389549" lon="2.526983095">
        <ele>361.59</ele>
        <time>2014-10-12T06:13:53Z</time>
      </trkpt>
      <trkpt lat="41.627472279" lon="2.526818978">
        <ele>362.07</ele>
        <time>2014-10-12T06:14:00Z</time>
      </trkpt>
      <trkpt lat="41.627572359" lon="2.526665924">
        <ele>364.48</ele>
        <time>2014-10-12T06:14:09Z</time>
      </trkpt>
      <trkpt lat="41.627658189" lon="2.526551260">
        <ele>364.96</ele>
        <time>2014-10-12T06:14:16Z</time>
      </trkpt>
      <trkpt lat="41.627737985" lon="2.526434165">
        <ele>366.88</ele>
        <time>2014-10-12T06:14:23Z</time>
      </trkpt>
      <trkpt lat="41.627807806" lon="2.526278597">
        <ele>367.84</ele>
        <time>2014-10-12T06:14:30Z</time>
      </trkpt>
      <trkpt lat="41.627872766" lon="2.526136188">
        <ele>368.80</ele>
        <time>2014-10-12T06:14:38Z</time>
      </trkpt>
      <trkpt lat="41.627943258" lon="2.525911134">
        <ele>369.76</ele>
        <time>2014-10-12T06:14:45Z</time>
      </trkpt>
      <trkpt lat="41.627920040" lon="2.525840223">
        <ele>370.24</ele>
        <time>2014-10-12T06:14:48Z</time>
      </trkpt>
      <trkpt lat="41.627831024" lon="2.525847515">
        <ele>371.21</ele>
        <time>2014-10-12T06:14:55Z</time>
      </trkpt>
      <trkpt lat="41.627730106" lon="2.525975172">
        <ele>371.69</ele>
        <time>2014-10-12T06:15:04Z</time>
      </trkpt>
      <trkpt lat="41.627641509" lon="2.526014650">
        <ele>372.17</ele>
        <time>2014-10-12T06:15:10Z</time>
      </trkpt>
      <trkpt lat="41.627624578" lon="2.526017584">
        <ele>372.17</ele>
        <time>2014-10-12T06:15:11Z</time>
      </trkpt>
      <trkpt lat="41.627558696" lon="2.525997887">
        <ele>372.17</ele>
        <time>2014-10-12T06:15:15Z</time>
      </trkpt>
      <trkpt lat="41.627523324" lon="2.525887748">
        <ele>372.65</ele>
        <time>2014-10-12T06:15:19Z</time>
      </trkpt>
      <trkpt lat="41.627496251" lon="2.525507545">
        <ele>372.65</ele>
        <time>2014-10-12T06:15:28Z</time>
      </trkpt>
      <trkpt lat="41.627468255" lon="2.525296657">
        <ele>372.65</ele>
        <time>2014-10-12T06:15:34Z</time>
      </trkpt>
      <trkpt lat="41.627375551" lon="2.525065400">
        <ele>372.65</ele>
        <time>2014-10-12T06:15:42Z</time>
      </trkpt>
      <trkpt lat="41.627295169" lon="2.524890302">
        <ele>373.61</ele>
        <time>2014-10-12T06:15:49Z</time>
      </trkpt>
      <trkpt lat="41.627280836" lon="2.524760215">
        <ele>374.09</ele>
        <time>2014-10-12T06:15:54Z</time>
      </trkpt>
      <trkpt lat="41.627290224" lon="2.524613112">
        <ele>374.09</ele>
        <time>2014-10-12T06:16:00Z</time>
      </trkpt>
      <trkpt lat="41.627267173" lon="2.524538597">
        <ele>374.57</ele>
        <time>2014-10-12T06:16:04Z</time>
      </trkpt>
      <trkpt lat="41.627293157" lon="2.524451006">
        <ele>374.57</ele>
        <time>2014-10-12T06:16:08Z</time>
      </trkpt>
      <trkpt lat="41.627286033" lon="2.524294265">
        <ele>374.57</ele>
        <time>2014-10-12T06:16:12Z</time>
      </trkpt>
      <trkpt lat="41.627243620" lon="2.524216145">
        <ele>373.13</ele>
        <time>2014-10-12T06:16:14Z</time>
      </trkpt>
      <trkpt lat="41.627210428" lon="2.524172643">
        <ele>372.65</ele>
        <time>2014-10-12T06:16:15Z</time>
      </trkpt>
      <trkpt lat="41.627020913" lon="2.523916073">
        <ele>371.69</ele>
        <time>2014-10-12T06:16:21Z</time>
      </trkpt>
      <trkpt lat="41.626906668" lon="2.523672244">
        <ele>370.73</ele>
        <time>2014-10-12T06:16:27Z</time>
      </trkpt>
      <trkpt lat="41.626906584" lon="2.523534194">
        <ele>371.21</ele>
        <time>2014-10-12T06:16:31Z</time>
      </trkpt>
      <trkpt lat="41.626968526" lon="2.523236301">
        <ele>369.76</ele>
        <time>2014-10-12T06:16:38Z</time>
      </trkpt>
      <trkpt lat="41.626971376" lon="2.523152063">
        <ele>368.80</ele>
        <time>2014-10-12T06:16:40Z</time>
      </trkpt>
      <trkpt lat="41.626893927" lon="2.522997501">
        <ele>367.84</ele>
        <time>2014-10-12T06:16:46Z</time>
      </trkpt>
      <trkpt lat="41.626910943" lon="2.522946790">
        <ele>367.84</ele>
        <time>2014-10-12T06:16:50Z</time>
      </trkpt>
      <trkpt lat="41.627024936" lon="2.522877472">
        <ele>367.84</ele>
        <time>2014-10-12T06:16:57Z</time>
      </trkpt>
      <trkpt lat="41.627055027" lon="2.522868671">
        <ele>369.28</ele>
        <time>2014-10-12T06:16:59Z</time>
      </trkpt>
      <trkpt lat="41.627231969" lon="2.522828521">
        <ele>371.69</ele>
        <time>2014-10-12T06:17:08Z</time>
      </trkpt>
      <trkpt lat="41.627289218" lon="2.522804130">
        <ele>372.65</ele>
        <time>2014-10-12T06:17:12Z</time>
      </trkpt>
      <trkpt lat="41.627422993" lon="2.522710001">
        <ele>373.61</ele>
        <time>2014-10-12T06:17:22Z</time>
      </trkpt>
      <trkpt lat="41.627545788" lon="2.522652418">
        <ele>373.61</ele>
        <time>2014-10-12T06:17:27Z</time>
      </trkpt>
      <trkpt lat="41.627675959" lon="2.522635486">
        <ele>373.61</ele>
        <time>2014-10-12T06:17:34Z</time>
      </trkpt>
      <trkpt lat="41.627707978" lon="2.522639509">
        <ele>373.61</ele>
        <time>2014-10-12T06:17:36Z</time>
      </trkpt>
      <trkpt lat="41.627757180" lon="2.522643784">
        <ele>372.65</ele>
        <time>2014-10-12T06:17:39Z</time>
      </trkpt>
      <trkpt lat="41.627806297" lon="2.522571113">
        <ele>371.69</ele>
        <time>2014-10-12T06:17:41Z</time>
      </trkpt>
      <trkpt lat="41.627859355" lon="2.522426609">
        <ele>370.24</ele>
        <time>2014-10-12T06:17:44Z</time>
      </trkpt>
      <trkpt lat="41.627937307" lon="2.522013381">
        <ele>368.32</ele>
        <time>2014-10-12T06:17:51Z</time>
      </trkpt>
      <trkpt lat="41.627932445" lon="2.521766367">
        <ele>367.84</ele>
        <time>2014-10-12T06:17:55Z</time>
      </trkpt>
      <trkpt lat="41.627911323" lon="2.521577941">
        <ele>366.88</ele>
        <time>2014-10-12T06:17:58Z</time>
      </trkpt>
      <trkpt lat="41.627883411" lon="2.521285078">
        <ele>365.92</ele>
        <time>2014-10-12T06:18:03Z</time>
      </trkpt>
      <trkpt lat="41.627960022" lon="2.521103442">
        <ele>366.40</ele>
        <time>2014-10-12T06:18:09Z</time>
      </trkpt>
      <trkpt lat="41.627996148" lon="2.521016186">
        <ele>367.36</ele>
        <time>2014-10-12T06:18:14Z</time>
      </trkpt>
      <trkpt lat="41.628084241" lon="2.520969080">
        <ele>368.32</ele>
        <time>2014-10-12T06:18:20Z</time>
      </trkpt>
      <trkpt lat="41.628212317" lon="2.520962710">
        <ele>369.28</ele>
        <time>2014-10-12T06:18:27Z</time>
      </trkpt>
      <trkpt lat="41.628368975" lon="2.520949969">
        <ele>370.73</ele>
        <time>2014-10-12T06:18:35Z</time>
      </trkpt>
      <trkpt lat="41.628534685" lon="2.520960614">
        <ele>372.17</ele>
        <time>2014-10-12T06:18:44Z</time>
      </trkpt>
      <trkpt lat="41.628639207" lon="2.520998165">
        <ele>373.61</ele>
        <time>2014-10-12T06:18:51Z</time>
      </trkpt>
      <trkpt lat="41.628733252" lon="2.521086678">
        <ele>375.05</ele>
        <time>2014-10-12T06:18:58Z</time>
      </trkpt>
      <trkpt lat="41.628845821" lon="2.521181226">
        <ele>376.49</ele>
        <time>2014-10-12T06:19:06Z</time>
      </trkpt>
      <trkpt lat="41.628949002" lon="2.521282312">
        <ele>376.97</ele>
        <time>2014-10-12T06:19:14Z</time>
      </trkpt>
      <trkpt lat="41.629039443" lon="2.521377614">
        <ele>379.38</ele>
        <time>2014-10-12T06:19:22Z</time>
      </trkpt>
      <trkpt lat="41.629145306" lon="2.521443160">
        <ele>381.78</ele>
        <time>2014-10-12T06:19:30Z</time>
      </trkpt>
      <trkpt lat="41.629178583" lon="2.521443999">
        <ele>382.26</ele>
        <time>2014-10-12T06:19:33Z</time>
      </trkpt>
      <trkpt lat="41.629308167" lon="2.521476939">
        <ele>384.18</ele>
        <time>2014-10-12T06:19:43Z</time>
      </trkpt>
      <trkpt lat="41.629435656" lon="2.521446262">
        <ele>386.59</ele>
        <time>2014-10-12T06:19:52Z</time>
      </trkpt>
      <trkpt lat="41.629528611" lon="2.521402424">
        <ele>388.51</ele>
        <time>2014-10-12T06:20:00Z</time>
      </trkpt>
      <trkpt lat="41.629528276" lon="2.521311397">
        <ele>388.51</ele>
        <time>2014-10-12T06:20:07Z</time>
      </trkpt>
      <trkpt lat="41.629401709" lon="2.521194302">
        <ele>389.95</ele>
        <time>2014-10-12T06:20:17Z</time>
      </trkpt>
      <trkpt lat="41.629317136" lon="2.521094725">
        <ele>391.87</ele>
        <time>2014-10-12T06:20:25Z</time>
      </trkpt>
      <trkpt lat="41.629213451" lon="2.520959105">
        <ele>393.32</ele>
        <time>2014-10-12T06:20:36Z</time>
      </trkpt>
      <trkpt lat="41.629135416" lon="2.520874867">
        <ele>393.32</ele>
        <time>2014-10-12T06:20:40Z</time>
      </trkpt>
      <trkpt lat="41.629046568" lon="2.520760371">
        <ele>391.87</ele>
        <time>2014-10-12T06:20:43Z</time>
      </trkpt>
      <trkpt lat="41.628965012" lon="2.520642018">
        <ele>391.87</ele>
        <time>2014-10-12T06:20:48Z</time>
      </trkpt>
      <trkpt lat="41.628927377" lon="2.520580830">
        <ele>392.84</ele>
        <time>2014-10-12T06:20:52Z</time>
      </trkpt>
      <trkpt lat="41.628848755" lon="2.520466501">
        <ele>394.28</ele>
        <time>2014-10-12T06:21:01Z</time>
      </trkpt>
      <trkpt lat="41.628828554" lon="2.520438757">
        <ele>394.76</ele>
        <time>2014-10-12T06:21:03Z</time>
      </trkpt>
      <trkpt lat="41.628749597" lon="2.520360470">
        <ele>396.20</ele>
        <time>2014-10-12T06:21:09Z</time>
      </trkpt>
      <trkpt lat="41.628654295" lon="2.520227365">
        <ele>398.12</ele>
        <time>2014-10-12T06:21:19Z</time>
      </trkpt>
      <trkpt lat="41.628599309" lon="2.520125106">
        <ele>400.53</ele>
        <time>2014-10-12T06:21:26Z</time>
      </trkpt>
      <trkpt lat="41.628539295" lon="2.519988649">
        <ele>402.45</ele>
        <time>2014-10-12T06:21:35Z</time>
      </trkpt>
      <trkpt lat="41.628452542" lon="2.519839451">
        <ele>404.85</ele>
        <time>2014-10-12T06:21:45Z</time>
      </trkpt>
      <trkpt lat="41.628359503" lon="2.519763343">
        <ele>406.77</ele>
        <time>2014-10-12T06:21:53Z</time>
      </trkpt>
      <trkpt lat="41.628286161" lon="2.519649936">
        <ele>407.74</ele>
        <time>2014-10-12T06:22:01Z</time>
      </trkpt>
      <trkpt lat="41.628188261" lon="2.519530242">
        <ele>409.18</ele>
        <time>2014-10-12T06:22:10Z</time>
      </trkpt>
      <trkpt lat="41.628068316" lon="2.519463858">
        <ele>410.14</ele>
        <time>2014-10-12T06:22:18Z</time>
      </trkpt>
      <trkpt lat="41.628036045" lon="2.519463522">
        <ele>410.14</ele>
        <time>2014-10-12T06:22:20Z</time>
      </trkpt>
      <trkpt lat="41.627907467" lon="2.519388756">
        <ele>411.10</ele>
        <time>2014-10-12T06:22:29Z</time>
      </trkpt>
      <trkpt lat="41.627751899" lon="2.519300159">
        <ele>412.06</ele>
        <time>2014-10-12T06:22:39Z</time>
      </trkpt>
      <trkpt lat="41.627592894" lon="2.519246683">
        <ele>413.02</ele>
        <time>2014-10-12T06:22:49Z</time>
      </trkpt>
      <trkpt lat="41.627482505" lon="2.519244503">
        <ele>413.98</ele>
        <time>2014-10-12T06:22:57Z</time>
      </trkpt>
      <trkpt lat="41.627459706" lon="2.519243665">
        <ele>413.98</ele>
        <time>2014-10-12T06:22:59Z</time>
      </trkpt>
      <trkpt lat="41.627333977" lon="2.519265710">
        <ele>415.91</ele>
        <time>2014-10-12T06:23:09Z</time>
      </trkpt>
      <trkpt lat="41.627248147" lon="2.519278785">
        <ele>416.39</ele>
        <time>2014-10-12T06:23:15Z</time>
      </trkpt>
      <trkpt lat="41.627162232" lon="2.519311726">
        <ele>416.87</ele>
        <time>2014-10-12T06:23:22Z</time>
      </trkpt>
      <trkpt lat="41.627083191" lon="2.519451955">
        <ele>418.79</ele>
        <time>2014-10-12T06:23:31Z</time>
      </trkpt>
      <trkpt lat="41.627033570" lon="2.519563267">
        <ele>419.75</ele>
        <time>2014-10-12T06:23:37Z</time>
      </trkpt>
      <trkpt lat="41.626957294" lon="2.519722607">
        <ele>421.19</ele>
        <time>2014-10-12T06:23:46Z</time>
      </trkpt>
      <trkpt lat="41.626879930" lon="2.519808941">
        <ele>422.64</ele>
        <time>2014-10-12T06:23:54Z</time>
      </trkpt>
      <trkpt lat="41.626821424" lon="2.519886976">
        <ele>424.08</ele>
        <time>2014-10-12T06:24:01Z</time>
      </trkpt>
      <trkpt lat="41.626785633" lon="2.519887731">
        <ele>424.56</ele>
        <time>2014-10-12T06:24:06Z</time>
      </trkpt>
      <trkpt lat="41.626794183" lon="2.519820843">
        <ele>424.56</ele>
        <time>2014-10-12T06:24:10Z</time>
      </trkpt>
      <trkpt lat="41.626810779" lon="2.519646332">
        <ele>425.04</ele>
        <time>2014-10-12T06:24:20Z</time>
      </trkpt>
      <trkpt lat="41.626765600" lon="2.519464612">
        <ele>425.52</ele>
        <time>2014-10-12T06:24:30Z</time>
      </trkpt>
      <trkpt lat="41.626756213" lon="2.519327903">
        <ele>426.48</ele>
        <time>2014-10-12T06:24:37Z</time>
      </trkpt>
      <trkpt lat="41.626736012" lon="2.519181136">
        <ele>427.44</ele>
        <time>2014-10-12T06:24:44Z</time>
      </trkpt>
      <trkpt lat="41.626732911" lon="2.519139478">
        <ele>427.92</ele>
        <time>2014-10-12T06:24:46Z</time>
      </trkpt>
      <trkpt lat="41.626685805" lon="2.518979132">
        <ele>428.89</ele>
        <time>2014-10-12T06:24:54Z</time>
      </trkpt>
      <trkpt lat="41.626612128" lon="2.518795569">
        <ele>428.89</ele>
        <time>2014-10-12T06:25:02Z</time>
      </trkpt>
      <trkpt lat="41.626580025" lon="2.518660955">
        <ele>428.89</ele>
        <time>2014-10-12T06:25:05Z</time>
      </trkpt>
      <trkpt lat="41.626581618" lon="2.518465070">
        <ele>427.44</ele>
        <time>2014-10-12T06:25:08Z</time>
      </trkpt>
      <trkpt lat="41.626573655" lon="2.518070953">
        <ele>426.96</ele>
        <time>2014-10-12T06:25:15Z</time>
      </trkpt>
      <trkpt lat="41.626569967" lon="2.517750513">
        <ele>426.96</ele>
        <time>2014-10-12T06:25:23Z</time>
      </trkpt>
      <trkpt lat="41.626569715" lon="2.517476089">
        <ele>429.37</ele>
        <time>2014-10-12T06:25:31Z</time>
      </trkpt>
      <trkpt lat="41.626597459" lon="2.517189764">
        <ele>430.33</ele>
        <time>2014-10-12T06:25:39Z</time>
      </trkpt>
      <trkpt lat="41.626636016" lon="2.516901342">
        <ele>432.25</ele>
        <time>2014-10-12T06:25:48Z</time>
      </trkpt>
      <trkpt lat="41.626662671" lon="2.516649299">
        <ele>433.21</ele>
        <time>2014-10-12T06:25:56Z</time>
      </trkpt>
      <trkpt lat="41.626695695" lon="2.516428352">
        <ele>434.17</ele>
        <time>2014-10-12T06:26:04Z</time>
      </trkpt>
      <trkpt lat="41.626741209" lon="2.516222073">
        <ele>434.65</ele>
        <time>2014-10-12T06:26:12Z</time>
      </trkpt>
      <trkpt lat="41.626769456" lon="2.516025685">
        <ele>436.58</ele>
        <time>2014-10-12T06:26:20Z</time>
      </trkpt>
      <trkpt lat="41.626806839" lon="2.515831225">
        <ele>437.54</ele>
        <time>2014-10-12T06:26:28Z</time>
      </trkpt>
      <trkpt lat="41.626925443" lon="2.515661240">
        <ele>439.46</ele>
        <time>2014-10-12T06:26:37Z</time>
      </trkpt>
      <trkpt lat="41.627042119" lon="2.515535846">
        <ele>440.42</ele>
        <time>2014-10-12T06:26:46Z</time>
      </trkpt>
      <trkpt lat="41.627135326" lon="2.515407184">
        <ele>441.38</ele>
        <time>2014-10-12T06:26:53Z</time>
      </trkpt>
      <trkpt lat="41.627234149" lon="2.515270811">
        <ele>443.79</ele>
        <time>2014-10-12T06:27:02Z</time>
      </trkpt>
      <trkpt lat="41.627356692" lon="2.515072160">
        <ele>445.71</ele>
        <time>2014-10-12T06:27:12Z</time>
      </trkpt>
      <trkpt lat="41.627431291" lon="2.514887171">
        <ele>447.63</ele>
        <time>2014-10-12T06:27:22Z</time>
      </trkpt>
      <trkpt lat="41.627477643" lon="2.514719449">
        <ele>448.11</ele>
        <time>2014-10-12T06:27:30Z</time>
      </trkpt>
      <trkpt lat="41.627506058" lon="2.514500430">
        <ele>449.55</ele>
        <time>2014-10-12T06:27:40Z</time>
      </trkpt>
      <trkpt lat="41.627500190" lon="2.514331367">
        <ele>450.03</ele>
        <time>2014-10-12T06:27:47Z</time>
      </trkpt>
      <trkpt lat="41.627448893" lon="2.514120059">
        <ele>451.96</ele>
        <time>2014-10-12T06:27:56Z</time>
      </trkpt>
      <trkpt lat="41.627427016" lon="2.513941273">
        <ele>452.92</ele>
        <time>2014-10-12T06:28:04Z</time>
      </trkpt>
      <trkpt lat="41.627425508" lon="2.513915289">
        <ele>452.92</ele>
        <time>2014-10-12T06:28:05Z</time>
      </trkpt>
      <trkpt lat="41.627389046" lon="2.513829207">
        <ele>453.40</ele>
        <time>2014-10-12T06:28:09Z</time>
      </trkpt>
      <trkpt lat="41.627300701" lon="2.513659977">
        <ele>453.88</ele>
        <time>2014-10-12T06:28:17Z</time>
      </trkpt>
      <trkpt lat="41.627228952" lon="2.513485801">
        <ele>454.84</ele>
        <time>2014-10-12T06:28:26Z</time>
      </trkpt>
      <trkpt lat="41.627140691" lon="2.513296034">
        <ele>454.84</ele>
        <time>2014-10-12T06:28:31Z</time>
      </trkpt>
      <trkpt lat="41.627027283" lon="2.513095958">
        <ele>453.40</ele>
        <time>2014-10-12T06:28:35Z</time>
      </trkpt>
      <trkpt lat="41.626853191" lon="2.512971571">
        <ele>452.92</ele>
        <time>2014-10-12T06:28:39Z</time>
      </trkpt>
      <trkpt lat="41.626605841" lon="2.512934020">
        <ele>452.92</ele>
        <time>2014-10-12T06:28:44Z</time>
      </trkpt>
      <trkpt lat="41.626509785" lon="2.512935445">
        <ele>451.96</ele>
        <time>2014-10-12T06:28:46Z</time>
      </trkpt>
      <trkpt lat="41.626384475" lon="2.512801251">
        <ele>450.52</ele>
        <time>2014-10-12T06:28:50Z</time>
      </trkpt>
      <trkpt lat="41.626377267" lon="2.512738889">
        <ele>450.52</ele>
        <time>2014-10-12T06:28:51Z</time>
      </trkpt>
      <trkpt lat="41.626371986" lon="2.512585417">
        <ele>449.55</ele>
        <time>2014-10-12T06:28:53Z</time>
      </trkpt>
      <trkpt lat="41.626335106" lon="2.512261288">
        <ele>447.63</ele>
        <time>2014-10-12T06:28:57Z</time>
      </trkpt>
      <trkpt lat="41.626270649" lon="2.511988960">
        <ele>444.75</ele>
        <time>2014-10-12T06:29:02Z</time>
      </trkpt>
      <trkpt lat="41.626085912" lon="2.511750747">
        <ele>442.34</ele>
        <time>2014-10-12T06:29:08Z</time>
      </trkpt>
      <trkpt lat="41.625856248" lon="2.511605404">
        <ele>438.98</ele>
        <time>2014-10-12T06:29:14Z</time>
      </trkpt>
      <trkpt lat="41.625858511" lon="2.511351768">
        <ele>437.06</ele>
        <time>2014-10-12T06:29:19Z</time>
      </trkpt>
      <trkpt lat="41.625876951" lon="2.511290832">
        <ele>436.58</ele>
        <time>2014-10-12T06:29:20Z</time>
      </trkpt>
      <trkpt lat="41.626046601" lon="2.510780038">
        <ele>433.21</ele>
        <time>2014-10-12T06:29:28Z</time>
      </trkpt>
      <trkpt lat="41.626137712" lon="2.510480972">
        <ele>429.85</ele>
        <time>2014-10-12T06:29:33Z</time>
      </trkpt>
      <trkpt lat="41.626269308" lon="2.510043940">
        <ele>427.92</ele>
        <time>2014-10-12T06:29:40Z</time>
      </trkpt>
      <trkpt lat="41.626290430" lon="2.509986607">
        <ele>427.92</ele>
        <time>2014-10-12T06:29:41Z</time>
      </trkpt>
      <trkpt lat="41.626394785" lon="2.509775384">
        <ele>426.48</ele>
        <time>2014-10-12T06:29:45Z</time>
      </trkpt>
      <trkpt lat="41.626465947" lon="2.509603303">
        <ele>426.00</ele>
        <time>2014-10-12T06:29:48Z</time>
      </trkpt>
      <trkpt lat="41.626486315" lon="2.509335417">
        <ele>425.04</ele>
        <time>2014-10-12T06:29:52Z</time>
      </trkpt>
      <trkpt lat="41.626445998" lon="2.509126457">
        <ele>424.08</ele>
        <time>2014-10-12T06:29:55Z</time>
      </trkpt>
      <trkpt lat="41.626495452" lon="2.508813895">
        <ele>423.60</ele>
        <time>2014-10-12T06:30:00Z</time>
      </trkpt>
      <trkpt lat="41.626528057" lon="2.508759162">
        <ele>423.60</ele>
        <time>2014-10-12T06:30:01Z</time>
      </trkpt>
      <trkpt lat="41.626604165" lon="2.508637875">
        <ele>421.68</ele>
        <time>2014-10-12T06:30:03Z</time>
      </trkpt>
      <trkpt lat="41.626710028" lon="2.508315591">
        <ele>420.23</ele>
        <time>2014-10-12T06:30:07Z</time>
      </trkpt>
      <trkpt lat="41.626739114" lon="2.508173518">
        <ele>419.27</ele>
        <time>2014-10-12T06:30:09Z</time>
      </trkpt>
      <trkpt lat="41.626798625" lon="2.507909991">
        <ele>417.35</ele>
        <time>2014-10-12T06:30:14Z</time>
      </trkpt>
      <trkpt lat="41.626731067" lon="2.507866405">
        <ele>416.39</ele>
        <time>2014-10-12T06:30:16Z</time>
      </trkpt>
      <trkpt lat="41.626292442" lon="2.507883085">
        <ele>414.47</ele>
        <time>2014-10-12T06:30:23Z</time>
      </trkpt>
      <trkpt lat="41.625878292" lon="2.507957935">
        <ele>412.06</ele>
        <time>2014-10-12T06:30:29Z</time>
      </trkpt>
      <trkpt lat="41.625828923" lon="2.507959109">
        <ele>411.58</ele>
        <time>2014-10-12T06:30:30Z</time>
      </trkpt>
      <trkpt lat="41.625620800" lon="2.507933796">
        <ele>410.14</ele>
        <time>2014-10-12T06:30:34Z</time>
      </trkpt>
      <trkpt lat="41.625431620" lon="2.507741934">
        <ele>409.66</ele>
        <time>2014-10-12T06:30:39Z</time>
      </trkpt>
      <trkpt lat="41.625429693" lon="2.507696420">
        <ele>410.14</ele>
        <time>2014-10-12T06:30:40Z</time>
      </trkpt>
      <trkpt lat="41.625412761" lon="2.507416632">
        <ele>410.14</ele>
        <time>2014-10-12T06:30:47Z</time>
      </trkpt>
      <trkpt lat="41.625359033" lon="2.507154530">
        <ele>410.14</ele>
        <time>2014-10-12T06:30:55Z</time>
      </trkpt>
      <trkpt lat="41.625326176" lon="2.507028885">
        <ele>411.10</ele>
        <time>2014-10-12T06:30:59Z</time>
      </trkpt>
      <trkpt lat="41.625280998" lon="2.506829145">
        <ele>412.54</ele>
        <time>2014-10-12T06:31:06Z</time>
      </trkpt>
      <trkpt lat="41.625242944" lon="2.506530581">
        <ele>413.50</ele>
        <time>2014-10-12T06:31:17Z</time>
      </trkpt>
      <trkpt lat="41.625271778" lon="2.506355232">
        <ele>416.39</ele>
        <time>2014-10-12T06:31:25Z</time>
      </trkpt>
      <trkpt lat="41.625282506" lon="2.506168315">
        <ele>417.83</ele>
        <time>2014-10-12T06:31:32Z</time>
      </trkpt>
      <trkpt lat="41.625279657" lon="2.506143924">
        <ele>417.83</ele>
        <time>2014-10-12T06:31:33Z</time>
      </trkpt>
      <trkpt lat="41.625212182" lon="2.505891545">
        <ele>418.31</ele>
        <time>2014-10-12T06:31:42Z</time>
      </trkpt>
      <trkpt lat="41.625225509" lon="2.505677052">
        <ele>419.27</ele>
        <time>2014-10-12T06:31:50Z</time>
      </trkpt>
      <trkpt lat="41.625191647" lon="2.505442610">
        <ele>419.27</ele>
        <time>2014-10-12T06:31:57Z</time>
      </trkpt>
      <trkpt lat="41.625095925" lon="2.505271368">
        <ele>420.23</ele>
        <time>2014-10-12T06:32:04Z</time>
      </trkpt>
      <trkpt lat="41.624965335" lon="2.505146980">
        <ele>421.68</ele>
        <time>2014-10-12T06:32:12Z</time>
      </trkpt>
      <trkpt lat="41.624970532" lon="2.505059725">
        <ele>421.68</ele>
        <time>2014-10-12T06:32:16Z</time>
      </trkpt>
      <trkpt lat="41.625150575" lon="2.504908264">
        <ele>422.16</ele>
        <time>2014-10-12T06:32:26Z</time>
      </trkpt>
      <trkpt lat="41.625238837" lon="2.504761832">
        <ele>423.60</ele>
        <time>2014-10-12T06:32:34Z</time>
      </trkpt>
      <trkpt lat="41.625340509" lon="2.504623531">
        <ele>425.04</ele>
        <time>2014-10-12T06:32:42Z</time>
      </trkpt>
      <trkpt lat="41.625431034" lon="2.504424125">
        <ele>426.00</ele>
        <time>2014-10-12T06:32:51Z</time>
      </trkpt>
      <trkpt lat="41.625442265" lon="2.504110893">
        <ele>424.56</ele>
        <time>2014-10-12T06:32:57Z</time>
      </trkpt>
      <trkpt lat="41.625391471" lon="2.503868237">
        <ele>424.56</ele>
        <time>2014-10-12T06:33:03Z</time>
      </trkpt>
      <trkpt lat="41.625319135" lon="2.503682662">
        <ele>424.56</ele>
        <time>2014-10-12T06:33:10Z</time>
      </trkpt>
      <trkpt lat="41.625313771" lon="2.503658606">
        <ele>424.56</ele>
        <time>2014-10-12T06:33:11Z</time>
      </trkpt>
      <trkpt lat="41.625363979" lon="2.503608734">
        <ele>426.00</ele>
        <time>2014-10-12T06:33:15Z</time>
      </trkpt>
      <trkpt lat="41.625425837" lon="2.503593981">
        <ele>426.48</ele>
        <time>2014-10-12T06:33:18Z</time>
      </trkpt>
      <trkpt lat="41.625614681" lon="2.503560705">
        <ele>427.92</ele>
        <time>2014-10-12T06:33:27Z</time>
      </trkpt>
      <trkpt lat="41.625779469" lon="2.503495578">
        <ele>429.37</ele>
        <time>2014-10-12T06:33:36Z</time>
      </trkpt>
      <trkpt lat="41.625888853" lon="2.503350906">
        <ele>429.85</ele>
        <time>2014-10-12T06:33:44Z</time>
      </trkpt>
      <trkpt lat="41.625952975" lon="2.503148399">
        <ele>429.85</ele>
        <time>2014-10-12T06:33:49Z</time>
      </trkpt>
      <trkpt lat="41.626057581" lon="2.502780015">
        <ele>428.89</ele>
        <time>2014-10-12T06:33:56Z</time>
      </trkpt>
      <trkpt lat="41.626027239" lon="2.502615981">
        <ele>428.40</ele>
        <time>2014-10-12T06:33:59Z</time>
      </trkpt>
      <trkpt lat="41.626122122" lon="2.502462844">
        <ele>428.40</ele>
        <time>2014-10-12T06:34:05Z</time>
      </trkpt>
      <trkpt lat="41.626222704" lon="2.502440967">
        <ele>429.85</ele>
        <time>2014-10-12T06:34:10Z</time>
      </trkpt>
      <trkpt lat="41.626386319" lon="2.502415821">
        <ele>430.81</ele>
        <time>2014-10-12T06:34:18Z</time>
      </trkpt>
      <trkpt lat="41.626532332" lon="2.502435435">
        <ele>431.77</ele>
        <time>2014-10-12T06:34:25Z</time>
      </trkpt>
      <trkpt lat="41.626659569" lon="2.502444571">
        <ele>433.69</ele>
        <time>2014-10-12T06:34:33Z</time>
      </trkpt>
      <trkpt lat="41.626777167" lon="2.502425879">
        <ele>435.13</ele>
        <time>2014-10-12T06:34:41Z</time>
      </trkpt>
      <trkpt lat="41.626831817" lon="2.502427304">
        <ele>436.10</ele>
        <time>2014-10-12T06:34:45Z</time>
      </trkpt>
      <trkpt lat="41.626973807" lon="2.502498215">
        <ele>437.54</ele>
        <time>2014-10-12T06:34:55Z</time>
      </trkpt>
      <trkpt lat="41.627088052" lon="2.502518835">
        <ele>438.02</ele>
        <time>2014-10-12T06:35:02Z</time>
      </trkpt>
      <trkpt lat="41.627276729" lon="2.502558733">
        <ele>438.02</ele>
        <time>2014-10-12T06:35:08Z</time>
      </trkpt>
      <trkpt lat="41.627312939" lon="2.502579520">
        <ele>437.06</ele>
        <time>2014-10-12T06:35:09Z</time>
      </trkpt>
      <trkpt lat="41.627476637" lon="2.502623273">
        <ele>436.58</ele>
        <time>2014-10-12T06:35:14Z</time>
      </trkpt>
      <trkpt lat="41.627521732" lon="2.502557140">
        <ele>436.58</ele>
        <time>2014-10-12T06:35:17Z</time>
      </trkpt>
      <trkpt lat="41.627542603" lon="2.502508357">
        <ele>437.54</ele>
        <time>2014-10-12T06:35:19Z</time>
      </trkpt>
      <trkpt lat="41.627601528" lon="2.502320770">
        <ele>437.54</ele>
        <time>2014-10-12T06:35:26Z</time>
      </trkpt>
      <trkpt lat="41.627665901" lon="2.502072163">
        <ele>438.02</ele>
        <time>2014-10-12T06:35:35Z</time>
      </trkpt>
      <trkpt lat="41.627677971" lon="2.502040144">
        <ele>438.02</ele>
        <time>2014-10-12T06:35:36Z</time>
      </trkpt>
      <trkpt lat="41.627700853" lon="2.501734289">
        <ele>438.50</ele>
        <time>2014-10-12T06:35:44Z</time>
      </trkpt>
      <trkpt lat="41.627728262" lon="2.501476629">
        <ele>438.50</ele>
        <time>2014-10-12T06:35:51Z</time>
      </trkpt>
      <trkpt lat="41.627767573" lon="2.501338327">
        <ele>437.06</ele>
        <time>2014-10-12T06:35:54Z</time>
      </trkpt>
      <trkpt lat="41.627782241" lon="2.501258113">
        <ele>437.06</ele>
        <time>2014-10-12T06:35:56Z</time>
      </trkpt>
      <trkpt lat="41.627663135" lon="2.501052588">
        <ele>435.61</ele>
        <time>2014-10-12T06:36:01Z</time>
      </trkpt>
      <trkpt lat="41.627448390" lon="2.500879418">
        <ele>435.13</ele>
        <time>2014-10-12T06:36:07Z</time>
      </trkpt>
      <trkpt lat="41.627382592" lon="2.500779590">
        <ele>434.65</ele>
        <time>2014-10-12T06:36:10Z</time>
      </trkpt>
      <trkpt lat="41.627411426" lon="2.500478177">
        <ele>433.21</ele>
        <time>2014-10-12T06:36:15Z</time>
      </trkpt>
      <trkpt lat="41.627374713" lon="2.500213225">
        <ele>431.77</ele>
        <time>2014-10-12T06:36:19Z</time>
      </trkpt>
      <trkpt lat="41.627173631" lon="2.500036115">
        <ele>430.81</ele>
        <time>2014-10-12T06:36:24Z</time>
      </trkpt>
      <trkpt lat="41.626974226" lon="2.500008371">
        <ele>430.33</ele>
        <time>2014-10-12T06:36:28Z</time>
      </trkpt>
      <trkpt lat="41.626726373" lon="2.499971071">
        <ele>430.81</ele>
        <time>2014-10-12T06:36:35Z</time>
      </trkpt>
      <trkpt lat="41.626681446" lon="2.499798488">
        <ele>430.81</ele>
        <time>2014-10-12T06:36:40Z</time>
      </trkpt>
      <trkpt lat="41.626723356" lon="2.499461787">
        <ele>429.85</ele>
        <time>2014-10-12T06:36:47Z</time>
      </trkpt>
      <trkpt lat="41.626715728" lon="2.499163643">
        <ele>428.89</ele>
        <time>2014-10-12T06:36:53Z</time>
      </trkpt>
      <trkpt lat="41.626608021" lon="2.498930207">
        <ele>428.89</ele>
        <time>2014-10-12T06:36:58Z</time>
      </trkpt>
      <trkpt lat="41.626558651" lon="2.498701548">
        <ele>427.92</ele>
        <time>2014-10-12T06:37:04Z</time>
      </trkpt>
      <trkpt lat="41.626608104" lon="2.498647234">
        <ele>427.92</ele>
        <time>2014-10-12T06:37:06Z</time>
      </trkpt>
      <trkpt lat="41.626750681" lon="2.498443218">
        <ele>428.89</ele>
        <time>2014-10-12T06:37:14Z</time>
      </trkpt>
      <trkpt lat="41.626909350" lon="2.498394519">
        <ele>429.37</ele>
        <time>2014-10-12T06:37:21Z</time>
      </trkpt>
      <trkpt lat="41.627050082" lon="2.498416061">
        <ele>429.85</ele>
        <time>2014-10-12T06:37:27Z</time>
      </trkpt>
      <trkpt lat="41.627214870" lon="2.498421844">
        <ele>429.85</ele>
        <time>2014-10-12T06:37:33Z</time>
      </trkpt>
      <trkpt lat="41.627247141" lon="2.498253117">
        <ele>429.85</ele>
        <time>2014-10-12T06:37:38Z</time>
      </trkpt>
      <trkpt lat="41.627121580" lon="2.498178266">
        <ele>429.85</ele>
        <time>2014-10-12T06:37:42Z</time>
      </trkpt>
      <trkpt lat="41.626943716" lon="2.498120263">
        <ele>428.89</ele>
        <time>2014-10-12T06:37:48Z</time>
      </trkpt>
      <trkpt lat="41.626808767" lon="2.497991853">
        <ele>428.89</ele>
        <time>2014-10-12T06:37:54Z</time>
      </trkpt>
      <trkpt lat="41.626646745" lon="2.497800997">
        <ele>428.89</ele>
        <time>2014-10-12T06:38:02Z</time>
      </trkpt>
      <trkpt lat="41.626516574" lon="2.497598406">
        <ele>427.92</ele>
        <time>2014-10-12T06:38:08Z</time>
      </trkpt>
      <trkpt lat="41.626541720" lon="2.497468738">
        <ele>427.92</ele>
        <time>2014-10-12T06:38:12Z</time>
      </trkpt>
      <trkpt lat="41.626570637" lon="2.497382740">
        <ele>427.92</ele>
        <time>2014-10-12T06:38:15Z</time>
      </trkpt>
      <trkpt lat="41.626509030" lon="2.497159697">
        <ele>428.89</ele>
        <time>2014-10-12T06:38:21Z</time>
      </trkpt>
      <trkpt lat="41.626452033" lon="2.496989377">
        <ele>429.85</ele>
        <time>2014-10-12T06:38:28Z</time>
      </trkpt>
      <trkpt lat="41.626452033" lon="2.496971021">
        <ele>430.33</ele>
        <time>2014-10-12T06:38:29Z</time>
      </trkpt>
      <trkpt lat="41.626507857" lon="2.496868594">
        <ele>430.81</ele>
        <time>2014-10-12T06:38:33Z</time>
      </trkpt>
      <trkpt lat="41.626653115" lon="2.496533150">
        <ele>431.29</ele>
        <time>2014-10-12T06:38:43Z</time>
      </trkpt>
      <trkpt lat="41.626750178" lon="2.496270880">
        <ele>431.77</ele>
        <time>2014-10-12T06:38:51Z</time>
      </trkpt>
      <trkpt lat="41.626720673" lon="2.496035265">
        <ele>432.25</ele>
        <time>2014-10-12T06:38:58Z</time>
      </trkpt>
      <trkpt lat="41.626615313" lon="2.495938622">
        <ele>432.25</ele>
        <time>2014-10-12T06:39:04Z</time>
      </trkpt>
      <trkpt lat="41.626453039" lon="2.495881625">
        <ele>432.25</ele>
        <time>2014-10-12T06:39:11Z</time>
      </trkpt>
      <trkpt lat="41.626261429" lon="2.495883133">
        <ele>432.25</ele>
        <time>2014-10-12T06:39:17Z</time>
      </trkpt>
      <trkpt lat="41.626201414" lon="2.495773247">
        <ele>431.77</ele>
        <time>2014-10-12T06:39:21Z</time>
      </trkpt>
      <trkpt lat="41.626227734" lon="2.495588677">
        <ele>431.77</ele>
        <time>2014-10-12T06:39:28Z</time>
      </trkpt>
      <trkpt lat="41.626346757" lon="2.495359851">
        <ele>431.77</ele>
        <time>2014-10-12T06:39:36Z</time>
      </trkpt>
      <trkpt lat="41.626487824" lon="2.495107137">
        <ele>432.25</ele>
        <time>2014-10-12T06:39:45Z</time>
      </trkpt>
      <trkpt lat="41.626626293" lon="2.494856434">
        <ele>432.25</ele>
        <time>2014-10-12T06:39:52Z</time>
      </trkpt>
      <trkpt lat="41.626716985" lon="2.494647557">
        <ele>432.25</ele>
        <time>2014-10-12T06:39:58Z</time>
      </trkpt>
      <trkpt lat="41.626714722" lon="2.494399201">
        <ele>432.25</ele>
        <time>2014-10-12T06:40:04Z</time>
      </trkpt>
      <trkpt lat="41.626720170" lon="2.494211028">
        <ele>432.25</ele>
        <time>2014-10-12T06:40:10Z</time>
      </trkpt>
      <trkpt lat="41.626877247" lon="2.494017825">
        <ele>433.21</ele>
        <time>2014-10-12T06:40:18Z</time>
      </trkpt>
      <trkpt lat="41.626940950" lon="2.493852031">
        <ele>433.21</ele>
        <time>2014-10-12T06:40:24Z</time>
      </trkpt>
      <trkpt lat="41.626985542" lon="2.493620187">
        <ele>434.65</ele>
        <time>2014-10-12T06:40:31Z</time>
      </trkpt>
      <trkpt lat="41.626969281" lon="2.493434025">
        <ele>434.65</ele>
        <time>2014-10-12T06:40:37Z</time>
      </trkpt>
      <trkpt lat="41.626804492" lon="2.493280469">
        <ele>435.13</ele>
        <time>2014-10-12T06:40:46Z</time>
      </trkpt>
      <trkpt lat="41.626640375" lon="2.493269572">
        <ele>436.10</ele>
        <time>2014-10-12T06:40:54Z</time>
      </trkpt>
      <trkpt lat="41.626487070" lon="2.493325731">
        <ele>436.58</ele>
        <time>2014-10-12T06:41:01Z</time>
      </trkpt>
      <trkpt lat="41.626343655" lon="2.493403766">
        <ele>438.02</ele>
        <time>2014-10-12T06:41:09Z</time>
      </trkpt>
      <trkpt lat="41.626209713" lon="2.493471911">
        <ele>438.50</ele>
        <time>2014-10-12T06:41:16Z</time>
      </trkpt>
      <trkpt lat="41.626082811" lon="2.493441401">
        <ele>439.94</ele>
        <time>2014-10-12T06:41:22Z</time>
      </trkpt>
      <trkpt lat="41.625970325" lon="2.493405359">
        <ele>440.90</ele>
        <time>2014-10-12T06:41:28Z</time>
      </trkpt>
      <trkpt lat="41.625843842" lon="2.493303184">
        <ele>441.38</ele>
        <time>2014-10-12T06:41:35Z</time>
      </trkpt>
      <trkpt lat="41.625835880" lon="2.493176868">
        <ele>441.86</ele>
        <time>2014-10-12T06:41:40Z</time>
      </trkpt>
      <trkpt lat="41.625899666" lon="2.492995232">
        <ele>442.82</ele>
        <time>2014-10-12T06:41:47Z</time>
      </trkpt>
      <trkpt lat="41.625870916" lon="2.492828768">
        <ele>442.82</ele>
        <time>2014-10-12T06:41:51Z</time>
      </trkpt>
      <trkpt lat="41.625847950" lon="2.492656184">
        <ele>440.90</ele>
        <time>2014-10-12T06:41:55Z</time>
      </trkpt>
      <trkpt lat="41.625937971" lon="2.492535234">
        <ele>440.90</ele>
        <time>2014-10-12T06:42:00Z</time>
      </trkpt>
      <trkpt lat="41.626093707" lon="2.492421743">
        <ele>440.90</ele>
        <time>2014-10-12T06:42:08Z</time>
      </trkpt>
      <trkpt lat="41.626151123" lon="2.492324177">
        <ele>442.34</ele>
        <time>2014-10-12T06:42:12Z</time>
      </trkpt>
      <trkpt lat="41.626194038" lon="2.492113205">
        <ele>443.31</ele>
        <time>2014-10-12T06:42:19Z</time>
      </trkpt>
      <trkpt lat="41.626241648" lon="2.491925953">
        <ele>443.79</ele>
        <time>2014-10-12T06:42:26Z</time>
      </trkpt>
      <trkpt lat="41.626367041" lon="2.491760913">
        <ele>444.75</ele>
        <time>2014-10-12T06:42:34Z</time>
      </trkpt>
      <trkpt lat="41.626515568" lon="2.491675586">
        <ele>445.71</ele>
        <time>2014-10-12T06:42:42Z</time>
      </trkpt>
      <trkpt lat="41.626591927" lon="2.491531585">
        <ele>446.67</ele>
        <time>2014-10-12T06:42:48Z</time>
      </trkpt>
      <trkpt lat="41.626546665" lon="2.491365539">
        <ele>447.63</ele>
        <time>2014-10-12T06:42:55Z</time>
      </trkpt>
      <trkpt lat="41.626459661" lon="2.491201002">
        <ele>449.07</ele>
        <time>2014-10-12T06:43:03Z</time>
      </trkpt>
      <trkpt lat="41.626350864" lon="2.491073514">
        <ele>451.48</ele>
        <time>2014-10-12T06:43:11Z</time>
      </trkpt>
      <trkpt lat="41.626291101" lon="2.491028084">
        <ele>451.96</ele>
        <time>2014-10-12T06:43:15Z</time>
      </trkpt>
      <trkpt lat="41.626214155" lon="2.490966309">
        <ele>453.40</ele>
        <time>2014-10-12T06:43:23Z</time>
      </trkpt>
      <trkpt lat="41.626187333" lon="2.490944181">
        <ele>453.40</ele>
        <time>2014-10-12T06:43:25Z</time>
      </trkpt>
      <trkpt lat="41.626214826" lon="2.490834881">
        <ele>453.40</ele>
        <time>2014-10-12T06:43:32Z</time>
      </trkpt>
      <trkpt lat="41.626342650" lon="2.490715103">
        <ele>451.96</ele>
        <time>2014-10-12T06:43:37Z</time>
      </trkpt>
      <trkpt lat="41.626488495" lon="2.490678474">
        <ele>451.48</ele>
        <time>2014-10-12T06:43:40Z</time>
      </trkpt>
      <trkpt lat="41.626751267" lon="2.490617873">
        <ele>449.07</ele>
        <time>2014-10-12T06:43:45Z</time>
      </trkpt>
      <trkpt lat="41.626797619" lon="2.490458701">
        <ele>448.11</ele>
        <time>2014-10-12T06:43:48Z</time>
      </trkpt>
      <trkpt lat="41.626781275" lon="2.490402375">
        <ele>447.63</ele>
        <time>2014-10-12T06:43:49Z</time>
      </trkpt>
      <trkpt lat="41.626749759" lon="2.490276562">
        <ele>447.63</ele>
        <time>2014-10-12T06:43:52Z</time>
      </trkpt>
      <trkpt lat="41.626792255" lon="2.490073552">
        <ele>449.07</ele>
        <time>2014-10-12T06:44:00Z</time>
      </trkpt>
      <trkpt lat="41.626837014" lon="2.489823688">
        <ele>450.52</ele>
        <time>2014-10-12T06:44:09Z</time>
      </trkpt>
      <trkpt lat="41.626875487" lon="2.489757219">
        <ele>450.52</ele>
        <time>2014-10-12T06:44:11Z</time>
      </trkpt>
      <trkpt lat="41.627006412" lon="2.489807427">
        <ele>450.52</ele>
        <time>2014-10-12T06:44:16Z</time>
      </trkpt>
      <trkpt lat="41.627098110" lon="2.489975484">
        <ele>448.59</ele>
        <time>2014-10-12T06:44:21Z</time>
      </trkpt>
      <trkpt lat="41.627185701" lon="2.489800554">
        <ele>448.11</ele>
        <time>2014-10-12T06:44:26Z</time>
      </trkpt>
      <trkpt lat="41.627149743" lon="2.489500985">
        <ele>447.63</ele>
        <time>2014-10-12T06:44:32Z</time>
      </trkpt>
      <trkpt lat="41.627085957" lon="2.489319265">
        <ele>446.67</ele>
        <time>2014-10-12T06:44:35Z</time>
      </trkpt>
      <trkpt lat="41.627125352" lon="2.489089769">
        <ele>446.67</ele>
        <time>2014-10-12T06:44:40Z</time>
      </trkpt>
      <trkpt lat="41.627193077" lon="2.489066802">
        <ele>446.67</ele>
        <time>2014-10-12T06:44:42Z</time>
      </trkpt>
      <trkpt lat="41.627387957" lon="2.488944762">
        <ele>446.67</ele>
        <time>2014-10-12T06:44:48Z</time>
      </trkpt>
      <trkpt lat="41.627487198" lon="2.488715852">
        <ele>446.67</ele>
        <time>2014-10-12T06:44:54Z</time>
      </trkpt>
      <trkpt lat="41.627570263" lon="2.488487864">
        <ele>448.11</ele>
        <time>2014-10-12T06:45:02Z</time>
      </trkpt>
      <trkpt lat="41.627621476" lon="2.488296338">
        <ele>450.03</ele>
        <time>2014-10-12T06:45:10Z</time>
      </trkpt>
      <trkpt lat="41.627660201" lon="2.488104308">
        <ele>451.96</ele>
        <time>2014-10-12T06:45:18Z</time>
      </trkpt>
      <trkpt lat="41.627774865" lon="2.487880092">
        <ele>451.96</ele>
        <time>2014-10-12T06:45:26Z</time>
      </trkpt>
      <trkpt lat="41.627800765" lon="2.487811109">
        <ele>451.96</ele>
        <time>2014-10-12T06:45:28Z</time>
      </trkpt>
      <trkpt lat="41.627918196" lon="2.487816390">
        <ele>451.96</ele>
        <time>2014-10-12T06:45:33Z</time>
      </trkpt>
      <trkpt lat="41.627944683" lon="2.487873051">
        <ele>451.96</ele>
        <time>2014-10-12T06:45:35Z</time>
      </trkpt>
      <trkpt lat="41.628009559" lon="2.488048233">
        <ele>451.96</ele>
        <time>2014-10-12T06:45:42Z</time>
      </trkpt>
      <trkpt lat="41.628137550" lon="2.488181673">
        <ele>452.92</ele>
        <time>2014-10-12T06:45:50Z</time>
      </trkpt>
      <trkpt lat="41.628299153" lon="2.488221571">
        <ele>453.40</ele>
        <time>2014-10-12T06:45:57Z</time>
      </trkpt>
      <trkpt lat="41.628320695" lon="2.488242023">
        <ele>453.40</ele>
        <time>2014-10-12T06:45:58Z</time>
      </trkpt>
      <trkpt lat="41.628347182" lon="2.488415780">
        <ele>453.88</ele>
        <time>2014-10-12T06:46:04Z</time>
      </trkpt>
      <trkpt lat="41.628352630" lon="2.488653323">
        <ele>455.32</ele>
        <time>2014-10-12T06:46:12Z</time>
      </trkpt>
      <trkpt lat="41.628459918" lon="2.488767149">
        <ele>457.24</ele>
        <time>2014-10-12T06:46:19Z</time>
      </trkpt>
      <trkpt lat="41.628574667" lon="2.488838898">
        <ele>459.17</ele>
        <time>2014-10-12T06:46:26Z</time>
      </trkpt>
      <trkpt lat="41.628689582" lon="2.488955490">
        <ele>460.13</ele>
        <time>2014-10-12T06:46:34Z</time>
      </trkpt>
      <trkpt lat="41.628678015" lon="2.489042997">
        <ele>461.09</ele>
        <time>2014-10-12T06:46:38Z</time>
      </trkpt>
      <trkpt lat="41.628624539" lon="2.489245253">
        <ele>462.05</ele>
        <time>2014-10-12T06:46:48Z</time>
      </trkpt>
      <trkpt lat="41.628649014" lon="2.489446586">
        <ele>462.05</ele>
        <time>2014-10-12T06:46:56Z</time>
      </trkpt>
      <trkpt lat="41.628680111" lon="2.489511462">
        <ele>460.61</ele>
        <time>2014-10-12T06:46:59Z</time>
      </trkpt>
      <trkpt lat="41.628706346" lon="2.489561837">
        <ele>460.61</ele>
        <time>2014-10-12T06:47:02Z</time>
      </trkpt>
      <trkpt lat="41.628789914" lon="2.489681699">
        <ele>463.49</ele>
        <time>2014-10-12T06:47:11Z</time>
      </trkpt>
      <trkpt lat="41.628869039" lon="2.489735846">
        <ele>464.93</ele>
        <time>2014-10-12T06:47:19Z</time>
      </trkpt>
      <trkpt lat="41.628902818" lon="2.489754873">
        <ele>465.90</ele>
        <time>2014-10-12T06:47:22Z</time>
      </trkpt>
      <trkpt lat="41.628955289" lon="2.489791166">
        <ele>466.38</ele>
        <time>2014-10-12T06:47:26Z</time>
      </trkpt>
      <trkpt lat="41.629012453" lon="2.489846235">
        <ele>468.30</ele>
        <time>2014-10-12T06:47:32Z</time>
      </trkpt>
      <trkpt lat="41.629098955" lon="2.489969617">
        <ele>471.18</ele>
        <time>2014-10-12T06:47:43Z</time>
      </trkpt>
      <trkpt lat="41.629122759" lon="2.490059136">
        <ele>472.63</ele>
        <time>2014-10-12T06:47:50Z</time>
      </trkpt>
      <trkpt lat="41.629129800" lon="2.490193162">
        <ele>474.07</ele>
        <time>2014-10-12T06:47:59Z</time>
      </trkpt>
      <trkpt lat="41.629132147" lon="2.490245130">
        <ele>474.07</ele>
        <time>2014-10-12T06:48:03Z</time>
      </trkpt>
      <trkpt lat="41.629136170" lon="2.490492229">
        <ele>476.47</ele>
        <time>2014-10-12T06:48:15Z</time>
      </trkpt>
      <trkpt lat="41.629132315" lon="2.490616532">
        <ele>476.95</ele>
        <time>2014-10-12T06:48:22Z</time>
      </trkpt>
      <trkpt lat="41.629215798" lon="2.490718540">
        <ele>477.43</ele>
        <time>2014-10-12T06:48:30Z</time>
      </trkpt>
      <trkpt lat="41.629335324" lon="2.490695909">
        <ele>477.43</ele>
        <time>2014-10-12T06:48:38Z</time>
      </trkpt>
      <trkpt lat="41.629356028" lon="2.490697920">
        <ele>477.43</ele>
        <time>2014-10-12T06:48:40Z</time>
      </trkpt>
      <trkpt lat="41.629420568" lon="2.490752570">
        <ele>477.43</ele>
        <time>2014-10-12T06:48:45Z</time>
      </trkpt>
      <trkpt lat="41.629553002" lon="2.490869582">
        <ele>477.43</ele>
        <time>2014-10-12T06:48:52Z</time>
      </trkpt>
      <trkpt lat="41.629667248" lon="2.490980642">
        <ele>475.51</ele>
        <time>2014-10-12T06:48:57Z</time>
      </trkpt>
      <trkpt lat="41.629770094" lon="2.491100503">
        <ele>475.51</ele>
        <time>2014-10-12T06:49:04Z</time>
      </trkpt>
      <trkpt lat="41.629909904" lon="2.491245594">
        <ele>474.07</ele>
        <time>2014-10-12T06:49:12Z</time>
      </trkpt>
      <trkpt lat="41.630044014" lon="2.491212737">
        <ele>473.59</ele>
        <time>2014-10-12T06:49:18Z</time>
      </trkpt>
      <trkpt lat="41.630097155" lon="2.491184322">
        <ele>473.59</ele>
        <time>2014-10-12T06:49:21Z</time>
      </trkpt>
      <trkpt lat="41.630156751" lon="2.491140401">
        <ele>473.59</ele>
        <time>2014-10-12T06:49:25Z</time>
      </trkpt>
      <trkpt lat="41.630224728" lon="2.491054319">
        <ele>473.59</ele>
        <time>2014-10-12T06:49:30Z</time>
      </trkpt>
      <trkpt lat="41.630307206" lon="2.490940744">
        <ele>475.51</ele>
        <time>2014-10-12T06:49:39Z</time>
      </trkpt>
      <trkpt lat="41.630315169" lon="2.490917023">
        <ele>475.51</ele>
        <time>2014-10-12T06:49:41Z</time>
      </trkpt>
      <trkpt lat="41.630334112" lon="2.490761874">
        <ele>476.95</ele>
        <time>2014-10-12T06:49:51Z</time>
      </trkpt>
      <trkpt lat="41.630345595" lon="2.490600104">
        <ele>478.39</ele>
        <time>2014-10-12T06:49:59Z</time>
      </trkpt>
      <trkpt lat="41.630481047" lon="2.490456605">
        <ele>478.39</ele>
        <time>2014-10-12T06:50:07Z</time>
      </trkpt>
      <trkpt lat="41.630625551" lon="2.490400866">
        <ele>478.87</ele>
        <time>2014-10-12T06:50:15Z</time>
      </trkpt>
      <trkpt lat="41.630690846" lon="2.490246387">
        <ele>479.35</ele>
        <time>2014-10-12T06:50:21Z</time>
      </trkpt>
      <trkpt lat="41.630759577" lon="2.490057124">
        <ele>479.84</ele>
        <time>2014-10-12T06:50:29Z</time>
      </trkpt>
      <trkpt lat="41.630927131" lon="2.489969449">
        <ele>479.84</ele>
        <time>2014-10-12T06:50:37Z</time>
      </trkpt>
      <trkpt lat="41.631033414" lon="2.490021249">
        <ele>479.84</ele>
        <time>2014-10-12T06:50:42Z</time>
      </trkpt>
      <trkpt lat="41.631157299" lon="2.490126442">
        <ele>481.28</ele>
        <time>2014-10-12T06:50:50Z</time>
      </trkpt>
      <trkpt lat="41.631287302" lon="2.490164412">
        <ele>483.20</ele>
        <time>2014-10-12T06:50:58Z</time>
      </trkpt>
      <trkpt lat="41.631415210" lon="2.490104817">
        <ele>484.16</ele>
        <time>2014-10-12T06:51:06Z</time>
      </trkpt>
      <trkpt lat="41.631543453" lon="2.490097609">
        <ele>485.60</ele>
        <time>2014-10-12T06:51:14Z</time>
      </trkpt>
      <trkpt lat="41.631674797" lon="2.490080090">
        <ele>486.08</ele>
        <time>2014-10-12T06:51:23Z</time>
      </trkpt>
      <trkpt lat="41.631745708" lon="2.490071876">
        <ele>487.05</ele>
        <time>2014-10-12T06:51:31Z</time>
      </trkpt>
      <trkpt lat="41.631774039" lon="2.490066260">
        <ele>487.05</ele>
        <time>2014-10-12T06:51:41Z</time>
      </trkpt>
      <trkpt lat="41.631791306" lon="2.490064416">
        <ele>487.53</ele>
        <time>2014-10-12T06:51:54Z</time>
      </trkpt>
      <trkpt lat="41.631811506" lon="2.490064249">
        <ele>487.53</ele>
        <time>2014-10-12T06:52:08Z</time>
      </trkpt>
      <trkpt lat="41.631820391" lon="2.490061063">
        <ele>488.01</ele>
        <time>2014-10-12T06:52:26Z</time>
      </trkpt>
      <trkpt lat="41.631862300" lon="2.490043294">
        <ele>488.97</ele>
        <time>2014-10-12T06:52:34Z</time>
      </trkpt>
      <trkpt lat="41.631886440" lon="2.490031643">
        <ele>488.97</ele>
        <time>2014-10-12T06:52:40Z</time>
      </trkpt>
      <trkpt lat="41.631878980" lon="2.490041115">
        <ele>489.45</ele>
        <time>2014-10-12T06:52:47Z</time>
      </trkpt>
      <trkpt lat="41.631912592" lon="2.490049664">
        <ele>489.93</ele>
        <time>2014-10-12T06:52:58Z</time>
      </trkpt>
      <trkpt lat="41.631980653" lon="2.490043964">
        <ele>491.85</ele>
        <time>2014-10-12T06:53:08Z</time>
      </trkpt>
      <trkpt lat="41.632042176" lon="2.489997948">
        <ele>493.29</ele>
        <time>2014-10-12T06:53:17Z</time>
      </trkpt>
      <trkpt lat="41.632059275" lon="2.489985040">
        <ele>492.81</ele>
        <time>2014-10-12T06:53:21Z</time>
      </trkpt>
      <trkpt lat="41.632090037" lon="2.489940364">
        <ele>493.29</ele>
        <time>2014-10-12T06:53:25Z</time>
      </trkpt>
      <trkpt lat="41.632202270" lon="2.489765434">
        <ele>494.26</ele>
        <time>2014-10-12T06:53:33Z</time>
      </trkpt>
      <trkpt lat="41.632254154" lon="2.489755292">
        <ele>492.81</ele>
        <time>2014-10-12T06:53:35Z</time>
      </trkpt>
      <trkpt lat="41.632283575" lon="2.489796028">
        <ele>492.33</ele>
        <time>2014-10-12T06:53:37Z</time>
      </trkpt>
      <trkpt lat="41.632324646" lon="2.490021417">
        <ele>492.33</ele>
        <time>2014-10-12T06:53:46Z</time>
      </trkpt>
      <trkpt lat="41.632399832" lon="2.490209172">
        <ele>492.33</ele>
        <time>2014-10-12T06:53:54Z</time>
      </trkpt>
      <trkpt lat="41.632491027" lon="2.490295002">
        <ele>492.33</ele>
        <time>2014-10-12T06:53:59Z</time>
      </trkpt>
      <trkpt lat="41.632546180" lon="2.490283268">
        <ele>493.29</ele>
        <time>2014-10-12T06:54:02Z</time>
      </trkpt>
      <trkpt lat="41.632565626" lon="2.490257787">
        <ele>493.77</ele>
        <time>2014-10-12T06:54:04Z</time>
      </trkpt>
      <trkpt lat="41.632638381" lon="2.490129795">
        <ele>495.70</ele>
        <time>2014-10-12T06:54:13Z</time>
      </trkpt>
      <trkpt lat="41.632616169" lon="2.489970287">
        <ele>498.58</ele>
        <time>2014-10-12T06:54:23Z</time>
      </trkpt>
      <trkpt lat="41.632607200" lon="2.489879428">
        <ele>500.50</ele>
        <time>2014-10-12T06:54:29Z</time>
      </trkpt>
      <trkpt lat="41.632630418" lon="2.489725452">
        <ele>501.46</ele>
        <time>2014-10-12T06:54:38Z</time>
      </trkpt>
      <trkpt lat="41.632695210" lon="2.489580529">
        <ele>503.87</ele>
        <time>2014-10-12T06:54:49Z</time>
      </trkpt>
      <trkpt lat="41.632758242" lon="2.489513725">
        <ele>505.79</ele>
        <time>2014-10-12T06:54:57Z</time>
      </trkpt>
      <trkpt lat="41.632812724" lon="2.489514982">
        <ele>507.23</ele>
        <time>2014-10-12T06:55:03Z</time>
      </trkpt>
      <trkpt lat="41.632905428" lon="2.489555551">
        <ele>509.64</ele>
        <time>2014-10-12T06:55:13Z</time>
      </trkpt>
      <trkpt lat="41.633002323" lon="2.489586815">
        <ele>510.60</ele>
        <time>2014-10-12T06:55:22Z</time>
      </trkpt>
      <trkpt lat="41.633087232" lon="2.489625288">
        <ele>511.56</ele>
        <time>2014-10-12T06:55:30Z</time>
      </trkpt>
      <trkpt lat="41.633098547" lon="2.489635011">
        <ele>512.04</ele>
        <time>2014-10-12T06:55:31Z</time>
      </trkpt>
      <trkpt lat="41.633197789" lon="2.489651524">
        <ele>513.48</ele>
        <time>2014-10-12T06:55:41Z</time>
      </trkpt>
      <trkpt lat="41.633290996" lon="2.489658900">
        <ele>515.40</ele>
        <time>2014-10-12T06:55:51Z</time>
      </trkpt>
      <trkpt lat="41.633400212" lon="2.489655044">
        <ele>518.29</ele>
        <time>2014-10-12T06:56:01Z</time>
      </trkpt>
      <trkpt lat="41.633448073" lon="2.489668874">
        <ele>518.29</ele>
        <time>2014-10-12T06:56:05Z</time>
      </trkpt>
      <trkpt lat="41.633548991" lon="2.489629395">
        <ele>519.73</ele>
        <time>2014-10-12T06:56:14Z</time>
      </trkpt>
      <trkpt lat="41.633584111" lon="2.489594359">
        <ele>520.69</ele>
        <time>2014-10-12T06:56:18Z</time>
      </trkpt>
      <trkpt lat="41.633613615" lon="2.489465278">
        <ele>522.61</ele>
        <time>2014-10-12T06:56:29Z</time>
      </trkpt>
      <trkpt lat="41.633596265" lon="2.489350194">
        <ele>523.58</ele>
        <time>2014-10-12T06:56:38Z</time>
      </trkpt>
      <trkpt lat="41.633593750" lon="2.489337202">
        <ele>523.58</ele>
        <time>2014-10-12T06:56:39Z</time>
      </trkpt>
      <trkpt lat="41.633603473" lon="2.489275931">
        <ele>523.58</ele>
        <time>2014-10-12T06:56:43Z</time>
      </trkpt>
      <trkpt lat="41.633605233" lon="2.489127236">
        <ele>523.58</ele>
        <time>2014-10-12T06:56:52Z</time>
      </trkpt>
      <trkpt lat="41.633647730" lon="2.488916850">
        <ele>524.06</ele>
        <time>2014-10-12T06:57:02Z</time>
      </trkpt>
      <trkpt lat="41.633651669" lon="2.488898410">
        <ele>524.06</ele>
        <time>2014-10-12T06:57:10Z</time>
      </trkpt>
      <trkpt lat="41.633661224" lon="2.488893548">
        <ele>524.06</ele>
        <time>2014-10-12T06:57:26Z</time>
      </trkpt>
      <trkpt lat="41.633651250" lon="2.488877203">
        <ele>524.06</ele>
        <time>2014-10-12T06:57:40Z</time>
      </trkpt>
      <trkpt lat="41.633649657" lon="2.488871588">
        <ele>524.06</ele>
        <time>2014-10-12T06:57:45Z</time>
      </trkpt>
      <trkpt lat="41.633762226" lon="2.488805035">
        <ele>523.09</ele>
        <time>2014-10-12T06:57:51Z</time>
      </trkpt>
      <trkpt lat="41.633813188" lon="2.488760527">
        <ele>522.61</ele>
        <time>2014-10-12T06:57:53Z</time>
      </trkpt>
      <trkpt lat="41.633879908" lon="2.488521978">
        <ele>522.13</ele>
        <time>2014-10-12T06:57:58Z</time>
      </trkpt>
      <trkpt lat="41.633921399" lon="2.488399100">
        <ele>520.21</ele>
        <time>2014-10-12T06:58:00Z</time>
      </trkpt>
      <trkpt lat="41.634015360" lon="2.488248812">
        <ele>519.25</ele>
        <time>2014-10-12T06:58:03Z</time>
      </trkpt>
      <trkpt lat="41.634141508" lon="2.488156108">
        <ele>517.81</ele>
        <time>2014-10-12T06:58:06Z</time>
      </trkpt>
      <trkpt lat="41.634248796" lon="2.488060722">
        <ele>515.40</ele>
        <time>2014-10-12T06:58:09Z</time>
      </trkpt>
      <trkpt lat="41.634322724" lon="2.487967096">
        <ele>513.96</ele>
        <time>2014-10-12T06:58:12Z</time>
      </trkpt>
      <trkpt lat="41.634361952" lon="2.487869615">
        <ele>513.00</ele>
        <time>2014-10-12T06:58:15Z</time>
      </trkpt>
      <trkpt lat="41.634428336" lon="2.487664426">
        <ele>509.16</ele>
        <time>2014-10-12T06:58:19Z</time>
      </trkpt>
      <trkpt lat="41.634504276" lon="2.487505505">
        <ele>505.79</ele>
        <time>2014-10-12T06:58:23Z</time>
      </trkpt>
      <trkpt lat="41.634572254" lon="2.487475917">
        <ele>505.31</ele>
        <time>2014-10-12T06:58:28Z</time>
      </trkpt>
      <trkpt lat="41.634574684" lon="2.487465020">
        <ele>505.31</ele>
        <time>2014-10-12T06:58:30Z</time>
      </trkpt>
      <trkpt lat="41.634672836" lon="2.487398133">
        <ele>501.95</ele>
        <time>2014-10-12T06:58:37Z</time>
      </trkpt>
      <trkpt lat="41.634684487" lon="2.487389499">
        <ele>501.46</ele>
        <time>2014-10-12T06:58:38Z</time>
      </trkpt>
      <trkpt lat="41.634721284" lon="2.487392014">
        <ele>500.98</ele>
        <time>2014-10-12T06:58:42Z</time>
      </trkpt>
      <trkpt lat="41.634827399" lon="2.487454711">
        <ele>498.10</ele>
        <time>2014-10-12T06:58:48Z</time>
      </trkpt>
      <trkpt lat="41.634920773" lon="2.487433002">
        <ele>496.18</ele>
        <time>2014-10-12T06:58:53Z</time>
      </trkpt>
      <trkpt lat="41.634940387" lon="2.487424536">
        <ele>496.18</ele>
        <time>2014-10-12T06:58:54Z</time>
      </trkpt>
      <trkpt lat="41.634999144" lon="2.487375669">
        <ele>496.18</ele>
        <time>2014-10-12T06:58:58Z</time>
      </trkpt>
      <trkpt lat="41.635124286" lon="2.487383800">
        <ele>494.74</ele>
        <time>2014-10-12T06:59:04Z</time>
      </trkpt>
      <trkpt lat="41.635151778" lon="2.487400647">
        <ele>494.26</ele>
        <time>2014-10-12T06:59:06Z</time>
      </trkpt>
      <trkpt lat="41.635267029" lon="2.487445574">
        <ele>491.85</ele>
        <time>2014-10-12T06:59:13Z</time>
      </trkpt>
      <trkpt lat="41.635306089" lon="2.487437695">
        <ele>490.41</ele>
        <time>2014-10-12T06:59:15Z</time>
      </trkpt>
      <trkpt lat="41.635447995" lon="2.487411544">
        <ele>488.49</ele>
        <time>2014-10-12T06:59:22Z</time>
      </trkpt>
      <trkpt lat="41.635533993" lon="2.487397378">
        <ele>488.49</ele>
        <time>2014-10-12T06:59:26Z</time>
      </trkpt>
      <trkpt lat="41.635735159" lon="2.487434678">
        <ele>486.56</ele>
        <time>2014-10-12T06:59:34Z</time>
      </trkpt>
      <trkpt lat="41.635830042" lon="2.487520425">
        <ele>485.12</ele>
        <time>2014-10-12T06:59:40Z</time>
      </trkpt>
      <trkpt lat="41.635917633" lon="2.487612542">
        <ele>482.24</ele>
        <time>2014-10-12T06:59:46Z</time>
      </trkpt>
      <trkpt lat="41.635988041" lon="2.487738941">
        <ele>479.84</ele>
        <time>2014-10-12T06:59:52Z</time>
      </trkpt>
      <trkpt lat="41.636063729" lon="2.487835249">
        <ele>478.39</ele>
        <time>2014-10-12T06:59:57Z</time>
      </trkpt>
      <trkpt lat="41.636169174" lon="2.487920242">
        <ele>475.99</ele>
        <time>2014-10-12T07:00:04Z</time>
      </trkpt>
      <trkpt lat="41.636247377" lon="2.488002133">
        <ele>473.11</ele>
        <time>2014-10-12T07:00:10Z</time>
      </trkpt>
      <trkpt lat="41.636322730" lon="2.488019902">
        <ele>472.14</ele>
        <time>2014-10-12T07:00:14Z</time>
      </trkpt>
      <trkpt lat="41.636487351" lon="2.488022752">
        <ele>470.70</ele>
        <time>2014-10-12T07:00:22Z</time>
      </trkpt>
      <trkpt lat="41.636505539" lon="2.488018226">
        <ele>470.22</ele>
        <time>2014-10-12T07:00:23Z</time>
      </trkpt>
      <trkpt lat="41.636606793" lon="2.488036834">
        <ele>469.26</ele>
        <time>2014-10-12T07:00:27Z</time>
      </trkpt>
      <trkpt lat="41.636757667" lon="2.488060555">
        <ele>466.86</ele>
        <time>2014-10-12T07:00:34Z</time>
      </trkpt>
      <trkpt lat="41.636891694" lon="2.488131885">
        <ele>465.90</ele>
        <time>2014-10-12T07:00:40Z</time>
      </trkpt>
      <trkpt lat="41.637066373" lon="2.488252165">
        <ele>463.49</ele>
        <time>2014-10-12T07:00:49Z</time>
      </trkpt>
      <trkpt lat="41.637203165" lon="2.488353251">
        <ele>461.57</ele>
        <time>2014-10-12T07:00:54Z</time>
      </trkpt>
      <trkpt lat="41.637264856" lon="2.488368506">
        <ele>463.01</ele>
        <time>2014-10-12T07:00:58Z</time>
      </trkpt>
      <trkpt lat="41.637411036" lon="2.488418630">
        <ele>464.93</ele>
        <time>2014-10-12T07:01:09Z</time>
      </trkpt>
      <trkpt lat="41.637507596" lon="2.488444865">
        <ele>466.38</ele>
        <time>2014-10-12T07:01:16Z</time>
      </trkpt>
      <trkpt lat="41.637584207" lon="2.488473699">
        <ele>466.86</ele>
        <time>2014-10-12T07:01:26Z</time>
      </trkpt>
      <trkpt lat="41.637636761" lon="2.488502029">
        <ele>466.86</ele>
        <time>2014-10-12T07:01:32Z</time>
      </trkpt>
      <trkpt lat="41.637739523" lon="2.488632452">
        <ele>467.34</ele>
        <time>2014-10-12T07:01:39Z</time>
      </trkpt>
      <trkpt lat="41.637872041" lon="2.488789277">
        <ele>467.82</ele>
        <time>2014-10-12T07:01:48Z</time>
      </trkpt>
      <trkpt lat="41.637881513" lon="2.488787098">
        <ele>467.82</ele>
        <time>2014-10-12T07:01:49Z</time>
      </trkpt>
      <trkpt lat="41.637992908" lon="2.488748038">
        <ele>465.42</ele>
        <time>2014-10-12T07:01:54Z</time>
      </trkpt>
      <trkpt lat="41.638044625" lon="2.488731526">
        <ele>463.97</ele>
        <time>2014-10-12T07:01:56Z</time>
      </trkpt>
      <trkpt lat="41.638144872" lon="2.488617113">
        <ele>461.09</ele>
        <time>2014-10-12T07:02:01Z</time>
      </trkpt>
      <trkpt lat="41.638266326" lon="2.488654412">
        <ele>461.09</ele>
        <time>2014-10-12T07:02:07Z</time>
      </trkpt>
      <trkpt lat="41.638301865" lon="2.488668075">
        <ele>462.05</ele>
        <time>2014-10-12T07:02:09Z</time>
      </trkpt>
      <trkpt lat="41.638411165" lon="2.488705794">
        <ele>463.49</ele>
        <time>2014-10-12T07:02:16Z</time>
      </trkpt>
      <trkpt lat="41.638544186" lon="2.488794306">
        <ele>463.97</ele>
        <time>2014-10-12T07:02:25Z</time>
      </trkpt>
      <trkpt lat="41.638682739" lon="2.488760108">
        <ele>463.97</ele>
        <time>2014-10-12T07:02:33Z</time>
      </trkpt>
      <trkpt lat="41.638820873" lon="2.488730688">
        <ele>462.53</ele>
        <time>2014-10-12T07:02:38Z</time>
      </trkpt>
      <trkpt lat="41.638940818" lon="2.488785422">
        <ele>462.53</ele>
        <time>2014-10-12T07:02:44Z</time>
      </trkpt>
      <trkpt lat="41.639063026" lon="2.488924058">
        <ele>461.57</ele>
        <time>2014-10-12T07:02:52Z</time>
      </trkpt>
      <trkpt lat="41.639096134" lon="2.488949036">
        <ele>461.09</ele>
        <time>2014-10-12T07:02:58Z</time>
      </trkpt>
      <trkpt lat="41.639118095" lon="2.488953646">
        <ele>461.09</ele>
        <time>2014-10-12T07:03:13Z</time>
      </trkpt>
      <trkpt lat="41.639133015" lon="2.488949623">
        <ele>461.09</ele>
        <time>2014-10-12T07:03:28Z</time>
      </trkpt>
      <trkpt lat="41.639169476" lon="2.489025060">
        <ele>461.09</ele>
        <time>2014-10-12T07:03:35Z</time>
      </trkpt>
      <trkpt lat="41.639258492" lon="2.489207953">
        <ele>459.17</ele>
        <time>2014-10-12T07:03:42Z</time>
      </trkpt>
      <trkpt lat="41.639334348" lon="2.489401408">
        <ele>457.24</ele>
        <time>2014-10-12T07:03:46Z</time>
      </trkpt>
      <trkpt lat="41.639533670" lon="2.489781443">
        <ele>454.36</ele>
        <time>2014-10-12T07:03:52Z</time>
      </trkpt>
      <trkpt lat="41.639668032" lon="2.489988895">
        <ele>452.92</ele>
        <time>2014-10-12T07:03:57Z</time>
      </trkpt>
      <trkpt lat="41.639653531" lon="2.490116049">
        <ele>451.48</ele>
        <time>2014-10-12T07:04:02Z</time>
      </trkpt>
      <trkpt lat="41.639639868" lon="2.490300702">
        <ele>449.55</ele>
        <time>2014-10-12T07:04:07Z</time>
      </trkpt>
      <trkpt lat="41.639656884" lon="2.490335822">
        <ele>448.59</ele>
        <time>2014-10-12T07:04:08Z</time>
      </trkpt>
      <trkpt lat="41.639834664" lon="2.490667662">
        <ele>445.23</ele>
        <time>2014-10-12T07:04:15Z</time>
      </trkpt>
      <trkpt lat="41.639945640" lon="2.490727928">
        <ele>442.82</ele>
        <time>2014-10-12T07:04:18Z</time>
      </trkpt>
      <trkpt lat="41.640087294" lon="2.490853991">
        <ele>440.90</ele>
        <time>2014-10-12T07:04:22Z</time>
      </trkpt>
      <trkpt lat="41.640289969" lon="2.491006710">
        <ele>437.54</ele>
        <time>2014-10-12T07:04:28Z</time>
      </trkpt>
      <trkpt lat="41.640256693" lon="2.491089020">
        <ele>436.10</ele>
        <time>2014-10-12T07:04:33Z</time>
      </trkpt>
      <trkpt lat="41.640149320" lon="2.491103856">
        <ele>434.65</ele>
        <time>2014-10-12T07:04:36Z</time>
      </trkpt>
      <trkpt lat="41.640021161" lon="2.491154734">
        <ele>433.21</ele>
        <time>2014-10-12T07:04:42Z</time>
      </trkpt>
      <trkpt lat="41.639929044" lon="2.491249953">
        <ele>431.77</ele>
        <time>2014-10-12T07:04:47Z</time>
      </trkpt>
      <trkpt lat="41.639802645" lon="2.491295634">
        <ele>429.85</ele>
        <time>2014-10-12T07:04:53Z</time>
      </trkpt>
      <trkpt lat="41.639795353" lon="2.491384482">
        <ele>428.89</ele>
        <time>2014-10-12T07:04:58Z</time>
      </trkpt>
      <trkpt lat="41.639919572" lon="2.491354223">
        <ele>427.92</ele>
        <time>2014-10-12T07:05:05Z</time>
      </trkpt>
      <trkpt lat="41.640073464" lon="2.491383560">
        <ele>426.96</ele>
        <time>2014-10-12T07:05:11Z</time>
      </trkpt>
      <trkpt lat="41.640115122" lon="2.491419183">
        <ele>426.00</ele>
        <time>2014-10-12T07:05:13Z</time>
      </trkpt>
      <trkpt lat="41.640234983" lon="2.491616326">
        <ele>422.64</ele>
        <time>2014-10-12T07:05:20Z</time>
      </trkpt>
      <trkpt lat="41.640269936" lon="2.491692517">
        <ele>422.16</ele>
        <time>2014-10-12T07:05:22Z</time>
      </trkpt>
      <trkpt lat="41.640377560" lon="2.491974987">
        <ele>418.79</ele>
        <time>2014-10-12T07:05:28Z</time>
      </trkpt>
      <trkpt lat="41.640524830" lon="2.492346138">
        <ele>415.43</ele>
        <time>2014-10-12T07:05:35Z</time>
      </trkpt>
      <trkpt lat="41.640637734" lon="2.492667332">
        <ele>412.54</ele>
        <time>2014-10-12T07:05:41Z</time>
      </trkpt>
      <trkpt lat="41.640668496" lon="2.492695077">
        <ele>412.54</ele>
        <time>2014-10-12T07:05:42Z</time>
      </trkpt>
      <trkpt lat="41.641003855" lon="2.492860787">
        <ele>409.18</ele>
        <time>2014-10-12T07:05:50Z</time>
      </trkpt>
      <trkpt lat="41.641058254" lon="2.492892806">
        <ele>409.18</ele>
        <time>2014-10-12T07:05:51Z</time>
      </trkpt>
      <trkpt lat="41.641324715" lon="2.493037813">
        <ele>406.77</ele>
        <time>2014-10-12T07:05:58Z</time>
      </trkpt>
      <trkpt lat="41.641482714" lon="2.493030185">
        <ele>404.85</ele>
        <time>2014-10-12T07:06:04Z</time>
      </trkpt>
      <trkpt lat="41.641518085" lon="2.493029263">
        <ele>404.37</ele>
        <time>2014-10-12T07:06:09Z</time>
      </trkpt>
      <trkpt lat="41.641523198" lon="2.493038567">
        <ele>404.37</ele>
        <time>2014-10-12T07:06:18Z</time>
      </trkpt>
      <trkpt lat="41.641559408" lon="2.493032783">
        <ele>404.37</ele>
        <time>2014-10-12T07:06:32Z</time>
      </trkpt>
      <trkpt lat="41.641560162" lon="2.493022390">
        <ele>404.37</ele>
        <time>2014-10-12T07:06:45Z</time>
      </trkpt>
      <trkpt lat="41.641556055" lon="2.493020043">
        <ele>404.37</ele>
        <time>2014-10-12T07:06:56Z</time>
      </trkpt>
      <trkpt lat="41.641559408" lon="2.493024988">
        <ele>404.37</ele>
        <time>2014-10-12T07:07:09Z</time>
      </trkpt>
      <trkpt lat="41.641549182" lon="2.493029263">
        <ele>404.37</ele>
        <time>2014-10-12T07:07:24Z</time>
      </trkpt>
      <trkpt lat="41.641542728" lon="2.493024066">
        <ele>404.37</ele>
        <time>2014-10-12T07:07:40Z</time>
      </trkpt>
      <trkpt lat="41.641544823" lon="2.493031442">
        <ele>404.37</ele>
        <time>2014-10-12T07:07:55Z</time>
      </trkpt>
      <trkpt lat="41.641547506" lon="2.493030772">
        <ele>404.37</ele>
        <time>2014-10-12T07:08:13Z</time>
      </trkpt>
      <trkpt lat="41.641540884" lon="2.493005961">
        <ele>403.89</ele>
        <time>2014-10-12T07:08:27Z</time>
      </trkpt>
      <trkpt lat="41.641527473" lon="2.492986264">
        <ele>403.89</ele>
        <time>2014-10-12T07:08:44Z</time>
      </trkpt>
      <trkpt lat="41.641538789" lon="2.492999172">
        <ele>403.89</ele>
        <time>2014-10-12T07:09:01Z</time>
      </trkpt>
      <trkpt lat="41.641548931" lon="2.493017612">
        <ele>403.89</ele>
        <time>2014-10-12T07:09:13Z</time>
      </trkpt>
      <trkpt lat="41.641553624" lon="2.493019959">
        <ele>403.89</ele>
        <time>2014-10-12T07:09:27Z</time>
      </trkpt>
      <trkpt lat="41.641544237" lon="2.493025324">
        <ele>403.89</ele>
        <time>2014-10-12T07:09:42Z</time>
      </trkpt>
      <trkpt lat="41.641536945" lon="2.493030772">
        <ele>403.89</ele>
        <time>2014-10-12T07:09:52Z</time>
      </trkpt>
      <trkpt lat="41.641540633" lon="2.493066646">
        <ele>403.89</ele>
        <time>2014-10-12T07:09:58Z</time>
      </trkpt>
      <trkpt lat="41.641524120" lon="2.493079471">
        <ele>403.89</ele>
        <time>2014-10-12T07:10:00Z</time>
      </trkpt>
      <trkpt lat="41.641370815" lon="2.493174521">
        <ele>401.97</ele>
        <time>2014-10-12T07:10:07Z</time>
      </trkpt>
      <trkpt lat="41.641300742" lon="2.493176449">
        <ele>401.01</ele>
        <time>2014-10-12T07:10:09Z</time>
      </trkpt>
      <trkpt lat="41.641227233" lon="2.493163206">
        <ele>399.08</ele>
        <time>2014-10-12T07:10:11Z</time>
      </trkpt>
      <trkpt lat="41.641147437" lon="2.493153231">
        <ele>398.60</ele>
        <time>2014-10-12T07:10:13Z</time>
      </trkpt>
      <trkpt lat="41.640965383" lon="2.493140658">
        <ele>395.72</ele>
        <time>2014-10-12T07:10:18Z</time>
      </trkpt>
      <trkpt lat="41.640721134" lon="2.493167816">
        <ele>392.36</ele>
        <time>2014-10-12T07:10:26Z</time>
      </trkpt>
      <trkpt lat="41.640638237" lon="2.493129930">
        <ele>391.39</ele>
        <time>2014-10-12T07:10:29Z</time>
      </trkpt>
      <trkpt lat="41.640618958" lon="2.493208552">
        <ele>388.99</ele>
        <time>2014-10-12T07:10:34Z</time>
      </trkpt>
      <trkpt lat="41.640872679" lon="2.493361773">
        <ele>385.63</ele>
        <time>2014-10-12T07:10:43Z</time>
      </trkpt>
      <trkpt lat="41.641079879" lon="2.493484652">
        <ele>381.78</ele>
        <time>2014-10-12T07:10:49Z</time>
      </trkpt>
      <trkpt lat="41.641108462" lon="2.493508289">
        <ele>381.78</ele>
        <time>2014-10-12T07:10:50Z</time>
      </trkpt>
      <trkpt lat="41.641250954" lon="2.493675172">
        <ele>379.86</ele>
        <time>2014-10-12T07:10:55Z</time>
      </trkpt>
      <trkpt lat="41.641485396" lon="2.493789585">
        <ele>376.97</ele>
        <time>2014-10-12T07:11:01Z</time>
      </trkpt>
      <trkpt lat="41.641608274" lon="2.493869800">
        <ele>376.01</ele>
        <time>2014-10-12T07:11:04Z</time>
      </trkpt>
      <trkpt lat="41.641774571" lon="2.494039115">
        <ele>371.69</ele>
        <time>2014-10-12T07:11:09Z</time>
      </trkpt>
      <trkpt lat="41.641745654" lon="2.494090160">
        <ele>370.24</ele>
        <time>2014-10-12T07:11:13Z</time>
      </trkpt>
      <trkpt lat="41.641561671" lon="2.494043222">
        <ele>366.88</ele>
        <time>2014-10-12T07:11:19Z</time>
      </trkpt>
      <trkpt lat="41.641384562" lon="2.494076833">
        <ele>364.96</ele>
        <time>2014-10-12T07:11:25Z</time>
      </trkpt>
      <trkpt lat="41.641309711" lon="2.494102733">
        <ele>363.52</ele>
        <time>2014-10-12T07:11:27Z</time>
      </trkpt>
      <trkpt lat="41.641124555" lon="2.494111870">
        <ele>362.55</ele>
        <time>2014-10-12T07:11:31Z</time>
      </trkpt>
      <trkpt lat="41.641038640" lon="2.494109187">
        <ele>360.63</ele>
        <time>2014-10-12T07:11:33Z</time>
      </trkpt>
      <trkpt lat="41.640871757" lon="2.494242795">
        <ele>358.71</ele>
        <time>2014-10-12T07:11:38Z</time>
      </trkpt>
      <trkpt lat="41.640639746" lon="2.494287470">
        <ele>357.75</ele>
        <time>2014-10-12T07:11:44Z</time>
      </trkpt>
      <trkpt lat="41.640651396" lon="2.494341618">
        <ele>356.31</ele>
        <time>2014-10-12T07:11:49Z</time>
      </trkpt>
      <trkpt lat="41.640728007" lon="2.494330973">
        <ele>354.86</ele>
        <time>2014-10-12T07:11:53Z</time>
      </trkpt>
      <trkpt lat="41.640990947" lon="2.494367099">
        <ele>352.94</ele>
        <time>2014-10-12T07:11:59Z</time>
      </trkpt>
      <trkpt lat="41.641150958" lon="2.494458377">
        <ele>350.54</ele>
        <time>2014-10-12T07:12:03Z</time>
      </trkpt>
      <trkpt lat="41.641280123" lon="2.494586537">
        <ele>347.17</ele>
        <time>2014-10-12T07:12:07Z</time>
      </trkpt>
      <trkpt lat="41.641315243" lon="2.494626183">
        <ele>346.21</ele>
        <time>2014-10-12T07:12:08Z</time>
      </trkpt>
      <trkpt lat="41.641472739" lon="2.494850315">
        <ele>343.33</ele>
        <time>2014-10-12T07:12:13Z</time>
      </trkpt>
      <trkpt lat="41.641575837" lon="2.495003704">
        <ele>341.41</ele>
        <time>2014-10-12T07:12:16Z</time>
      </trkpt>
      <trkpt lat="41.641721011" lon="2.495216940">
        <ele>338.04</ele>
        <time>2014-10-12T07:12:20Z</time>
      </trkpt>
      <trkpt lat="41.641786474" lon="2.495315679">
        <ele>336.60</ele>
        <time>2014-10-12T07:12:22Z</time>
      </trkpt>
      <trkpt lat="41.641936510" lon="2.495444592">
        <ele>335.64</ele>
        <time>2014-10-12T07:12:25Z</time>
      </trkpt>
      <trkpt lat="41.641978922" lon="2.495473929">
        <ele>335.64</ele>
        <time>2014-10-12T07:12:26Z</time>
      </trkpt>
      <trkpt lat="41.642110937" lon="2.495564873">
        <ele>336.12</ele>
        <time>2014-10-12T07:12:30Z</time>
      </trkpt>
      <trkpt lat="41.642186793" lon="2.495637376">
        <ele>337.08</ele>
        <time>2014-10-12T07:12:35Z</time>
      </trkpt>
      <trkpt lat="41.642279581" lon="2.495696552">
        <ele>339.48</ele>
        <time>2014-10-12T07:12:43Z</time>
      </trkpt>
      <trkpt lat="41.642301206" lon="2.495701917">
        <ele>339.96</ele>
        <time>2014-10-12T07:12:45Z</time>
      </trkpt>
      <trkpt lat="41.642332806" lon="2.495665372">
        <ele>339.96</ele>
        <time>2014-10-12T07:12:49Z</time>
      </trkpt>
      <trkpt lat="41.642330711" lon="2.495601921">
        <ele>340.44</ele>
        <time>2014-10-12T07:12:53Z</time>
      </trkpt>
      <trkpt lat="41.642340937" lon="2.495418273">
        <ele>342.37</ele>
        <time>2014-10-12T07:13:03Z</time>
      </trkpt>
      <trkpt lat="41.642382846" lon="2.495198667">
        <ele>342.37</ele>
        <time>2014-10-12T07:13:12Z</time>
      </trkpt>
      <trkpt lat="41.642437580" lon="2.494933464">
        <ele>341.89</ele>
        <time>2014-10-12T07:13:21Z</time>
      </trkpt>
      <trkpt lat="41.642487620" lon="2.494732801">
        <ele>340.92</ele>
        <time>2014-10-12T07:13:26Z</time>
      </trkpt>
      <trkpt lat="41.642562806" lon="2.494576646">
        <ele>340.44</ele>
        <time>2014-10-12T07:13:29Z</time>
      </trkpt>
      <trkpt lat="41.642685517" lon="2.494328877">
        <ele>339.00</ele>
        <time>2014-10-12T07:13:34Z</time>
      </trkpt>
      <trkpt lat="41.642779143" lon="2.494019082">
        <ele>339.00</ele>
        <time>2014-10-12T07:13:41Z</time>
      </trkpt>
      <trkpt lat="41.642888610" lon="2.493854880">
        <ele>339.00</ele>
        <time>2014-10-12T07:13:48Z</time>
      </trkpt>
      <trkpt lat="41.642980560" lon="2.493793944">
        <ele>340.44</ele>
        <time>2014-10-12T07:13:52Z</time>
      </trkpt>
      <trkpt lat="41.643098074" lon="2.493603675">
        <ele>340.92</ele>
        <time>2014-10-12T07:13:59Z</time>
      </trkpt>
      <trkpt lat="41.643122214" lon="2.493475180">
        <ele>341.89</ele>
        <time>2014-10-12T07:14:04Z</time>
      </trkpt>
      <trkpt lat="41.643064714" lon="2.493372334">
        <ele>341.89</ele>
        <time>2014-10-12T07:14:09Z</time>
      </trkpt>
      <trkpt lat="41.642929598" lon="2.493251635">
        <ele>340.44</ele>
        <time>2014-10-12T07:14:17Z</time>
      </trkpt>
      <trkpt lat="41.642850975" lon="2.493187681">
        <ele>339.96</ele>
        <time>2014-10-12T07:14:20Z</time>
      </trkpt>
      <trkpt lat="41.642720553" lon="2.492996490">
        <ele>338.52</ele>
        <time>2014-10-12T07:14:25Z</time>
      </trkpt>
      <trkpt lat="41.642646541" lon="2.492729107">
        <ele>337.08</ele>
        <time>2014-10-12T07:14:31Z</time>
      </trkpt>
      <trkpt lat="41.642669843" lon="2.492257206">
        <ele>335.16</ele>
        <time>2014-10-12T07:14:39Z</time>
      </trkpt>
      <trkpt lat="41.642668418" lon="2.492193168">
        <ele>334.68</ele>
        <time>2014-10-12T07:14:40Z</time>
      </trkpt>
      <trkpt lat="41.642651319" lon="2.492060315">
        <ele>334.20</ele>
        <time>2014-10-12T07:14:42Z</time>
      </trkpt>
      <trkpt lat="41.642487201" lon="2.491650021">
        <ele>333.23</ele>
        <time>2014-10-12T07:14:50Z</time>
      </trkpt>
      <trkpt lat="41.642386953" lon="2.491532423">
        <ele>334.20</ele>
        <time>2014-10-12T07:14:55Z</time>
      </trkpt>
      <trkpt lat="41.642318892" lon="2.491364533">
        <ele>336.12</ele>
        <time>2014-10-12T07:15:02Z</time>
      </trkpt>
      <trkpt lat="41.642281760" lon="2.491170576">
        <ele>338.04</ele>
        <time>2014-10-12T07:15:08Z</time>
      </trkpt>
      <trkpt lat="41.642269355" lon="2.491110562">
        <ele>338.52</ele>
        <time>2014-10-12T07:15:10Z</time>
      </trkpt>
      <trkpt lat="41.642186374" lon="2.490863379">
        <ele>340.92</ele>
        <time>2014-10-12T07:15:18Z</time>
      </trkpt>
      <trkpt lat="41.642093168" lon="2.490676211">
        <ele>341.89</ele>
        <time>2014-10-12T07:15:25Z</time>
      </trkpt>
      <trkpt lat="41.642116469" lon="2.490572192">
        <ele>341.89</ele>
        <time>2014-10-12T07:15:29Z</time>
      </trkpt>
      <trkpt lat="41.642288550" lon="2.490465490">
        <ele>341.89</ele>
        <time>2014-10-12T07:15:35Z</time>
      </trkpt>
      <trkpt lat="41.642512263" lon="2.490440931">
        <ele>341.41</ele>
        <time>2014-10-12T07:15:41Z</time>
      </trkpt>
      <trkpt lat="41.642720302" lon="2.490400950">
        <ele>341.89</ele>
        <time>2014-10-12T07:15:48Z</time>
      </trkpt>
      <trkpt lat="41.642814179" lon="2.490304306">
        <ele>343.33</ele>
        <time>2014-10-12T07:15:54Z</time>
      </trkpt>
      <trkpt lat="41.642893975" lon="2.490096687">
        <ele>343.81</ele>
        <time>2014-10-12T07:16:01Z</time>
      </trkpt>
      <trkpt lat="41.642975363" lon="2.489878925">
        <ele>344.29</ele>
        <time>2014-10-12T07:16:09Z</time>
      </trkpt>
      <trkpt lat="41.643071839" lon="2.489746491">
        <ele>344.29</ele>
        <time>2014-10-12T07:16:15Z</time>
      </trkpt>
      <trkpt lat="41.643217013" lon="2.489762081">
        <ele>342.85</ele>
        <time>2014-10-12T07:16:20Z</time>
      </trkpt>
      <trkpt lat="41.643413317" lon="2.489877667">
        <ele>342.37</ele>
        <time>2014-10-12T07:16:27Z</time>
      </trkpt>
      <trkpt lat="41.643560671" lon="2.489962408">
        <ele>342.37</ele>
        <time>2014-10-12T07:16:34Z</time>
      </trkpt>
      <trkpt lat="41.643699476" lon="2.490043294">
        <ele>341.41</ele>
        <time>2014-10-12T07:16:39Z</time>
      </trkpt>
      <trkpt lat="41.643998207" lon="2.490163909">
        <ele>338.52</ele>
        <time>2014-10-12T07:16:46Z</time>
      </trkpt>
      <trkpt lat="41.644326442" lon="2.490236581">
        <ele>336.60</ele>
        <time>2014-10-12T07:16:53Z</time>
      </trkpt>
      <trkpt lat="41.644521992" lon="2.490264157">
        <ele>335.64</ele>
        <time>2014-10-12T07:16:58Z</time>
      </trkpt>
      <trkpt lat="41.644689630" lon="2.490317047">
        <ele>332.75</ele>
        <time>2014-10-12T07:17:04Z</time>
      </trkpt>
      <trkpt lat="41.644810916" lon="2.490245884">
        <ele>331.31</ele>
        <time>2014-10-12T07:17:11Z</time>
      </trkpt>
      <trkpt lat="41.644824914" lon="2.490247980">
        <ele>331.31</ele>
        <time>2014-10-12T07:17:17Z</time>
      </trkpt>
      <trkpt lat="41.644819214" lon="2.490242699">
        <ele>331.31</ele>
        <time>2014-10-12T07:17:34Z</time>
      </trkpt>
      <trkpt lat="41.644821142" lon="2.490243454">
        <ele>331.31</ele>
        <time>2014-10-12T07:17:37Z</time>
      </trkpt>
      <trkpt lat="41.644886353" lon="2.490269940">
        <ele>330.35</ele>
        <time>2014-10-12T07:17:42Z</time>
      </trkpt>
      <trkpt lat="41.645109060" lon="2.490318891">
        <ele>329.39</ele>
        <time>2014-10-12T07:17:49Z</time>
      </trkpt>
      <trkpt lat="41.645238309" lon="2.490313526">
        <ele>328.91</ele>
        <time>2014-10-12T07:17:52Z</time>
      </trkpt>
      <trkpt lat="41.645459843" lon="2.490272539">
        <ele>328.91</ele>
        <time>2014-10-12T07:17:57Z</time>
      </trkpt>
      <trkpt lat="41.645781792" lon="2.490326099">
        <ele>328.43</ele>
        <time>2014-10-12T07:18:05Z</time>
      </trkpt>
      <trkpt lat="41.646052611" lon="2.490427269">
        <ele>328.43</ele>
        <time>2014-10-12T07:18:13Z</time>
      </trkpt>
      <trkpt lat="41.646336255" lon="2.490415450">
        <ele>327.95</ele>
        <time>2014-10-12T07:18:21Z</time>
      </trkpt>
      <trkpt lat="41.646595339" lon="2.490474878">
        <ele>327.47</ele>
        <time>2014-10-12T07:18:28Z</time>
      </trkpt>
      <trkpt lat="41.646853586" lon="2.490604881">
        <ele>327.47</ele>
        <time>2014-10-12T07:18:36Z</time>
      </trkpt>
      <trkpt lat="41.646906224" lon="2.490639834">
        <ele>328.43</ele>
        <time>2014-10-12T07:18:38Z</time>
      </trkpt>
      <trkpt lat="41.647059361" lon="2.490657855">
        <ele>329.39</ele>
        <time>2014-10-12T07:18:44Z</time>
      </trkpt>
      <trkpt lat="41.647161118" lon="2.490509244">
        <ele>329.39</ele>
        <time>2014-10-12T07:18:49Z</time>
      </trkpt>
      <trkpt lat="41.647235549" lon="2.490214620">
        <ele>328.91</ele>
        <time>2014-10-12T07:18:56Z</time>
      </trkpt>
      <trkpt lat="41.647362954" lon="2.489781778">
        <ele>328.91</ele>
        <time>2014-10-12T07:19:06Z</time>
      </trkpt>
      <trkpt lat="41.647468063" lon="2.489482042">
        <ele>327.95</ele>
        <time>2014-10-12T07:19:13Z</time>
      </trkpt>
      <trkpt lat="41.647552804" lon="2.489288587">
        <ele>327.47</ele>
        <time>2014-10-12T07:19:17Z</time>
      </trkpt>
      <trkpt lat="41.647637629" lon="2.489123883">
        <ele>326.99</ele>
        <time>2014-10-12T07:19:20Z</time>
      </trkpt>
      <trkpt lat="41.647811050" lon="2.488923891">
        <ele>325.54</ele>
        <time>2014-10-12T07:19:24Z</time>
      </trkpt>
      <trkpt lat="41.647920183" lon="2.488847867">
        <ele>325.54</ele>
        <time>2014-10-12T07:19:26Z</time>
      </trkpt>
      <trkpt lat="41.648199636" lon="2.488436315">
        <ele>322.18</ele>
        <time>2014-10-12T07:19:33Z</time>
      </trkpt>
      <trkpt lat="41.648291753" lon="2.488291560">
        <ele>321.22</ele>
        <time>2014-10-12T07:19:35Z</time>
      </trkpt>
      <trkpt lat="41.648503480" lon="2.488032894">
        <ele>319.30</ele>
        <time>2014-10-12T07:19:39Z</time>
      </trkpt>
      <trkpt lat="41.648610768" lon="2.487872884">
        <ele>316.41</ele>
        <time>2014-10-12T07:19:41Z</time>
      </trkpt>
      <trkpt lat="41.648703639" lon="2.487685800">
        <ele>315.45</ele>
        <time>2014-10-12T07:19:43Z</time>
      </trkpt>
      <trkpt lat="41.648762145" lon="2.487582199">
        <ele>314.49</ele>
        <time>2014-10-12T07:19:44Z</time>
      </trkpt>
      <trkpt lat="41.648899860" lon="2.487410119">
        <ele>313.53</ele>
        <time>2014-10-12T07:19:46Z</time>
      </trkpt>
      <trkpt lat="41.649188868" lon="2.487165954">
        <ele>313.05</ele>
        <time>2014-10-12T07:19:50Z</time>
      </trkpt>
      <trkpt lat="41.649409982" lon="2.487036789">
        <ele>311.12</ele>
        <time>2014-10-12T07:19:53Z</time>
      </trkpt>
      <trkpt lat="41.649695135" lon="2.486659017">
        <ele>308.24</ele>
        <time>2014-10-12T07:19:58Z</time>
      </trkpt>
      <trkpt lat="41.649873837" lon="2.486094495">
        <ele>304.39</ele>
        <time>2014-10-12T07:20:03Z</time>
      </trkpt>
      <trkpt lat="41.649899402" lon="2.485995840">
        <ele>304.39</ele>
        <time>2014-10-12T07:20:04Z</time>
      </trkpt>
      <trkpt lat="41.650126132" lon="2.485646650">
        <ele>301.03</ele>
        <time>2014-10-12T07:20:09Z</time>
      </trkpt>
      <trkpt lat="41.650202575" lon="2.485384045">
        <ele>298.15</ele>
        <time>2014-10-12T07:20:12Z</time>
      </trkpt>
      <trkpt lat="41.650323442" lon="2.485125883">
        <ele>294.30</ele>
        <time>2014-10-12T07:20:17Z</time>
      </trkpt>
      <trkpt lat="41.650465934" lon="2.485302825">
        <ele>293.34</ele>
        <time>2014-10-12T07:20:21Z</time>
      </trkpt>
      <trkpt lat="41.650485213" lon="2.485366527">
        <ele>293.34</ele>
        <time>2014-10-12T07:20:22Z</time>
      </trkpt>
      <trkpt lat="41.650592585" lon="2.485676238">
        <ele>290.46</ele>
        <time>2014-10-12T07:20:26Z</time>
      </trkpt>
      <trkpt lat="41.650818310" lon="2.485929875">
        <ele>288.05</ele>
        <time>2014-10-12T07:20:31Z</time>
      </trkpt>
      <trkpt lat="41.650861057" lon="2.485950327">
        <ele>287.57</ele>
        <time>2014-10-12T07:20:32Z</time>
      </trkpt>
      <trkpt lat="41.651068174" lon="2.486036996">
        <ele>286.61</ele>
        <time>2014-10-12T07:20:38Z</time>
      </trkpt>
      <trkpt lat="41.651143528" lon="2.486053005">
        <ele>286.61</ele>
        <time>2014-10-12T07:20:40Z</time>
      </trkpt>
      <trkpt lat="41.651371599" lon="2.485994499">
        <ele>286.61</ele>
        <time>2014-10-12T07:20:48Z</time>
      </trkpt>
      <trkpt lat="41.651530939" lon="2.485983687">
        <ele>286.61</ele>
        <time>2014-10-12T07:20:54Z</time>
      </trkpt>
      <trkpt lat="41.651665469" lon="2.485983268">
        <ele>285.17</ele>
        <time>2014-10-12T07:20:59Z</time>
      </trkpt>
      <trkpt lat="41.651688184" lon="2.485954937">
        <ele>285.17</ele>
        <time>2014-10-12T07:21:15Z</time>
      </trkpt>
      <trkpt lat="41.651753646" lon="2.485923588">
        <ele>284.69</ele>
        <time>2014-10-12T07:21:21Z</time>
      </trkpt>
      <trkpt lat="41.651922542" lon="2.485765590">
        <ele>284.21</ele>
        <time>2014-10-12T07:21:27Z</time>
      </trkpt>
      <trkpt lat="41.651964367" lon="2.485731224">
        <ele>284.21</ele>
        <time>2014-10-12T07:21:29Z</time>
      </trkpt>
      <trkpt lat="41.652074925" lon="2.485764332">
        <ele>284.21</ele>
        <time>2014-10-12T07:21:36Z</time>
      </trkpt>
      <trkpt lat="41.652124126" lon="2.485707335">
        <ele>285.65</ele>
        <time>2014-10-12T07:21:40Z</time>
      </trkpt>
      <trkpt lat="41.652139717" lon="2.485693505">
        <ele>286.13</ele>
        <time>2014-10-12T07:21:41Z</time>
      </trkpt>
      <trkpt lat="41.652255806" lon="2.485648578">
        <ele>288.05</ele>
        <time>2014-10-12T07:21:49Z</time>
      </trkpt>
      <trkpt lat="41.652350941" lon="2.485734325">
        <ele>289.97</ele>
        <time>2014-10-12T07:21:57Z</time>
      </trkpt>
      <trkpt lat="41.652434424" lon="2.485831974">
        <ele>291.90</ele>
        <time>2014-10-12T07:22:06Z</time>
      </trkpt>
      <trkpt lat="41.652530565" lon="2.485886373">
        <ele>293.82</ele>
        <time>2014-10-12T07:22:14Z</time>
      </trkpt>
      <trkpt lat="41.652621341" lon="2.485963235">
        <ele>295.74</ele>
        <time>2014-10-12T07:22:22Z</time>
      </trkpt>
      <trkpt lat="41.652666436" lon="2.486055017">
        <ele>296.70</ele>
        <time>2014-10-12T07:22:28Z</time>
      </trkpt>
      <trkpt lat="41.652702226" lon="2.486112768">
        <ele>297.67</ele>
        <time>2014-10-12T07:22:32Z</time>
      </trkpt>
      <trkpt lat="41.652785207" lon="2.486236150">
        <ele>299.11</ele>
        <time>2014-10-12T07:22:41Z</time>
      </trkpt>
      <trkpt lat="41.652787638" lon="2.486381743">
        <ele>299.59</ele>
        <time>2014-10-12T07:22:48Z</time>
      </trkpt>
      <trkpt lat="41.652768611" lon="2.486554075">
        <ele>299.59</ele>
        <time>2014-10-12T07:22:56Z</time>
      </trkpt>
      <trkpt lat="41.652726282" lon="2.486710481">
        <ele>300.55</ele>
        <time>2014-10-12T07:23:05Z</time>
      </trkpt>
      <trkpt lat="41.652705411" lon="2.486874264">
        <ele>301.99</ele>
        <time>2014-10-12T07:23:14Z</time>
      </trkpt>
      <trkpt lat="41.652692000" lon="2.486941906">
        <ele>303.43</ele>
        <time>2014-10-12T07:23:19Z</time>
      </trkpt>
      <trkpt lat="41.652655204" lon="2.487080794">
        <ele>306.32</ele>
        <time>2014-10-12T07:23:29Z</time>
      </trkpt>
      <trkpt lat="41.652629304" lon="2.487198644">
        <ele>309.20</ele>
        <time>2014-10-12T07:23:38Z</time>
      </trkpt>
      <trkpt lat="41.652600218" lon="2.487282127">
        <ele>310.16</ele>
        <time>2014-10-12T07:23:45Z</time>
      </trkpt>
      <trkpt lat="41.652526374" lon="2.487438701">
        <ele>311.60</ele>
        <time>2014-10-12T07:23:55Z</time>
      </trkpt>
      <trkpt lat="41.652517908" lon="2.487480611">
        <ele>311.60</ele>
        <time>2014-10-12T07:23:58Z</time>
      </trkpt>
      <trkpt lat="41.652410704" lon="2.487565436">
        <ele>312.09</ele>
        <time>2014-10-12T07:24:06Z</time>
      </trkpt>
      <trkpt lat="41.652287657" lon="2.487604831">
        <ele>312.09</ele>
        <time>2014-10-12T07:24:12Z</time>
      </trkpt>
      <trkpt lat="41.652265781" lon="2.487592677">
        <ele>312.09</ele>
        <time>2014-10-12T07:24:13Z</time>
      </trkpt>
      <trkpt lat="41.652107027" lon="2.487467200">
        <ele>312.09</ele>
        <time>2014-10-12T07:24:22Z</time>
      </trkpt>
      <trkpt lat="41.652096801" lon="2.487455884">
        <ele>312.09</ele>
        <time>2014-10-12T07:24:23Z</time>
      </trkpt>
      <trkpt lat="41.652081965" lon="2.487323366">
        <ele>310.64</ele>
        <time>2014-10-12T07:24:31Z</time>
      </trkpt>
      <trkpt lat="41.652046342" lon="2.487199398">
        <ele>309.20</ele>
        <time>2014-10-12T07:24:37Z</time>
      </trkpt>
      <trkpt lat="41.651977695" lon="2.487030251">
        <ele>307.76</ele>
        <time>2014-10-12T07:24:43Z</time>
      </trkpt>
      <trkpt lat="41.651961937" lon="2.486996472">
        <ele>307.76</ele>
        <time>2014-10-12T07:24:49Z</time>
      </trkpt>
      <trkpt lat="41.651938551" lon="2.486980127">
        <ele>307.76</ele>
        <time>2014-10-12T07:24:56Z</time>
      </trkpt>
      <trkpt lat="41.651927571" lon="2.486975182">
        <ele>307.76</ele>
        <time>2014-10-12T07:25:13Z</time>
      </trkpt>
      <trkpt lat="41.651920865" lon="2.486979457">
        <ele>307.76</ele>
        <time>2014-10-12T07:25:33Z</time>
      </trkpt>
      <trkpt lat="41.651957997" lon="2.486975350">
        <ele>307.28</ele>
        <time>2014-10-12T07:25:52Z</time>
      </trkpt>
      <trkpt lat="41.651972582" lon="2.486967722">
        <ele>307.28</ele>
        <time>2014-10-12T07:26:19Z</time>
      </trkpt>
      <trkpt lat="41.651951627" lon="2.486973087">
        <ele>307.28</ele>
        <time>2014-10-12T07:26:44Z</time>
      </trkpt>
      <trkpt lat="41.651936036" lon="2.486981049">
        <ele>307.28</ele>
        <time>2014-10-12T07:27:02Z</time>
      </trkpt>
      <trkpt lat="41.651942407" lon="2.486976775">
        <ele>307.28</ele>
        <time>2014-10-12T07:27:25Z</time>
      </trkpt>
      <trkpt lat="41.651940898" lon="2.486989934">
        <ele>307.28</ele>
        <time>2014-10-12T07:27:40Z</time>
      </trkpt>
      <trkpt lat="41.651931846" lon="2.486975769">
        <ele>307.28</ele>
        <time>2014-10-12T07:27:57Z</time>
      </trkpt>
      <trkpt lat="41.651931762" lon="2.486962022">
        <ele>307.28</ele>
        <time>2014-10-12T07:28:09Z</time>
      </trkpt>
      <trkpt lat="41.651903347" lon="2.487006111">
        <ele>306.80</ele>
        <time>2014-10-12T07:28:31Z</time>
      </trkpt>
      <trkpt lat="41.651911729" lon="2.486995550">
        <ele>306.80</ele>
        <time>2014-10-12T07:28:42Z</time>
      </trkpt>
      <trkpt lat="41.651930504" lon="2.486972332">
        <ele>306.32</ele>
        <time>2014-10-12T07:28:55Z</time>
      </trkpt>
      <trkpt lat="41.651938803" lon="2.486975517">
        <ele>306.32</ele>
        <time>2014-10-12T07:29:17Z</time>
      </trkpt>
      <trkpt lat="41.651921703" lon="2.486982223">
        <ele>306.32</ele>
        <time>2014-10-12T07:29:33Z</time>
      </trkpt>
      <trkpt lat="41.651942155" lon="2.487016086">
        <ele>306.32</ele>
        <time>2014-10-12T07:29:55Z</time>
      </trkpt>
      <trkpt lat="41.651951878" lon="2.487014912">
        <ele>306.32</ele>
        <time>2014-10-12T07:30:09Z</time>
      </trkpt>
      <trkpt lat="41.651971492" lon="2.487017762">
        <ele>305.84</ele>
        <time>2014-10-12T07:30:27Z</time>
      </trkpt>
      <trkpt lat="41.651954477" lon="2.487009883">
        <ele>305.84</ele>
        <time>2014-10-12T07:30:48Z</time>
      </trkpt>
      <trkpt lat="41.651936288" lon="2.487000663">
        <ele>305.84</ele>
        <time>2014-10-12T07:31:09Z</time>
      </trkpt>
      <trkpt lat="41.651912567" lon="2.486991527">
        <ele>305.84</ele>
        <time>2014-10-12T07:31:29Z</time>
      </trkpt>
      <trkpt lat="41.651913573" lon="2.487021115">
        <ele>305.84</ele>
        <time>2014-10-12T07:31:52Z</time>
      </trkpt>
      <trkpt lat="41.651918015" lon="2.487010051">
        <ele>305.84</ele>
        <time>2014-10-12T07:32:21Z</time>
      </trkpt>
      <trkpt lat="41.651950453" lon="2.487024216">
        <ele>305.84</ele>
        <time>2014-10-12T07:32:45Z</time>
      </trkpt>
      <trkpt lat="41.651957913" lon="2.487025138">
        <ele>305.84</ele>
        <time>2014-10-12T07:33:06Z</time>
      </trkpt>
      <trkpt lat="41.651945927" lon="2.487013906">
        <ele>305.36</ele>
        <time>2014-10-12T07:33:34Z</time>
      </trkpt>
      <trkpt lat="41.651932935" lon="2.487027401">
        <ele>305.36</ele>
        <time>2014-10-12T07:34:01Z</time>
      </trkpt>
      <trkpt lat="41.651926062" lon="2.487043075">
        <ele>305.36</ele>
        <time>2014-10-12T07:34:23Z</time>
      </trkpt>
      <trkpt lat="41.651939976" lon="2.487043662">
        <ele>305.36</ele>
        <time>2014-10-12T07:34:41Z</time>
      </trkpt>
      <trkpt lat="41.651924050" lon="2.487051122">
        <ele>305.36</ele>
        <time>2014-10-12T07:35:03Z</time>
      </trkpt>
      <trkpt lat="41.651916842" lon="2.487037543">
        <ele>305.36</ele>
        <time>2014-10-12T07:35:30Z</time>
      </trkpt>
      <trkpt lat="41.651902844" lon="2.487036705">
        <ele>305.36</ele>
        <time>2014-10-12T07:35:59Z</time>
      </trkpt>
      <trkpt lat="41.651893540" lon="2.487016505">
        <ele>305.36</ele>
        <time>2014-10-12T07:36:17Z</time>
      </trkpt>
      <trkpt lat="41.651910891" lon="2.487032179">
        <ele>305.84</ele>
        <time>2014-10-12T07:36:38Z</time>
      </trkpt>
      <trkpt lat="41.651935869" lon="2.487036370">
        <ele>305.84</ele>
        <time>2014-10-12T07:36:57Z</time>
      </trkpt>
      <trkpt lat="41.651922709" lon="2.487004938">
        <ele>305.84</ele>
        <time>2014-10-12T07:37:22Z</time>
      </trkpt>
      <trkpt lat="41.651941233" lon="2.487027737">
        <ele>305.84</ele>
        <time>2014-10-12T07:37:42Z</time>
      </trkpt>
      <trkpt lat="41.651936875" lon="2.487017259">
        <ele>305.84</ele>
        <time>2014-10-12T07:37:50Z</time>
      </trkpt>
      <trkpt lat="41.651952465" lon="2.487027653">
        <ele>305.84</ele>
        <time>2014-10-12T07:37:58Z</time>
      </trkpt>
      <trkpt lat="41.651963948" lon="2.487046009">
        <ele>305.84</ele>
        <time>2014-10-12T07:38:01Z</time>
      </trkpt>
      <trkpt lat="41.652011055" lon="2.487136282">
        <ele>305.84</ele>
        <time>2014-10-12T07:38:07Z</time>
      </trkpt>
      <trkpt lat="41.652029662" lon="2.487246588">
        <ele>307.28</ele>
        <time>2014-10-12T07:38:13Z</time>
      </trkpt>
      <trkpt lat="41.652049108" lon="2.487355637">
        <ele>309.20</ele>
        <time>2014-10-12T07:38:19Z</time>
      </trkpt>
      <trkpt lat="41.652068303" lon="2.487471977">
        <ele>310.16</ele>
        <time>2014-10-12T07:38:27Z</time>
      </trkpt>
      <trkpt lat="41.652144494" lon="2.487579852">
        <ele>310.64</ele>
        <time>2014-10-12T07:38:33Z</time>
      </trkpt>
      <trkpt lat="41.652280030" lon="2.487648752">
        <ele>310.16</ele>
        <time>2014-10-12T07:38:39Z</time>
      </trkpt>
      <trkpt lat="41.652429647" lon="2.487561412">
        <ele>310.64</ele>
        <time>2014-10-12T07:38:47Z</time>
      </trkpt>
      <trkpt lat="41.652446159" lon="2.487551689">
        <ele>310.64</ele>
        <time>2014-10-12T07:38:48Z</time>
      </trkpt>
      <trkpt lat="41.652525787" lon="2.487414561">
        <ele>310.64</ele>
        <time>2014-10-12T07:38:53Z</time>
      </trkpt>
      <trkpt lat="41.652555794" lon="2.487345411">
        <ele>309.20</ele>
        <time>2014-10-12T07:38:55Z</time>
      </trkpt>
      <trkpt lat="41.652603739" lon="2.487177605">
        <ele>305.84</ele>
        <time>2014-10-12T07:39:01Z</time>
      </trkpt>
      <trkpt lat="41.652634417" lon="2.487036202">
        <ele>302.95</ele>
        <time>2014-10-12T07:39:06Z</time>
      </trkpt>
      <trkpt lat="41.652670459" lon="2.486869570">
        <ele>299.59</ele>
        <time>2014-10-12T07:39:10Z</time>
      </trkpt>
      <trkpt lat="41.652678003" lon="2.486827325">
        <ele>299.59</ele>
        <time>2014-10-12T07:39:11Z</time>
      </trkpt>
      <trkpt lat="41.652709267" lon="2.486733699">
        <ele>298.63</ele>
        <time>2014-10-12T07:39:13Z</time>
      </trkpt>
      <trkpt lat="41.652765258" lon="2.486486685">
        <ele>298.15</ele>
        <time>2014-10-12T07:39:17Z</time>
      </trkpt>
      <trkpt lat="41.652763498" lon="2.486277137">
        <ele>298.15</ele>
        <time>2014-10-12T07:39:21Z</time>
      </trkpt>
      <trkpt lat="41.652659562" lon="2.486040013">
        <ele>294.30</ele>
        <time>2014-10-12T07:39:27Z</time>
      </trkpt>
      <trkpt lat="41.652573983" lon="2.485958709">
        <ele>293.34</ele>
        <time>2014-10-12T07:39:31Z</time>
      </trkpt>
      <trkpt lat="41.652462588" lon="2.485895760">
        <ele>291.42</ele>
        <time>2014-10-12T07:39:34Z</time>
      </trkpt>
      <trkpt lat="41.652333087" lon="2.485727536">
        <ele>287.09</ele>
        <time>2014-10-12T07:39:39Z</time>
      </trkpt>
      <trkpt lat="41.652205682" lon="2.485701719">
        <ele>285.17</ele>
        <time>2014-10-12T07:39:43Z</time>
      </trkpt>
      <trkpt lat="41.652137537" lon="2.485758046">
        <ele>284.69</ele>
        <time>2014-10-12T07:39:45Z</time>
      </trkpt>
      <trkpt lat="41.652009965" lon="2.485773804">
        <ele>281.80</ele>
        <time>2014-10-12T07:39:51Z</time>
      </trkpt>
      <trkpt lat="41.651928744" lon="2.485846978">
        <ele>281.80</ele>
        <time>2014-10-12T07:39:57Z</time>
      </trkpt>
      <trkpt lat="41.651782396" lon="2.485922750">
        <ele>281.80</ele>
        <time>2014-10-12T07:40:06Z</time>
      </trkpt>
      <trkpt lat="41.651721292" lon="2.485950243">
        <ele>281.80</ele>
        <time>2014-10-12T07:40:10Z</time>
      </trkpt>
      <trkpt lat="41.651542087" lon="2.485950578">
        <ele>284.21</ele>
        <time>2014-10-12T07:40:20Z</time>
      </trkpt>
      <trkpt lat="41.651390207" lon="2.485997684">
        <ele>284.69</ele>
        <time>2014-10-12T07:40:28Z</time>
      </trkpt>
      <trkpt lat="41.651219803" lon="2.486055017">
        <ele>284.69</ele>
        <time>2014-10-12T07:40:36Z</time>
      </trkpt>
      <trkpt lat="41.651171439" lon="2.486057196">
        <ele>284.69</ele>
        <time>2014-10-12T07:40:38Z</time>
      </trkpt>
      <trkpt lat="41.651038921" lon="2.486009838">
        <ele>284.21</ele>
        <time>2014-10-12T07:40:45Z</time>
      </trkpt>
      <trkpt lat="41.650911097" lon="2.485947393">
        <ele>284.21</ele>
        <time>2014-10-12T07:40:52Z</time>
      </trkpt>
      <trkpt lat="41.650748740" lon="2.485837674">
        <ele>285.65</ele>
        <time>2014-10-12T07:41:01Z</time>
      </trkpt>
      <trkpt lat="41.650616893" lon="2.485685459">
        <ele>287.09</ele>
        <time>2014-10-12T07:41:10Z</time>
      </trkpt>
      <trkpt lat="41.650545227" lon="2.485486137">
        <ele>289.01</ele>
        <time>2014-10-12T07:41:19Z</time>
      </trkpt>
      <trkpt lat="41.650465767" lon="2.485279858">
        <ele>290.46</ele>
        <time>2014-10-12T07:41:28Z</time>
      </trkpt>
      <trkpt lat="41.650399885" lon="2.485153962">
        <ele>291.90</ele>
        <time>2014-10-12T07:41:35Z</time>
      </trkpt>
      <trkpt lat="41.650337859" lon="2.484986743">
        <ele>290.94</ele>
        <time>2014-10-12T07:41:40Z</time>
      </trkpt>
      <trkpt lat="41.650321011" lon="2.484712236">
        <ele>289.97</ele>
        <time>2014-10-12T07:41:45Z</time>
      </trkpt>
      <trkpt lat="41.650459061" lon="2.484333290">
        <ele>288.05</ele>
        <time>2014-10-12T07:41:52Z</time>
      </trkpt>
      <trkpt lat="41.650495942" lon="2.484193312">
        <ele>288.05</ele>
        <time>2014-10-12T07:41:54Z</time>
      </trkpt>
      <trkpt lat="41.650675314" lon="2.483917715">
        <ele>287.09</ele>
        <time>2014-10-12T07:41:59Z</time>
      </trkpt>
      <trkpt lat="41.650720074" lon="2.483891228">
        <ele>287.09</ele>
        <time>2014-10-12T07:42:00Z</time>
      </trkpt>
      <trkpt lat="41.650903805" lon="2.483796345">
        <ele>286.13</ele>
        <time>2014-10-12T07:42:06Z</time>
      </trkpt>
      <trkpt lat="41.650961389" lon="2.483679250">
        <ele>286.61</ele>
        <time>2014-10-12T07:42:14Z</time>
      </trkpt>
      <trkpt lat="41.650997180" lon="2.483516390">
        <ele>286.61</ele>
        <time>2014-10-12T07:42:19Z</time>
      </trkpt>
      <trkpt lat="41.651034060" lon="2.483336179">
        <ele>284.21</ele>
        <time>2014-10-12T07:42:24Z</time>
      </trkpt>
      <trkpt lat="41.651076724" lon="2.483343974">
        <ele>284.21</ele>
        <time>2014-10-12T07:42:30Z</time>
      </trkpt>
      <trkpt lat="41.651078987" lon="2.483354284">
        <ele>284.21</ele>
        <time>2014-10-12T07:42:31Z</time>
      </trkpt>
      <trkpt lat="41.651155095" lon="2.483461153">
        <ele>283.73</ele>
        <time>2014-10-12T07:42:37Z</time>
      </trkpt>
      <trkpt lat="41.651271016" lon="2.483387727">
        <ele>283.25</ele>
        <time>2014-10-12T07:42:42Z</time>
      </trkpt>
      <trkpt lat="41.651303035" lon="2.483465595">
        <ele>282.77</ele>
        <time>2014-10-12T07:42:46Z</time>
      </trkpt>
      <trkpt lat="41.651219468" lon="2.483566765">
        <ele>282.77</ele>
        <time>2014-10-12T07:42:50Z</time>
      </trkpt>
      <trkpt lat="41.651187113" lon="2.483791148">
        <ele>281.32</ele>
        <time>2014-10-12T07:42:55Z</time>
      </trkpt>
      <trkpt lat="41.651070689" lon="2.483970437">
        <ele>280.36</ele>
        <time>2014-10-12T07:43:00Z</time>
      </trkpt>
      <trkpt lat="41.650965496" lon="2.484102536">
        <ele>279.40</ele>
        <time>2014-10-12T07:43:03Z</time>
      </trkpt>
      <trkpt lat="41.650924173" lon="2.484221559">
        <ele>278.44</ele>
        <time>2014-10-12T07:43:05Z</time>
      </trkpt>
      <trkpt lat="41.650882264" lon="2.484438986">
        <ele>277.96</ele>
        <time>2014-10-12T07:43:09Z</time>
      </trkpt>
      <trkpt lat="41.650948732" lon="2.484590363">
        <ele>277.48</ele>
        <time>2014-10-12T07:43:13Z</time>
      </trkpt>
      <trkpt lat="41.650977314" lon="2.484587345">
        <ele>276.52</ele>
        <time>2014-10-12T07:43:14Z</time>
      </trkpt>
      <trkpt lat="41.651037077" lon="2.484577539">
        <ele>276.04</ele>
        <time>2014-10-12T07:43:16Z</time>
      </trkpt>
      <trkpt lat="41.651222653" lon="2.484613162">
        <ele>273.63</ele>
        <time>2014-10-12T07:43:20Z</time>
      </trkpt>
      <trkpt lat="41.651306388" lon="2.484636547">
        <ele>272.67</ele>
        <time>2014-10-12T07:43:22Z</time>
      </trkpt>
      <trkpt lat="41.651421052" lon="2.484804940">
        <ele>270.75</ele>
        <time>2014-10-12T07:43:26Z</time>
      </trkpt>
      <trkpt lat="41.651494310" lon="2.484999903">
        <ele>268.35</ele>
        <time>2014-10-12T07:43:30Z</time>
      </trkpt>
      <trkpt lat="41.651573435" lon="2.485021193">
        <ele>267.86</ele>
        <time>2014-10-12T07:43:33Z</time>
      </trkpt>
      <trkpt lat="41.651830508" lon="2.484910635">
        <ele>265.94</ele>
        <time>2014-10-12T07:43:39Z</time>
      </trkpt>
      <trkpt lat="41.652060508" lon="2.484730173">
        <ele>264.50</ele>
        <time>2014-10-12T07:43:43Z</time>
      </trkpt>
      <trkpt lat="41.652291932" lon="2.484510567">
        <ele>263.06</ele>
        <time>2014-10-12T07:43:47Z</time>
      </trkpt>
      <trkpt lat="41.652463845" lon="2.484385928">
        <ele>263.06</ele>
        <time>2014-10-12T07:43:50Z</time>
      </trkpt>
      <trkpt lat="41.652779675" lon="2.484358436">
        <ele>262.10</ele>
        <time>2014-10-12T07:43:56Z</time>
      </trkpt>
      <trkpt lat="41.652892998" lon="2.484361705">
        <ele>260.65</ele>
        <time>2014-10-12T07:43:59Z</time>
      </trkpt>
      <trkpt lat="41.652931555" lon="2.484313592">
        <ele>259.69</ele>
        <time>2014-10-12T07:44:01Z</time>
      </trkpt>
      <trkpt lat="41.653041610" lon="2.484082503">
        <ele>258.73</ele>
        <time>2014-10-12T07:44:09Z</time>
      </trkpt>
      <trkpt lat="41.653121992" lon="2.483970354">
        <ele>258.73</ele>
        <time>2014-10-12T07:44:13Z</time>
      </trkpt>
      <trkpt lat="41.653270268" lon="2.483867424">
        <ele>258.73</ele>
        <time>2014-10-12T07:44:22Z</time>
      </trkpt>
      <trkpt lat="41.653378394" lon="2.483788550">
        <ele>260.17</ele>
        <time>2014-10-12T07:44:27Z</time>
      </trkpt>
      <trkpt lat="41.653558941" lon="2.483682770">
        <ele>261.14</ele>
        <time>2014-10-12T07:44:36Z</time>
      </trkpt>
      <trkpt lat="41.653710066" lon="2.483572967">
        <ele>262.10</ele>
        <time>2014-10-12T07:44:45Z</time>
      </trkpt>
      <trkpt lat="41.653726495" lon="2.483564166">
        <ele>263.06</ele>
        <time>2014-10-12T07:44:46Z</time>
      </trkpt>
      <trkpt lat="41.653861695" lon="2.483453022">
        <ele>263.54</ele>
        <time>2014-10-12T07:44:54Z</time>
      </trkpt>
      <trkpt lat="41.653990022" lon="2.483318409">
        <ele>264.02</ele>
        <time>2014-10-12T07:45:02Z</time>
      </trkpt>
      <trkpt lat="41.654094796" lon="2.483265855">
        <ele>264.50</ele>
        <time>2014-10-12T07:45:09Z</time>
      </trkpt>
      <trkpt lat="41.654176435" lon="2.483134342">
        <ele>264.50</ele>
        <time>2014-10-12T07:45:15Z</time>
      </trkpt>
      <trkpt lat="41.654248352" lon="2.482983301">
        <ele>263.54</ele>
        <time>2014-10-12T07:45:19Z</time>
      </trkpt>
      <trkpt lat="41.654361759" lon="2.482698986">
        <ele>262.58</ele>
        <time>2014-10-12T07:45:26Z</time>
      </trkpt>
      <trkpt lat="41.654477094" lon="2.482261619">
        <ele>262.10</ele>
        <time>2014-10-12T07:45:35Z</time>
      </trkpt>
      <trkpt lat="41.654489416" lon="2.481934389">
        <ele>260.17</ele>
        <time>2014-10-12T07:45:40Z</time>
      </trkpt>
      <trkpt lat="41.654492098" lon="2.481699025">
        <ele>258.25</ele>
        <time>2014-10-12T07:45:43Z</time>
      </trkpt>
      <trkpt lat="41.654615899" lon="2.481313542">
        <ele>254.89</ele>
        <time>2014-10-12T07:45:48Z</time>
      </trkpt>
      <trkpt lat="41.654645152" lon="2.481119584">
        <ele>254.41</ele>
        <time>2014-10-12T07:45:50Z</time>
      </trkpt>
      <trkpt lat="41.654666442" lon="2.480776094">
        <ele>251.52</ele>
        <time>2014-10-12T07:45:53Z</time>
      </trkpt>
      <trkpt lat="41.654854280" lon="2.480320538">
        <ele>247.68</ele>
        <time>2014-10-12T07:45:58Z</time>
      </trkpt>
      <trkpt lat="41.654952600" lon="2.480179386">
        <ele>245.75</ele>
        <time>2014-10-12T07:46:00Z</time>
      </trkpt>
      <trkpt lat="41.655018984" lon="2.480007809">
        <ele>244.31</ele>
        <time>2014-10-12T07:46:02Z</time>
      </trkpt>
      <trkpt lat="41.654982607" lon="2.479784431">
        <ele>243.35</ele>
        <time>2014-10-12T07:46:05Z</time>
      </trkpt>
      <trkpt lat="41.655020661" lon="2.479415879">
        <ele>240.95</ele>
        <time>2014-10-12T07:46:09Z</time>
      </trkpt>
      <trkpt lat="41.655105653" lon="2.479239356">
        <ele>240.47</ele>
        <time>2014-10-12T07:46:11Z</time>
      </trkpt>
      <trkpt lat="41.655232639" lon="2.478914138">
        <ele>237.58</ele>
        <time>2014-10-12T07:46:15Z</time>
      </trkpt>
      <trkpt lat="41.655207745" lon="2.478758318">
        <ele>237.10</ele>
        <time>2014-10-12T07:46:17Z</time>
      </trkpt>
      <trkpt lat="41.655147228" lon="2.478198826">
        <ele>235.18</ele>
        <time>2014-10-12T07:46:24Z</time>
      </trkpt>
      <trkpt lat="41.655188215" lon="2.478031943">
        <ele>234.70</ele>
        <time>2014-10-12T07:46:26Z</time>
      </trkpt>
      <trkpt lat="41.655229035" lon="2.477667162">
        <ele>232.78</ele>
        <time>2014-10-12T07:46:30Z</time>
      </trkpt>
      <trkpt lat="41.655220318" lon="2.477378322">
        <ele>230.85</ele>
        <time>2014-10-12T07:46:33Z</time>
      </trkpt>
      <trkpt lat="41.655196262" lon="2.477036927">
        <ele>227.97</ele>
        <time>2014-10-12T07:46:37Z</time>
      </trkpt>
      <trkpt lat="41.655194501" lon="2.476712044">
        <ele>227.49</ele>
        <time>2014-10-12T07:46:41Z</time>
      </trkpt>
      <trkpt lat="41.655149407" lon="2.476556476">
        <ele>226.53</ele>
        <time>2014-10-12T07:46:43Z</time>
      </trkpt>
      <trkpt lat="41.655109928" lon="2.476322705">
        <ele>226.05</ele>
        <time>2014-10-12T07:46:46Z</time>
      </trkpt>
      <trkpt lat="41.655077742" lon="2.476169568">
        <ele>225.57</ele>
        <time>2014-10-12T07:46:48Z</time>
      </trkpt>
      <trkpt lat="41.655051339" lon="2.475996900">
        <ele>224.61</ele>
        <time>2014-10-12T07:46:50Z</time>
      </trkpt>
      <trkpt lat="41.655049746" lon="2.475714095">
        <ele>223.64</ele>
        <time>2014-10-12T07:46:53Z</time>
      </trkpt>
      <trkpt lat="41.655045304" lon="2.475517539">
        <ele>223.16</ele>
        <time>2014-10-12T07:46:55Z</time>
      </trkpt>
      <trkpt lat="41.654960898" lon="2.475256108">
        <ele>221.24</ele>
        <time>2014-10-12T07:46:58Z</time>
      </trkpt>
      <trkpt lat="41.654881186" lon="2.474894596">
        <ele>219.80</ele>
        <time>2014-10-12T07:47:02Z</time>
      </trkpt>
      <trkpt lat="41.654881354" lon="2.474601565">
        <ele>219.32</ele>
        <time>2014-10-12T07:47:05Z</time>
      </trkpt>
      <trkpt lat="41.654870876" lon="2.474408865">
        <ele>217.88</ele>
        <time>2014-10-12T07:47:07Z</time>
      </trkpt>
      <trkpt lat="41.654777837" lon="2.474136034">
        <ele>215.47</ele>
        <time>2014-10-12T07:47:12Z</time>
      </trkpt>
      <trkpt lat="41.654761744" lon="2.474052802">
        <ele>214.99</ele>
        <time>2014-10-12T07:47:15Z</time>
      </trkpt>
      <trkpt lat="41.654747662" lon="2.473944927">
        <ele>213.07</ele>
        <time>2014-10-12T07:47:19Z</time>
      </trkpt>
      <trkpt lat="41.654743974" lon="2.473913243">
        <ele>212.59</ele>
        <time>2014-10-12T07:47:23Z</time>
      </trkpt>
      <trkpt lat="41.654739616" lon="2.473735631">
        <ele>212.11</ele>
        <time>2014-10-12T07:47:29Z</time>
      </trkpt>
      <trkpt lat="41.654717068" lon="2.473522646">
        <ele>211.63</ele>
        <time>2014-10-12T07:47:35Z</time>
      </trkpt>
      <trkpt lat="41.654707848" lon="2.473436900">
        <ele>210.67</ele>
        <time>2014-10-12T07:47:37Z</time>
      </trkpt>
      <trkpt lat="41.654590921" lon="2.473129284">
        <ele>207.30</ele>
        <time>2014-10-12T07:47:43Z</time>
      </trkpt>
      <trkpt lat="41.654491847" lon="2.473066671">
        <ele>206.82</ele>
        <time>2014-10-12T07:47:46Z</time>
      </trkpt>
      <trkpt lat="41.654400232" lon="2.473026605">
        <ele>205.86</ele>
        <time>2014-10-12T07:47:51Z</time>
      </trkpt>
      <trkpt lat="41.654322700" lon="2.473125260">
        <ele>207.30</ele>
        <time>2014-10-12T07:47:59Z</time>
      </trkpt>
      <trkpt lat="41.654221949" lon="2.473238500">
        <ele>208.26</ele>
        <time>2014-10-12T07:48:06Z</time>
      </trkpt>
      <trkpt lat="41.654106614" lon="2.473323409">
        <ele>209.22</ele>
        <time>2014-10-12T07:48:13Z</time>
      </trkpt>
      <trkpt lat="41.654079792" lon="2.473335814">
        <ele>209.70</ele>
        <time>2014-10-12T07:48:15Z</time>
      </trkpt>
      <trkpt lat="41.654007037" lon="2.473419465">
        <ele>210.67</ele>
        <time>2014-10-12T07:48:22Z</time>
      </trkpt>
      <trkpt lat="41.653910981" lon="2.473537734">
        <ele>212.59</ele>
        <time>2014-10-12T07:48:31Z</time>
      </trkpt>
      <trkpt lat="41.653876447" lon="2.473571681">
        <ele>213.07</ele>
        <time>2014-10-12T07:48:34Z</time>
      </trkpt>
      <trkpt lat="41.653723310" lon="2.473688692">
        <ele>214.51</ele>
        <time>2014-10-12T07:48:43Z</time>
      </trkpt>
      <trkpt lat="41.653615602" lon="2.473739067">
        <ele>216.43</ele>
        <time>2014-10-12T07:48:51Z</time>
      </trkpt>
      <trkpt lat="41.653590289" lon="2.473759687">
        <ele>215.95</ele>
        <time>2014-10-12T07:49:01Z</time>
      </trkpt>
      <trkpt lat="41.653580734" lon="2.473772092">
        <ele>216.91</ele>
        <time>2014-10-12T07:49:12Z</time>
      </trkpt>
      <trkpt lat="41.653582661" lon="2.473787263">
        <ele>216.91</ele>
        <time>2014-10-12T07:49:20Z</time>
      </trkpt>
      <trkpt lat="41.653586936" lon="2.473790784">
        <ele>215.47</ele>
        <time>2014-10-12T07:49:24Z</time>
      </trkpt>
      <trkpt lat="41.653683915" lon="2.473770248">
        <ele>214.51</ele>
        <time>2014-10-12T07:49:32Z</time>
      </trkpt>
      <trkpt lat="41.653746276" lon="2.473700427">
        <ele>212.11</ele>
        <time>2014-10-12T07:49:40Z</time>
      </trkpt>
      <trkpt lat="41.653790449" lon="2.473646531">
        <ele>212.11</ele>
        <time>2014-10-12T07:49:49Z</time>
      </trkpt>
      <trkpt lat="41.653842333" lon="2.473597329">
        <ele>210.67</ele>
        <time>2014-10-12T07:49:52Z</time>
      </trkpt>
      <trkpt lat="41.653881895" lon="2.473645106">
        <ele>210.19</ele>
        <time>2014-10-12T07:49:58Z</time>
      </trkpt>
      <trkpt lat="41.653879046" lon="2.473658769">
        <ele>210.19</ele>
        <time>2014-10-12T07:49:59Z</time>
      </trkpt>
      <trkpt lat="41.653868233" lon="2.473681567">
        <ele>210.19</ele>
        <time>2014-10-12T07:50:01Z</time>
      </trkpt>
      <trkpt lat="41.653825234" lon="2.473775780">
        <ele>211.63</ele>
        <time>2014-10-12T07:50:08Z</time>
      </trkpt>
      <trkpt lat="41.653720795" lon="2.473855743">
        <ele>212.11</ele>
        <time>2014-10-12T07:50:15Z</time>
      </trkpt>
      <trkpt lat="41.653669079" lon="2.473943167">
        <ele>212.11</ele>
        <time>2014-10-12T07:50:19Z</time>
      </trkpt>
      <trkpt lat="41.653725405" lon="2.474106781">
        <ele>212.11</ele>
        <time>2014-10-12T07:50:27Z</time>
      </trkpt>
      <trkpt lat="41.653788689" lon="2.474209879">
        <ele>214.03</ele>
        <time>2014-10-12T07:50:35Z</time>
      </trkpt>
      <trkpt lat="41.653777289" lon="2.474264613">
        <ele>214.99</ele>
        <time>2014-10-12T07:50:39Z</time>
      </trkpt>
      <trkpt lat="41.653700846" lon="2.474378187">
        <ele>216.43</ele>
        <time>2014-10-12T07:50:47Z</time>
      </trkpt>
      <trkpt lat="41.653609316" lon="2.474458821">
        <ele>219.32</ele>
        <time>2014-10-12T07:50:56Z</time>
      </trkpt>
      <trkpt lat="41.653571178" lon="2.474482542">
        <ele>220.76</ele>
        <time>2014-10-12T07:51:01Z</time>
      </trkpt>
      <trkpt lat="41.653428770" lon="2.474481369">
        <ele>222.68</ele>
        <time>2014-10-12T07:51:10Z</time>
      </trkpt>
      <trkpt lat="41.653323493" lon="2.474503832">
        <ele>224.61</ele>
        <time>2014-10-12T07:51:18Z</time>
      </trkpt>
      <trkpt lat="41.653207739" lon="2.474560997">
        <ele>226.53</ele>
        <time>2014-10-12T07:51:27Z</time>
      </trkpt>
      <trkpt lat="41.653150323" lon="2.474626208">
        <ele>227.49</ele>
        <time>2014-10-12T07:51:34Z</time>
      </trkpt>
      <trkpt lat="41.653064073" lon="2.474783369">
        <ele>228.93</ele>
        <time>2014-10-12T07:51:44Z</time>
      </trkpt>
      <trkpt lat="41.652993917" lon="2.474901889">
        <ele>229.89</ele>
        <time>2014-10-12T07:51:53Z</time>
      </trkpt>
      <trkpt lat="41.652896687" lon="2.475031389">
        <ele>230.85</ele>
        <time>2014-10-12T07:52:02Z</time>
      </trkpt>
      <trkpt lat="41.652768862" lon="2.475167679">
        <ele>231.81</ele>
        <time>2014-10-12T07:52:13Z</time>
      </trkpt>
      <trkpt lat="41.652703903" lon="2.475216210">
        <ele>232.30</ele>
        <time>2014-10-12T07:52:18Z</time>
      </trkpt>
      <trkpt lat="41.652557555" lon="2.475301957">
        <ele>233.26</ele>
        <time>2014-10-12T07:52:29Z</time>
      </trkpt>
      <trkpt lat="41.652456385" lon="2.475366833">
        <ele>234.70</ele>
        <time>2014-10-12T07:52:38Z</time>
      </trkpt>
      <trkpt lat="41.652340631" lon="2.475437408">
        <ele>235.66</ele>
        <time>2014-10-12T07:52:46Z</time>
      </trkpt>
      <trkpt lat="41.652199647" lon="2.475532627">
        <ele>237.10</ele>
        <time>2014-10-12T07:52:56Z</time>
      </trkpt>
      <trkpt lat="41.652142818" lon="2.475559281">
        <ele>237.58</ele>
        <time>2014-10-12T07:53:00Z</time>
      </trkpt>
      <trkpt lat="41.652037122" lon="2.475646369">
        <ele>239.99</ele>
        <time>2014-10-12T07:53:12Z</time>
      </trkpt>
      <trkpt lat="41.651944838" lon="2.475722896">
        <ele>240.95</ele>
        <time>2014-10-12T07:53:20Z</time>
      </trkpt>
      <trkpt lat="41.651869149" lon="2.475773690">
        <ele>242.87</ele>
        <time>2014-10-12T07:53:27Z</time>
      </trkpt>
      <trkpt lat="41.651786755" lon="2.475774193">
        <ele>244.79</ele>
        <time>2014-10-12T07:53:34Z</time>
      </trkpt>
      <trkpt lat="41.651677203" lon="2.475801435">
        <ele>246.72</ele>
        <time>2014-10-12T07:53:42Z</time>
      </trkpt>
      <trkpt lat="41.651533286" lon="2.475848038">
        <ele>249.12</ele>
        <time>2014-10-12T07:53:52Z</time>
      </trkpt>
      <trkpt lat="41.651486934" lon="2.475877877">
        <ele>249.12</ele>
        <time>2014-10-12T07:53:55Z</time>
      </trkpt>
      <trkpt lat="41.651376796" lon="2.475894809">
        <ele>250.56</ele>
        <time>2014-10-12T07:54:03Z</time>
      </trkpt>
      <trkpt lat="41.651317704" lon="2.475826077">
        <ele>251.52</ele>
        <time>2014-10-12T07:54:10Z</time>
      </trkpt>
      <trkpt lat="41.651228520" lon="2.475760531">
        <ele>253.93</ele>
        <time>2014-10-12T07:54:20Z</time>
      </trkpt>
      <trkpt lat="41.651121651" lon="2.475657182">
        <ele>255.85</ele>
        <time>2014-10-12T07:54:29Z</time>
      </trkpt>
      <trkpt lat="41.651099187" lon="2.475635473">
        <ele>256.33</ele>
        <time>2014-10-12T07:54:31Z</time>
      </trkpt>
      <trkpt lat="41.651037748" lon="2.475621894">
        <ele>257.29</ele>
        <time>2014-10-12T07:54:35Z</time>
      </trkpt>
      <trkpt lat="41.650884527" lon="2.475658104">
        <ele>259.69</ele>
        <time>2014-10-12T07:54:46Z</time>
      </trkpt>
      <trkpt lat="41.650826692" lon="2.475689955">
        <ele>261.14</ele>
        <time>2014-10-12T07:54:51Z</time>
      </trkpt>
      <trkpt lat="41.650781429" lon="2.475708060">
        <ele>262.10</ele>
        <time>2014-10-12T07:54:55Z</time>
      </trkpt>
      <trkpt lat="41.650622089" lon="2.475765644">
        <ele>264.02</ele>
        <time>2014-10-12T07:55:07Z</time>
      </trkpt>
      <trkpt lat="41.650580515" lon="2.475777295">
        <ele>264.50</ele>
        <time>2014-10-12T07:55:10Z</time>
      </trkpt>
      <trkpt lat="41.650467611" lon="2.475856252">
        <ele>265.94</ele>
        <time>2014-10-12T07:55:21Z</time>
      </trkpt>
      <trkpt lat="41.650390665" lon="2.475914842">
        <ele>268.35</ele>
        <time>2014-10-12T07:55:29Z</time>
      </trkpt>
      <trkpt lat="41.650362502" lon="2.475938814">
        <ele>268.83</ele>
        <time>2014-10-12T07:55:31Z</time>
      </trkpt>
      <trkpt lat="41.650308103" lon="2.475975694">
        <ele>269.31</ele>
        <time>2014-10-12T07:55:35Z</time>
      </trkpt>
      <trkpt lat="41.650194026" lon="2.476029087">
        <ele>270.27</ele>
        <time>2014-10-12T07:55:44Z</time>
      </trkpt>
      <trkpt lat="41.650094281" lon="2.476077115">
        <ele>270.27</ele>
        <time>2014-10-12T07:55:52Z</time>
      </trkpt>
      <trkpt lat="41.649923793" lon="2.476081558">
        <ele>270.27</ele>
        <time>2014-10-12T07:56:02Z</time>
      </trkpt>
      <trkpt lat="41.649792784" lon="2.476058424">
        <ele>270.27</ele>
        <time>2014-10-12T07:56:09Z</time>
      </trkpt>
      <trkpt lat="41.649748108" lon="2.476016766">
        <ele>270.27</ele>
        <time>2014-10-12T07:56:12Z</time>
      </trkpt>
      <trkpt lat="41.649696057" lon="2.475846362">
        <ele>270.27</ele>
        <time>2014-10-12T07:56:19Z</time>
      </trkpt>
      <trkpt lat="41.649687591" lon="2.475806799">
        <ele>270.27</ele>
        <time>2014-10-12T07:56:20Z</time>
      </trkpt>
      <trkpt lat="41.649640652" lon="2.475543942">
        <ele>268.83</ele>
        <time>2014-10-12T07:56:27Z</time>
      </trkpt>
      <trkpt lat="41.649603604" lon="2.475211432">
        <ele>268.35</ele>
        <time>2014-10-12T07:56:35Z</time>
      </trkpt>
      <trkpt lat="41.649586589" lon="2.474994257">
        <ele>268.35</ele>
        <time>2014-10-12T07:56:42Z</time>
      </trkpt>
      <trkpt lat="41.649525653" lon="2.474800803">
        <ele>268.35</ele>
        <time>2014-10-12T07:56:48Z</time>
      </trkpt>
      <trkpt lat="41.649496316" lon="2.474606510">
        <ele>267.86</ele>
        <time>2014-10-12T07:56:55Z</time>
      </trkpt>
      <trkpt lat="41.649495059" lon="2.474377098">
        <ele>267.86</ele>
        <time>2014-10-12T07:57:02Z</time>
      </trkpt>
      <trkpt lat="41.649491957" lon="2.474254135">
        <ele>269.31</ele>
        <time>2014-10-12T07:57:06Z</time>
      </trkpt>
      <trkpt lat="41.649424986" lon="2.473958086">
        <ele>269.79</ele>
        <time>2014-10-12T07:57:15Z</time>
      </trkpt>
      <trkpt lat="41.649380227" lon="2.473720292">
        <ele>269.79</ele>
        <time>2014-10-12T07:57:22Z</time>
      </trkpt>
      <trkpt lat="41.649299341" lon="2.473483168">
        <ele>267.38</ele>
        <time>2014-10-12T07:57:27Z</time>
      </trkpt>
      <trkpt lat="41.649363379" lon="2.473315781">
        <ele>267.38</ele>
        <time>2014-10-12T07:57:33Z</time>
      </trkpt>
      <trkpt lat="41.649393554" lon="2.473286612">
        <ele>267.86</ele>
        <time>2014-10-12T07:57:35Z</time>
      </trkpt>
      <trkpt lat="41.649494556" lon="2.473183096">
        <ele>270.75</ele>
        <time>2014-10-12T07:57:42Z</time>
      </trkpt>
      <trkpt lat="41.649597486" lon="2.473076813">
        <ele>272.19</ele>
        <time>2014-10-12T07:57:48Z</time>
      </trkpt>
      <trkpt lat="41.649720280" lon="2.472982768">
        <ele>273.63</ele>
        <time>2014-10-12T07:57:55Z</time>
      </trkpt>
      <trkpt lat="41.649854223" lon="2.472941194">
        <ele>275.56</ele>
        <time>2014-10-12T07:58:02Z</time>
      </trkpt>
      <trkpt lat="41.650031836" lon="2.472871289">
        <ele>275.56</ele>
        <time>2014-10-12T07:58:10Z</time>
      </trkpt>
      <trkpt lat="41.650117667" lon="2.472722761">
        <ele>276.04</ele>
        <time>2014-10-12T07:58:16Z</time>
      </trkpt>
      <trkpt lat="41.650167120" lon="2.472371141">
        <ele>276.04</ele>
        <time>2014-10-12T07:58:25Z</time>
      </trkpt>
      <trkpt lat="41.650162258" lon="2.472109374">
        <ele>275.07</ele>
        <time>2014-10-12T07:58:31Z</time>
      </trkpt>
      <trkpt lat="41.650115990" lon="2.471738977">
        <ele>273.63</ele>
        <time>2014-10-12T07:58:38Z</time>
      </trkpt>
      <trkpt lat="41.650202491" lon="2.471621966">
        <ele>273.15</ele>
        <time>2014-10-12T07:58:42Z</time>
      </trkpt>
      <trkpt lat="41.650248843" lon="2.471632611">
        <ele>273.15</ele>
        <time>2014-10-12T07:58:44Z</time>
      </trkpt>
      <trkpt lat="41.650318916" lon="2.471665049">
        <ele>274.59</ele>
        <time>2014-10-12T07:58:47Z</time>
      </trkpt>
      <trkpt lat="41.650483704" lon="2.471712155">
        <ele>277.00</ele>
        <time>2014-10-12T07:58:54Z</time>
      </trkpt>
      <trkpt lat="41.650636003" lon="2.471798405">
        <ele>277.96</ele>
        <time>2014-10-12T07:59:02Z</time>
      </trkpt>
      <trkpt lat="41.650786961" lon="2.471990015">
        <ele>277.48</ele>
        <time>2014-10-12T07:59:09Z</time>
      </trkpt>
      <trkpt lat="41.650872708" lon="2.472092694">
        <ele>276.04</ele>
        <time>2014-10-12T07:59:13Z</time>
      </trkpt>
      <trkpt lat="41.651049231" lon="2.472087162">
        <ele>274.59</ele>
        <time>2014-10-12T07:59:19Z</time>
      </trkpt>
      <trkpt lat="41.651244278" lon="2.471871831">
        <ele>273.63</ele>
        <time>2014-10-12T07:59:26Z</time>
      </trkpt>
      <trkpt lat="41.651274118" lon="2.471653063">
        <ele>273.63</ele>
        <time>2014-10-12T07:59:33Z</time>
      </trkpt>
      <trkpt lat="41.651282667" lon="2.471596066">
        <ele>275.07</ele>
        <time>2014-10-12T07:59:35Z</time>
      </trkpt>
      <trkpt lat="41.651287110" lon="2.471424991">
        <ele>276.52</ele>
        <time>2014-10-12T07:59:41Z</time>
      </trkpt>
      <trkpt lat="41.651257689" lon="2.471249223">
        <ele>278.44</ele>
        <time>2014-10-12T07:59:47Z</time>
      </trkpt>
      <trkpt lat="41.651277638" lon="2.471070856">
        <ele>278.92</ele>
        <time>2014-10-12T07:59:53Z</time>
      </trkpt>
      <trkpt lat="41.651351064" lon="2.470803473">
        <ele>278.44</ele>
        <time>2014-10-12T08:00:00Z</time>
      </trkpt>
      <trkpt lat="41.651364391" lon="2.470773215">
        <ele>278.44</ele>
        <time>2014-10-12T08:00:01Z</time>
      </trkpt>
      <trkpt lat="41.651449132" lon="2.470553441">
        <ele>278.44</ele>
        <time>2014-10-12T08:00:09Z</time>
      </trkpt>
      <trkpt lat="41.651537477" lon="2.470377840">
        <ele>277.48</ele>
        <time>2014-10-12T08:00:14Z</time>
      </trkpt>
      <trkpt lat="41.651657422" lon="2.470349593">
        <ele>277.00</ele>
        <time>2014-10-12T08:00:19Z</time>
      </trkpt>
      <trkpt lat="41.651844925" lon="2.470444393">
        <ele>276.52</ele>
        <time>2014-10-12T08:00:26Z</time>
      </trkpt>
      <trkpt lat="41.651968558" lon="2.470601889">
        <ele>276.04</ele>
        <time>2014-10-12T08:00:31Z</time>
      </trkpt>
      <trkpt lat="41.652087581" lon="2.470841527">
        <ele>273.63</ele>
        <time>2014-10-12T08:00:37Z</time>
      </trkpt>
      <trkpt lat="41.652240132" lon="2.471122489">
        <ele>271.23</ele>
        <time>2014-10-12T08:00:43Z</time>
      </trkpt>
      <trkpt lat="41.652315234" lon="2.471277302">
        <ele>270.27</ele>
        <time>2014-10-12T08:00:46Z</time>
      </trkpt>
      <trkpt lat="41.652430485" lon="2.471554492">
        <ele>268.35</ele>
        <time>2014-10-12T08:00:50Z</time>
      </trkpt>
      <trkpt lat="41.652608349" lon="2.471769823">
        <ele>268.35</ele>
        <time>2014-10-12T08:00:55Z</time>
      </trkpt>
      <trkpt lat="41.652752350" lon="2.471748868">
        <ele>269.31</ele>
        <time>2014-10-12T08:01:00Z</time>
      </trkpt>
      <trkpt lat="41.652817142" lon="2.471636132">
        <ele>271.71</ele>
        <time>2014-10-12T08:01:05Z</time>
      </trkpt>
      <trkpt lat="41.652801384" lon="2.471477630">
        <ele>272.67</ele>
        <time>2014-10-12T08:01:10Z</time>
      </trkpt>
      <trkpt lat="41.652783615" lon="2.471193902">
        <ele>273.15</ele>
        <time>2014-10-12T08:01:18Z</time>
      </trkpt>
      <trkpt lat="41.652792416" lon="2.471144281">
        <ele>273.15</ele>
        <time>2014-10-12T08:01:19Z</time>
      </trkpt>
      <trkpt lat="41.652890903" lon="2.470903637">
        <ele>271.23</ele>
        <time>2014-10-12T08:01:24Z</time>
      </trkpt>
      <trkpt lat="41.653032054" lon="2.470723929">
        <ele>269.31</ele>
        <time>2014-10-12T08:01:29Z</time>
      </trkpt>
      <trkpt lat="41.653054602" lon="2.470525194">
        <ele>267.86</ele>
        <time>2014-10-12T08:01:32Z</time>
      </trkpt>
      <trkpt lat="41.653075305" lon="2.470202910">
        <ele>267.86</ele>
        <time>2014-10-12T08:01:38Z</time>
      </trkpt>
      <trkpt lat="41.653109503" lon="2.470027058">
        <ele>269.79</ele>
        <time>2014-10-12T08:01:44Z</time>
      </trkpt>
      <trkpt lat="41.653196675" lon="2.469839638">
        <ele>272.67</ele>
        <time>2014-10-12T08:01:51Z</time>
      </trkpt>
      <trkpt lat="41.653297258" lon="2.469667306">
        <ele>273.15</ele>
        <time>2014-10-12T08:01:57Z</time>
      </trkpt>
      <trkpt lat="41.653376467" lon="2.469462704">
        <ele>274.11</ele>
        <time>2014-10-12T08:02:04Z</time>
      </trkpt>
      <trkpt lat="41.653388537" lon="2.469425321">
        <ele>274.11</ele>
        <time>2014-10-12T08:02:05Z</time>
      </trkpt>
      <trkpt lat="41.653347381" lon="2.469185012">
        <ele>270.27</ele>
        <time>2014-10-12T08:02:10Z</time>
      </trkpt>
      <trkpt lat="41.653176223" lon="2.468846634">
        <ele>269.31</ele>
        <time>2014-10-12T08:02:18Z</time>
      </trkpt>
      <trkpt lat="41.653115370" lon="2.468600122">
        <ele>269.79</ele>
        <time>2014-10-12T08:02:25Z</time>
      </trkpt>
      <trkpt lat="41.653062732" lon="2.468365513">
        <ele>271.23</ele>
        <time>2014-10-12T08:02:33Z</time>
      </trkpt>
      <trkpt lat="41.653002885" lon="2.468203239">
        <ele>271.71</ele>
        <time>2014-10-12T08:02:39Z</time>
      </trkpt>
      <trkpt lat="41.652910349" lon="2.468048761">
        <ele>272.67</ele>
        <time>2014-10-12T08:02:46Z</time>
      </trkpt>
      <trkpt lat="41.652798032" lon="2.467919931">
        <ele>273.15</ele>
        <time>2014-10-12T08:02:53Z</time>
      </trkpt>
      <trkpt lat="41.652746315" lon="2.467843320">
        <ele>274.11</ele>
        <time>2014-10-12T08:02:59Z</time>
      </trkpt>
      <trkpt lat="41.652725863" lon="2.467787581">
        <ele>274.11</ele>
        <time>2014-10-12T08:03:03Z</time>
      </trkpt>
      <trkpt lat="41.652628130" lon="2.467693033">
        <ele>274.11</ele>
        <time>2014-10-12T08:03:11Z</time>
      </trkpt>
      <trkpt lat="41.652534504" lon="2.467581218">
        <ele>274.59</ele>
        <time>2014-10-12T08:03:19Z</time>
      </trkpt>
      <trkpt lat="41.652497205" lon="2.467506619">
        <ele>275.07</ele>
        <time>2014-10-12T08:03:26Z</time>
      </trkpt>
      <trkpt lat="41.652459738" lon="2.467464710">
        <ele>275.07</ele>
        <time>2014-10-12T08:03:35Z</time>
      </trkpt>
      <trkpt lat="41.652369800" lon="2.467287684">
        <ele>276.04</ele>
        <time>2014-10-12T08:03:44Z</time>
      </trkpt>
      <trkpt lat="41.652258656" lon="2.467216522">
        <ele>276.52</ele>
        <time>2014-10-12T08:03:51Z</time>
      </trkpt>
      <trkpt lat="41.652190846" lon="2.467182575">
        <ele>277.00</ele>
        <time>2014-10-12T08:03:55Z</time>
      </trkpt>
      <trkpt lat="41.652157738" lon="2.467050141">
        <ele>277.48</ele>
        <time>2014-10-12T08:04:01Z</time>
      </trkpt>
      <trkpt lat="41.652247424" lon="2.466935979">
        <ele>277.96</ele>
        <time>2014-10-12T08:04:08Z</time>
      </trkpt>
      <trkpt lat="41.652440376" lon="2.466829278">
        <ele>277.96</ele>
        <time>2014-10-12T08:04:16Z</time>
      </trkpt>
      <trkpt lat="41.652608768" lon="2.466651162">
        <ele>276.04</ele>
        <time>2014-10-12T08:04:22Z</time>
      </trkpt>
      <trkpt lat="41.652694599" lon="2.466466090">
        <ele>275.07</ele>
        <time>2014-10-12T08:04:26Z</time>
      </trkpt>
      <trkpt lat="41.652895932" lon="2.466107596">
        <ele>274.11</ele>
        <time>2014-10-12T08:04:34Z</time>
      </trkpt>
      <trkpt lat="41.653025181" lon="2.465852702">
        <ele>274.11</ele>
        <time>2014-10-12T08:04:40Z</time>
      </trkpt>
      <trkpt lat="41.653041861" lon="2.465620523">
        <ele>273.63</ele>
        <time>2014-10-12T08:04:45Z</time>
      </trkpt>
      <trkpt lat="41.653043957" lon="2.465429751">
        <ele>273.63</ele>
        <time>2014-10-12T08:04:50Z</time>
      </trkpt>
      <trkpt lat="41.653040855" lon="2.465284325">
        <ele>273.63</ele>
        <time>2014-10-12T08:04:56Z</time>
      </trkpt>
      <trkpt lat="41.653034066" lon="2.465246439">
        <ele>273.63</ele>
        <time>2014-10-12T08:05:04Z</time>
      </trkpt>
      <trkpt lat="41.653030797" lon="2.465235794">
        <ele>273.63</ele>
        <time>2014-10-12T08:05:05Z</time>
      </trkpt>
      <trkpt lat="41.652981679" lon="2.465103611">
        <ele>275.07</ele>
        <time>2014-10-12T08:05:11Z</time>
      </trkpt>
      <trkpt lat="41.652850838" lon="2.464896243">
        <ele>276.52</ele>
        <time>2014-10-12T08:05:20Z</time>
      </trkpt>
      <trkpt lat="41.652766264" lon="2.464730617">
        <ele>278.44</ele>
        <time>2014-10-12T08:05:27Z</time>
      </trkpt>
      <trkpt lat="41.652750841" lon="2.464681247">
        <ele>278.44</ele>
        <time>2014-10-12T08:05:29Z</time>
      </trkpt>
      <trkpt lat="41.652799540" lon="2.464442363">
        <ele>279.40</ele>
        <time>2014-10-12T08:05:37Z</time>
      </trkpt>
      <trkpt lat="41.652890316" lon="2.464291070">
        <ele>279.40</ele>
        <time>2014-10-12T08:05:43Z</time>
      </trkpt>
      <trkpt lat="41.653020320" lon="2.464161234">
        <ele>280.84</ele>
        <time>2014-10-12T08:05:50Z</time>
      </trkpt>
      <trkpt lat="41.653056949" lon="2.463993093">
        <ele>280.84</ele>
        <time>2014-10-12T08:05:55Z</time>
      </trkpt>
      <trkpt lat="41.653001209" lon="2.463768290">
        <ele>279.40</ele>
        <time>2014-10-12T08:05:59Z</time>
      </trkpt>
      <trkpt lat="41.652998024" lon="2.463425554">
        <ele>278.92</ele>
        <time>2014-10-12T08:06:04Z</time>
      </trkpt>
      <trkpt lat="41.653010094" lon="2.463258419">
        <ele>278.92</ele>
        <time>2014-10-12T08:06:07Z</time>
      </trkpt>
      <trkpt lat="41.653029875" lon="2.462968657">
        <ele>278.44</ele>
        <time>2014-10-12T08:06:13Z</time>
      </trkpt>
      <trkpt lat="41.653101121" lon="2.462637069">
        <ele>278.44</ele>
        <time>2014-10-12T08:06:21Z</time>
      </trkpt>
      <trkpt lat="41.653119310" lon="2.462551071">
        <ele>279.88</ele>
        <time>2014-10-12T08:06:23Z</time>
      </trkpt>
      <trkpt lat="41.653100786" lon="2.462225769">
        <ele>281.80</ele>
        <time>2014-10-12T08:06:31Z</time>
      </trkpt>
      <trkpt lat="41.652976901" lon="2.462038098">
        <ele>282.77</ele>
        <time>2014-10-12T08:06:37Z</time>
      </trkpt>
      <trkpt lat="41.652885706" lon="2.461815978">
        <ele>282.77</ele>
        <time>2014-10-12T08:06:44Z</time>
      </trkpt>
      <trkpt lat="41.652904314" lon="2.461476091">
        <ele>282.77</ele>
        <time>2014-10-12T08:06:52Z</time>
      </trkpt>
      <trkpt lat="41.652835582" lon="2.461189179">
        <ele>282.77</ele>
        <time>2014-10-12T08:07:00Z</time>
      </trkpt>
      <trkpt lat="41.652691330" lon="2.460999999">
        <ele>282.77</ele>
        <time>2014-10-12T08:07:05Z</time>
      </trkpt>
      <trkpt lat="41.652688480" lon="2.460784417">
        <ele>282.77</ele>
        <time>2014-10-12T08:07:10Z</time>
      </trkpt>
      <trkpt lat="41.652711866" lon="2.460695904">
        <ele>281.32</ele>
        <time>2014-10-12T08:07:12Z</time>
      </trkpt>
      <trkpt lat="41.652802725" lon="2.460508149">
        <ele>281.32</ele>
        <time>2014-10-12T08:07:18Z</time>
      </trkpt>
      <trkpt lat="41.652822674" lon="2.460469928">
        <ele>280.84</ele>
        <time>2014-10-12T08:07:21Z</time>
      </trkpt>
      <trkpt lat="41.652842037" lon="2.460390803">
        <ele>280.84</ele>
        <time>2014-10-12T08:07:27Z</time>
      </trkpt>
      <trkpt lat="41.652837929" lon="2.460371608">
        <ele>280.84</ele>
        <time>2014-10-12T08:07:34Z</time>
      </trkpt>
      <trkpt lat="41.652726199" lon="2.460288543">
        <ele>282.28</ele>
        <time>2014-10-12T08:07:43Z</time>
      </trkpt>
      <trkpt lat="41.652712871" lon="2.460277731">
        <ele>282.28</ele>
        <time>2014-10-12T08:07:44Z</time>
      </trkpt>
      <trkpt lat="41.652594100" lon="2.460196845">
        <ele>283.73</ele>
        <time>2014-10-12T08:07:53Z</time>
      </trkpt>
      <trkpt lat="41.652456637" lon="2.460097436">
        <ele>286.13</ele>
        <time>2014-10-12T08:08:03Z</time>
      </trkpt>
      <trkpt lat="41.652379523" lon="2.460028201">
        <ele>286.61</ele>
        <time>2014-10-12T08:08:09Z</time>
      </trkpt>
      <trkpt lat="41.652267122" lon="2.459916722">
        <ele>288.53</ele>
        <time>2014-10-12T08:08:18Z</time>
      </trkpt>
      <trkpt lat="41.652165533" lon="2.459710024">
        <ele>290.46</ele>
        <time>2014-10-12T08:08:29Z</time>
      </trkpt>
      <trkpt lat="41.652082720" lon="2.459545991">
        <ele>291.42</ele>
        <time>2014-10-12T08:08:38Z</time>
      </trkpt>
      <trkpt lat="41.652039385" lon="2.459509194">
        <ele>291.90</ele>
        <time>2014-10-12T08:08:41Z</time>
      </trkpt>
      <trkpt lat="41.652009797" lon="2.459612711">
        <ele>292.38</ele>
        <time>2014-10-12T08:08:48Z</time>
      </trkpt>
      <trkpt lat="41.652018515" lon="2.459701643">
        <ele>292.86</ele>
        <time>2014-10-12T08:08:52Z</time>
      </trkpt>
      <trkpt lat="41.652080876" lon="2.459955782">
        <ele>293.82</ele>
        <time>2014-10-12T08:09:02Z</time>
      </trkpt>
      <trkpt lat="41.652086743" lon="2.460122749">
        <ele>294.30</ele>
        <time>2014-10-12T08:09:09Z</time>
      </trkpt>
      <trkpt lat="41.652081882" lon="2.460281503">
        <ele>295.26</ele>
        <time>2014-10-12T08:09:16Z</time>
      </trkpt>
      <trkpt lat="41.652087581" lon="2.460448973">
        <ele>296.70</ele>
        <time>2014-10-12T08:09:24Z</time>
      </trkpt>
      <trkpt lat="41.652084815" lon="2.460471772">
        <ele>297.18</ele>
        <time>2014-10-12T08:09:25Z</time>
      </trkpt>
      <trkpt lat="41.652120774" lon="2.460712416">
        <ele>298.15</ele>
        <time>2014-10-12T08:09:34Z</time>
      </trkpt>
      <trkpt lat="41.652137538" lon="2.460874438">
        <ele>298.63</ele>
        <time>2014-10-12T08:09:42Z</time>
      </trkpt>
      <trkpt lat="41.652157403" lon="2.460946020">
        <ele>299.11</ele>
        <time>2014-10-12T08:09:46Z</time>
      </trkpt>
      <trkpt lat="41.652163941" lon="2.460998491">
        <ele>300.07</ele>
        <time>2014-10-12T08:09:49Z</time>
      </trkpt>
      <trkpt lat="41.652187075" lon="2.461202674">
        <ele>301.51</ele>
        <time>2014-10-12T08:09:58Z</time>
      </trkpt>
      <trkpt lat="41.652213645" lon="2.461349692">
        <ele>302.47</ele>
        <time>2014-10-12T08:10:05Z</time>
      </trkpt>
      <trkpt lat="41.652234768" lon="2.461592600">
        <ele>304.39</ele>
        <time>2014-10-12T08:10:14Z</time>
      </trkpt>
      <trkpt lat="41.652215741" lon="2.461783456">
        <ele>305.36</ele>
        <time>2014-10-12T08:10:22Z</time>
      </trkpt>
      <trkpt lat="41.652211131" lon="2.461998368">
        <ele>305.84</ele>
        <time>2014-10-12T08:10:30Z</time>
      </trkpt>
      <trkpt lat="41.652215405" lon="2.462201964">
        <ele>306.32</ele>
        <time>2014-10-12T08:10:38Z</time>
      </trkpt>
      <trkpt lat="41.652200486" lon="2.462372117">
        <ele>308.24</ele>
        <time>2014-10-12T08:10:46Z</time>
      </trkpt>
      <trkpt lat="41.652186069" lon="2.462438669">
        <ele>309.20</ele>
        <time>2014-10-12T08:10:49Z</time>
      </trkpt>
      <trkpt lat="41.652098226" lon="2.462609409">
        <ele>310.16</ele>
        <time>2014-10-12T08:10:57Z</time>
      </trkpt>
      <trkpt lat="41.652045840" lon="2.462792302">
        <ele>310.64</ele>
        <time>2014-10-12T08:11:04Z</time>
      </trkpt>
      <trkpt lat="41.652038212" lon="2.463049710">
        <ele>310.16</ele>
        <time>2014-10-12T08:11:12Z</time>
      </trkpt>
      <trkpt lat="41.652043828" lon="2.463228496">
        <ele>310.64</ele>
        <time>2014-10-12T08:11:18Z</time>
      </trkpt>
      <trkpt lat="41.652054473" lon="2.463338886">
        <ele>310.64</ele>
        <time>2014-10-12T08:11:24Z</time>
      </trkpt>
      <trkpt lat="41.652036536" lon="2.463507781">
        <ele>310.64</ele>
        <time>2014-10-12T08:11:31Z</time>
      </trkpt>
      <trkpt lat="41.652032764" lon="2.463748928">
        <ele>311.60</ele>
        <time>2014-10-12T08:11:39Z</time>
      </trkpt>
      <trkpt lat="41.652029746" lon="2.463826964">
        <ele>312.09</ele>
        <time>2014-10-12T08:11:42Z</time>
      </trkpt>
      <trkpt lat="41.651933103" lon="2.463980185">
        <ele>313.05</ele>
        <time>2014-10-12T08:11:49Z</time>
      </trkpt>
      <trkpt lat="41.651858085" lon="2.464104070">
        <ele>314.97</ele>
        <time>2014-10-12T08:11:56Z</time>
      </trkpt>
      <trkpt lat="41.651803183" lon="2.464281179">
        <ele>314.97</ele>
        <time>2014-10-12T08:12:03Z</time>
      </trkpt>
      <trkpt lat="41.651786503" lon="2.464424929">
        <ele>315.93</ele>
        <time>2014-10-12T08:12:10Z</time>
      </trkpt>
      <trkpt lat="41.651765297" lon="2.464718882">
        <ele>316.89</ele>
        <time>2014-10-12T08:12:20Z</time>
      </trkpt>
      <trkpt lat="41.651752641" lon="2.464931280">
        <ele>317.85</ele>
        <time>2014-10-12T08:12:27Z</time>
      </trkpt>
      <trkpt lat="41.651745097" lon="2.465167901">
        <ele>318.81</ele>
        <time>2014-10-12T08:12:35Z</time>
      </trkpt>
      <trkpt lat="41.651710144" lon="2.465337215">
        <ele>319.78</ele>
        <time>2014-10-12T08:12:42Z</time>
      </trkpt>
      <trkpt lat="41.651657254" lon="2.465483731">
        <ele>321.70</ele>
        <time>2014-10-12T08:12:49Z</time>
      </trkpt>
      <trkpt lat="41.651601263" lon="2.465584649">
        <ele>323.62</ele>
        <time>2014-10-12T08:12:54Z</time>
      </trkpt>
      <trkpt lat="41.651520127" lon="2.465720771">
        <ele>325.06</ele>
        <time>2014-10-12T08:13:02Z</time>
      </trkpt>
      <trkpt lat="41.651402864" lon="2.465813643">
        <ele>326.99</ele>
        <time>2014-10-12T08:13:11Z</time>
      </trkpt>
      <trkpt lat="41.651300437" lon="2.465819426">
        <ele>329.39</ele>
        <time>2014-10-12T08:13:19Z</time>
      </trkpt>
      <trkpt lat="41.651179821" lon="2.465778103">
        <ele>330.35</ele>
        <time>2014-10-12T08:13:28Z</time>
      </trkpt>
      <trkpt lat="41.651121567" lon="2.465717083">
        <ele>331.79</ele>
        <time>2014-10-12T08:13:35Z</time>
      </trkpt>
      <trkpt lat="41.651028360" lon="2.465654135">
        <ele>332.75</ele>
        <time>2014-10-12T08:13:42Z</time>
      </trkpt>
      <trkpt lat="41.650901794" lon="2.465591522">
        <ele>335.16</ele>
        <time>2014-10-12T08:13:52Z</time>
      </trkpt>
      <trkpt lat="41.650798696" lon="2.465517426">
        <ele>337.08</ele>
        <time>2014-10-12T08:14:01Z</time>
      </trkpt>
      <trkpt lat="41.650705657" lon="2.465466716">
        <ele>339.00</ele>
        <time>2014-10-12T08:14:08Z</time>
      </trkpt>
      <trkpt lat="41.650593591" lon="2.465512062">
        <ele>339.96</ele>
        <time>2014-10-12T08:14:16Z</time>
      </trkpt>
      <trkpt lat="41.650531900" lon="2.465614991">
        <ele>341.41</ele>
        <time>2014-10-12T08:14:24Z</time>
      </trkpt>
      <trkpt lat="41.650413715" lon="2.465744911">
        <ele>342.85</ele>
        <time>2014-10-12T08:14:35Z</time>
      </trkpt>
      <trkpt lat="41.650338697" lon="2.465864521">
        <ele>344.29</ele>
        <time>2014-10-12T08:14:43Z</time>
      </trkpt>
      <trkpt lat="41.650275246" lon="2.465975329">
        <ele>344.77</ele>
        <time>2014-10-12T08:14:50Z</time>
      </trkpt>
      <trkpt lat="41.650193020" lon="2.466098376">
        <ele>346.21</ele>
        <time>2014-10-12T08:14:59Z</time>
      </trkpt>
      <trkpt lat="41.650073242" lon="2.466201557">
        <ele>346.69</ele>
        <time>2014-10-12T08:15:08Z</time>
      </trkpt>
      <trkpt lat="41.649987160" lon="2.466233995">
        <ele>347.17</ele>
        <time>2014-10-12T08:15:14Z</time>
      </trkpt>
      <trkpt lat="41.649874591" lon="2.466251932">
        <ele>347.17</ele>
        <time>2014-10-12T08:15:22Z</time>
      </trkpt>
      <trkpt lat="41.649760346" lon="2.466243969">
        <ele>348.62</ele>
        <time>2014-10-12T08:15:30Z</time>
      </trkpt>
      <trkpt lat="41.649649370" lon="2.466276324">
        <ele>350.54</ele>
        <time>2014-10-12T08:15:38Z</time>
      </trkpt>
      <trkpt lat="41.649529927" lon="2.466347402">
        <ele>352.94</ele>
        <time>2014-10-12T08:15:47Z</time>
      </trkpt>
      <trkpt lat="41.649512745" lon="2.466366429">
        <ele>352.94</ele>
        <time>2014-10-12T08:15:49Z</time>
      </trkpt>
      <trkpt lat="41.649401768" lon="2.466494588">
        <ele>352.94</ele>
        <time>2014-10-12T08:15:58Z</time>
      </trkpt>
      <trkpt lat="41.649326247" lon="2.466615288">
        <ele>354.38</ele>
        <time>2014-10-12T08:16:07Z</time>
      </trkpt>
      <trkpt lat="41.649274531" lon="2.466815280">
        <ele>355.34</ele>
        <time>2014-10-12T08:16:16Z</time>
      </trkpt>
      <trkpt lat="41.649259527" lon="2.467026001">
        <ele>356.79</ele>
        <time>2014-10-12T08:16:26Z</time>
      </trkpt>
      <trkpt lat="41.649278219" lon="2.467123566">
        <ele>357.27</ele>
        <time>2014-10-12T08:16:34Z</time>
      </trkpt>
      <trkpt lat="41.649283583" lon="2.467101438">
        <ele>357.27</ele>
        <time>2014-10-12T08:16:43Z</time>
      </trkpt>
      <trkpt lat="41.649278387" lon="2.467120297">
        <ele>357.27</ele>
        <time>2014-10-12T08:16:56Z</time>
      </trkpt>
      <trkpt lat="41.649266736" lon="2.467120297">
        <ele>357.27</ele>
        <time>2014-10-12T08:17:06Z</time>
      </trkpt>
      <trkpt lat="41.649264640" lon="2.467080651">
        <ele>357.27</ele>
        <time>2014-10-12T08:17:09Z</time>
      </trkpt>
      <trkpt lat="41.649269418" lon="2.466857525">
        <ele>357.27</ele>
        <time>2014-10-12T08:17:16Z</time>
      </trkpt>
      <trkpt lat="41.649285595" lon="2.466752751">
        <ele>355.83</ele>
        <time>2014-10-12T08:17:18Z</time>
      </trkpt>
      <trkpt lat="41.649398248" lon="2.466528284">
        <ele>353.90</ele>
        <time>2014-10-12T08:17:23Z</time>
      </trkpt>
      <trkpt lat="41.649431775" lon="2.466396688">
        <ele>353.42</ele>
        <time>2014-10-12T08:17:27Z</time>
      </trkpt>
      <trkpt lat="41.649403864" lon="2.466363998">
        <ele>353.42</ele>
        <time>2014-10-12T08:17:29Z</time>
      </trkpt>
      <trkpt lat="41.649257180" lon="2.466215722">
        <ele>352.46</ele>
        <time>2014-10-12T08:17:37Z</time>
      </trkpt>
      <trkpt lat="41.649196747" lon="2.465764776">
        <ele>351.02</ele>
        <time>2014-10-12T08:17:44Z</time>
      </trkpt>
      <trkpt lat="41.649175289" lon="2.465638545">
        <ele>350.54</ele>
        <time>2014-10-12T08:17:46Z</time>
      </trkpt>
      <trkpt lat="41.649075461" lon="2.465581967">
        <ele>350.54</ele>
        <time>2014-10-12T08:17:50Z</time>
      </trkpt>
      <trkpt lat="41.649055679" lon="2.465598647">
        <ele>350.54</ele>
        <time>2014-10-12T08:17:51Z</time>
      </trkpt>
      <trkpt lat="41.649015530" lon="2.465639299">
        <ele>351.98</ele>
        <time>2014-10-12T08:17:55Z</time>
      </trkpt>
      <trkpt lat="41.648997677" lon="2.465659918">
        <ele>352.94</ele>
        <time>2014-10-12T08:17:57Z</time>
      </trkpt>
      <trkpt lat="41.648967586" lon="2.465675593">
        <ele>353.90</ele>
        <time>2014-10-12T08:18:00Z</time>
      </trkpt>
      <trkpt lat="41.648923497" lon="2.465691686">
        <ele>355.34</ele>
        <time>2014-10-12T08:18:04Z</time>
      </trkpt>
      <trkpt lat="41.648867506" lon="2.465681795">
        <ele>355.83</ele>
        <time>2014-10-12T08:18:08Z</time>
      </trkpt>
      <trkpt lat="41.648773461" lon="2.465653213">
        <ele>356.31</ele>
        <time>2014-10-12T08:18:17Z</time>
      </trkpt>
      <trkpt lat="41.648773964" lon="2.465669222">
        <ele>356.31</ele>
        <time>2014-10-12T08:18:26Z</time>
      </trkpt>
      <trkpt lat="41.648775724" lon="2.465671988">
        <ele>356.31</ele>
        <time>2014-10-12T08:18:27Z</time>
      </trkpt>
      <trkpt lat="41.648825512" lon="2.465695541">
        <ele>356.31</ele>
        <time>2014-10-12T08:18:32Z</time>
      </trkpt>
      <trkpt lat="41.648869098" lon="2.465700738">
        <ele>356.31</ele>
        <time>2014-10-12T08:18:40Z</time>
      </trkpt>
      <trkpt lat="41.648929783" lon="2.465672407">
        <ele>354.86</ele>
        <time>2014-10-12T08:18:44Z</time>
      </trkpt>
      <trkpt lat="41.649029276" lon="2.465530669">
        <ele>351.98</ele>
        <time>2014-10-12T08:18:49Z</time>
      </trkpt>
      <trkpt lat="41.649107731" lon="2.465514576">
        <ele>350.54</ele>
        <time>2014-10-12T08:18:55Z</time>
      </trkpt>
      <trkpt lat="41.649113431" lon="2.465523712">
        <ele>350.54</ele>
        <time>2014-10-12T08:18:56Z</time>
      </trkpt>
      <trkpt lat="41.649140001" lon="2.465654219">
        <ele>351.02</ele>
        <time>2014-10-12T08:19:03Z</time>
      </trkpt>
      <trkpt lat="41.649146791" lon="2.465673329">
        <ele>351.02</ele>
        <time>2014-10-12T08:19:04Z</time>
      </trkpt>
      <trkpt lat="41.649196831" lon="2.465867287">
        <ele>351.02</ele>
        <time>2014-10-12T08:19:12Z</time>
      </trkpt>
      <trkpt lat="41.649244859" lon="2.466049928">
        <ele>352.46</ele>
        <time>2014-10-12T08:19:18Z</time>
      </trkpt>
      <trkpt lat="41.649355332" lon="2.466234163">
        <ele>353.90</ele>
        <time>2014-10-12T08:19:27Z</time>
      </trkpt>
      <trkpt lat="41.649446025" lon="2.466304738">
        <ele>353.90</ele>
        <time>2014-10-12T08:19:33Z</time>
      </trkpt>
      <trkpt lat="41.649419119" lon="2.466432395">
        <ele>354.86</ele>
        <time>2014-10-12T08:19:39Z</time>
      </trkpt>
      <trkpt lat="41.649363128" lon="2.466501461">
        <ele>354.86</ele>
        <time>2014-10-12T08:19:43Z</time>
      </trkpt>
      <trkpt lat="41.649314596" lon="2.466640098">
        <ele>355.83</ele>
        <time>2014-10-12T08:19:50Z</time>
      </trkpt>
      <trkpt lat="41.649275956" lon="2.466890466">
        <ele>357.27</ele>
        <time>2014-10-12T08:19:59Z</time>
      </trkpt>
      <trkpt lat="41.649279560" lon="2.467107305">
        <ele>358.71</ele>
        <time>2014-10-12T08:20:08Z</time>
      </trkpt>
      <trkpt lat="41.649348543" lon="2.467290618">
        <ele>359.19</ele>
        <time>2014-10-12T08:20:15Z</time>
      </trkpt>
      <trkpt lat="41.649501848" lon="2.467494717">
        <ele>359.19</ele>
        <time>2014-10-12T08:20:23Z</time>
      </trkpt>
      <trkpt lat="41.649638641" lon="2.467688758">
        <ele>359.19</ele>
        <time>2014-10-12T08:20:31Z</time>
      </trkpt>
      <trkpt lat="41.649788844" lon="2.467883386">
        <ele>359.67</ele>
        <time>2014-10-12T08:20:40Z</time>
      </trkpt>
      <trkpt lat="41.649858414" lon="2.468071979">
        <ele>358.23</ele>
        <time>2014-10-12T08:20:44Z</time>
      </trkpt>
      <trkpt lat="41.649876687" lon="2.468261577">
        <ele>357.27</ele>
        <time>2014-10-12T08:20:49Z</time>
      </trkpt>
      <trkpt lat="41.649855229" lon="2.468316730">
        <ele>356.79</ele>
        <time>2014-10-12T08:20:52Z</time>
      </trkpt>
      <trkpt lat="41.649702511" lon="2.468423683">
        <ele>357.27</ele>
        <time>2014-10-12T08:21:00Z</time>
      </trkpt>
      <trkpt lat="41.649562952" lon="2.468414296">
        <ele>357.27</ele>
        <time>2014-10-12T08:21:07Z</time>
      </trkpt>
      <trkpt lat="41.649419622" lon="2.468309606">
        <ele>357.27</ele>
        <time>2014-10-12T08:21:14Z</time>
      </trkpt>
      <trkpt lat="41.649364720" lon="2.468249591">
        <ele>358.71</ele>
        <time>2014-10-12T08:21:17Z</time>
      </trkpt>
      <trkpt lat="41.649273609" lon="2.468152529">
        <ele>359.19</ele>
        <time>2014-10-12T08:21:23Z</time>
      </trkpt>
      <trkpt lat="41.649208733" lon="2.468021436">
        <ele>360.15</ele>
        <time>2014-10-12T08:21:29Z</time>
      </trkpt>
      <trkpt lat="41.649066660" lon="2.467866790">
        <ele>362.07</ele>
        <time>2014-10-12T08:21:37Z</time>
      </trkpt>
      <trkpt lat="41.648916288" lon="2.467749443">
        <ele>362.55</ele>
        <time>2014-10-12T08:21:44Z</time>
      </trkpt>
      <trkpt lat="41.648756026" lon="2.467644669">
        <ele>364.00</ele>
        <time>2014-10-12T08:21:52Z</time>
      </trkpt>
      <trkpt lat="41.648594926" lon="2.467532268">
        <ele>366.88</ele>
        <time>2014-10-12T08:22:01Z</time>
      </trkpt>
      <trkpt lat="41.648434077" lon="2.467398577">
        <ele>368.32</ele>
        <time>2014-10-12T08:22:10Z</time>
      </trkpt>
      <trkpt lat="41.648280018" lon="2.467282822">
        <ele>369.76</ele>
        <time>2014-10-12T08:22:20Z</time>
      </trkpt>
      <trkpt lat="41.648142555" lon="2.467184754">
        <ele>371.69</ele>
        <time>2014-10-12T08:22:28Z</time>
      </trkpt>
      <trkpt lat="41.648002577" lon="2.467095487">
        <ele>374.09</ele>
        <time>2014-10-12T08:22:36Z</time>
      </trkpt>
      <trkpt lat="41.647882883" lon="2.466960203">
        <ele>376.01</ele>
        <time>2014-10-12T08:22:44Z</time>
      </trkpt>
      <trkpt lat="41.647788671" lon="2.466869092">
        <ele>376.97</ele>
        <time>2014-10-12T08:22:51Z</time>
      </trkpt>
      <trkpt lat="41.647652046" lon="2.466812765">
        <ele>377.94</ele>
        <time>2014-10-12T08:22:59Z</time>
      </trkpt>
      <trkpt lat="41.647545512" lon="2.466786195">
        <ele>378.90</ele>
        <time>2014-10-12T08:23:06Z</time>
      </trkpt>
      <trkpt lat="41.647410228" lon="2.466765491">
        <ele>381.78</ele>
        <time>2014-10-12T08:23:16Z</time>
      </trkpt>
      <trkpt lat="41.647304951" lon="2.466742022">
        <ele>383.22</ele>
        <time>2014-10-12T08:23:24Z</time>
      </trkpt>
      <trkpt lat="41.647181653" lon="2.466722157">
        <ele>384.66</ele>
        <time>2014-10-12T08:23:33Z</time>
      </trkpt>
      <trkpt lat="41.647063972" lon="2.466682511">
        <ele>387.07</ele>
        <time>2014-10-12T08:23:44Z</time>
      </trkpt>
      <trkpt lat="41.647004628" lon="2.466670692">
        <ele>388.51</ele>
        <time>2014-10-12T08:23:50Z</time>
      </trkpt>
      <trkpt lat="41.646987110" lon="2.466719223">
        <ele>388.99</ele>
        <time>2014-10-12T08:23:54Z</time>
      </trkpt>
      <trkpt lat="41.646944529" lon="2.466854759">
        <ele>389.47</ele>
        <time>2014-10-12T08:24:02Z</time>
      </trkpt>
      <trkpt lat="41.646909996" lon="2.466987612">
        <ele>389.95</ele>
        <time>2014-10-12T08:24:09Z</time>
      </trkpt>
      <trkpt lat="41.646869344" lon="2.467173271">
        <ele>389.95</ele>
        <time>2014-10-12T08:24:18Z</time>
      </trkpt>
      <trkpt lat="41.646836654" lon="2.467360187">
        <ele>390.91</ele>
        <time>2014-10-12T08:24:27Z</time>
      </trkpt>
      <trkpt lat="41.646839588" lon="2.467518019">
        <ele>391.39</ele>
        <time>2014-10-12T08:24:35Z</time>
      </trkpt>
      <trkpt lat="41.646869428" lon="2.467703426">
        <ele>392.36</ele>
        <time>2014-10-12T08:24:43Z</time>
      </trkpt>
      <trkpt lat="41.646873032" lon="2.467871232">
        <ele>393.32</ele>
        <time>2014-10-12T08:24:50Z</time>
      </trkpt>
      <trkpt lat="41.646883090" lon="2.468098382">
        <ele>396.68</ele>
        <time>2014-10-12T08:24:59Z</time>
      </trkpt>
      <trkpt lat="41.646905637" lon="2.468306337">
        <ele>398.12</ele>
        <time>2014-10-12T08:25:08Z</time>
      </trkpt>
      <trkpt lat="41.646912343" lon="2.468491325">
        <ele>398.60</ele>
        <time>2014-10-12T08:25:16Z</time>
      </trkpt>
      <trkpt lat="41.646896669" lon="2.468570450">
        <ele>398.60</ele>
        <time>2014-10-12T08:25:19Z</time>
      </trkpt>
      <trkpt lat="41.646728779" lon="2.468554860">
        <ele>397.16</ele>
        <time>2014-10-12T08:25:25Z</time>
      </trkpt>
      <trkpt lat="41.646536247" lon="2.468516639">
        <ele>397.16</ele>
        <time>2014-10-12T08:25:32Z</time>
      </trkpt>
      <trkpt lat="41.646423343" lon="2.468661310">
        <ele>396.68</ele>
        <time>2014-10-12T08:25:38Z</time>
      </trkpt>
      <trkpt lat="41.646326196" lon="2.468931543">
        <ele>396.20</ele>
        <time>2014-10-12T08:25:44Z</time>
      </trkpt>
      <trkpt lat="41.646235001" lon="2.469199764">
        <ele>396.20</ele>
        <time>2014-10-12T08:25:51Z</time>
      </trkpt>
      <trkpt lat="41.646128300" lon="2.469477289">
        <ele>395.72</ele>
        <time>2014-10-12T08:25:58Z</time>
      </trkpt>
      <trkpt lat="41.646050683" lon="2.469694715">
        <ele>396.20</ele>
        <time>2014-10-12T08:26:05Z</time>
      </trkpt>
      <trkpt lat="41.646033500" lon="2.469863778">
        <ele>397.64</ele>
        <time>2014-10-12T08:26:11Z</time>
      </trkpt>
      <trkpt lat="41.646097370" lon="2.470096711">
        <ele>398.60</ele>
        <time>2014-10-12T08:26:18Z</time>
      </trkpt>
      <trkpt lat="41.646139531" lon="2.470336601">
        <ele>397.16</ele>
        <time>2014-10-12T08:26:23Z</time>
      </trkpt>
      <trkpt lat="41.646090162" lon="2.470643295">
        <ele>394.76</ele>
        <time>2014-10-12T08:26:29Z</time>
      </trkpt>
      <trkpt lat="41.646054455" lon="2.470836330">
        <ele>396.68</ele>
        <time>2014-10-12T08:26:35Z</time>
      </trkpt>
      <trkpt lat="41.646043559" lon="2.471056104">
        <ele>399.57</ele>
        <time>2014-10-12T08:26:43Z</time>
      </trkpt>
      <trkpt lat="41.645962673" lon="2.471223910">
        <ele>400.05</ele>
        <time>2014-10-12T08:26:50Z</time>
      </trkpt>
      <trkpt lat="41.645932918" lon="2.471259616">
        <ele>400.05</ele>
        <time>2014-10-12T08:26:51Z</time>
      </trkpt>
      <trkpt lat="41.645889751" lon="2.471505625">
        <ele>399.08</ele>
        <time>2014-10-12T08:26:56Z</time>
      </trkpt>
      <trkpt lat="41.645916992" lon="2.471669156">
        <ele>400.05</ele>
        <time>2014-10-12T08:27:01Z</time>
      </trkpt>
      <trkpt lat="41.645947083" lon="2.471845009">
        <ele>402.45</ele>
        <time>2014-10-12T08:27:08Z</time>
      </trkpt>
      <trkpt lat="41.645946831" lon="2.471934443">
        <ele>403.41</ele>
        <time>2014-10-12T08:27:12Z</time>
      </trkpt>
      <trkpt lat="41.645936186" lon="2.472133178">
        <ele>405.81</ele>
        <time>2014-10-12T08:27:22Z</time>
      </trkpt>
      <trkpt lat="41.645928307" lon="2.472289082">
        <ele>407.26</ele>
        <time>2014-10-12T08:27:30Z</time>
      </trkpt>
      <trkpt lat="41.645926044" lon="2.472362759">
        <ele>408.22</ele>
        <time>2014-10-12T08:27:34Z</time>
      </trkpt>
      <trkpt lat="41.645876591" lon="2.472561158">
        <ele>411.10</ele>
        <time>2014-10-12T08:27:44Z</time>
      </trkpt>
      <trkpt lat="41.645845075" lon="2.472714799">
        <ele>412.54</ele>
        <time>2014-10-12T08:27:52Z</time>
      </trkpt>
      <trkpt lat="41.645812050" lon="2.472892076">
        <ele>413.02</ele>
        <time>2014-10-12T08:27:59Z</time>
      </trkpt>
      <trkpt lat="41.645763016" lon="2.473221485">
        <ele>410.14</ele>
        <time>2014-10-12T08:28:05Z</time>
      </trkpt>
      <trkpt lat="41.645726974" lon="2.473346710">
        <ele>409.66</ele>
        <time>2014-10-12T08:28:07Z</time>
      </trkpt>
      <trkpt lat="41.645640808" lon="2.473569669">
        <ele>409.66</ele>
        <time>2014-10-12T08:28:13Z</time>
      </trkpt>
      <trkpt lat="41.645554056" lon="2.473759687">
        <ele>409.66</ele>
        <time>2014-10-12T08:28:21Z</time>
      </trkpt>
      <trkpt lat="41.645538465" lon="2.473981388">
        <ele>409.18</ele>
        <time>2014-10-12T08:28:27Z</time>
      </trkpt>
      <trkpt lat="41.645530670" lon="2.474127401">
        <ele>405.33</ele>
        <time>2014-10-12T08:28:32Z</time>
      </trkpt>
      <trkpt lat="41.645532514" lon="2.474151457">
        <ele>404.85</ele>
        <time>2014-10-12T08:28:33Z</time>
      </trkpt>
      <trkpt lat="41.645499322" lon="2.474366704">
        <ele>402.45</ele>
        <time>2014-10-12T08:28:38Z</time>
      </trkpt>
      <trkpt lat="41.645361272" lon="2.474554962">
        <ele>401.49</ele>
        <time>2014-10-12T08:28:44Z</time>
      </trkpt>
      <trkpt lat="41.645187096" lon="2.474575749">
        <ele>401.01</ele>
        <time>2014-10-12T08:28:49Z</time>
      </trkpt>
      <trkpt lat="41.644995737" lon="2.474584298">
        <ele>401.49</ele>
        <time>2014-10-12T08:28:55Z</time>
      </trkpt>
      <trkpt lat="41.644852825" lon="2.474542976">
        <ele>401.01</ele>
        <time>2014-10-12T08:28:59Z</time>
      </trkpt>
      <trkpt lat="41.644645625" lon="2.474621346">
        <ele>400.05</ele>
        <time>2014-10-12T08:29:05Z</time>
      </trkpt>
      <trkpt lat="41.644613103" lon="2.474826535">
        <ele>400.05</ele>
        <time>2014-10-12T08:29:10Z</time>
      </trkpt>
      <trkpt lat="41.644564153" lon="2.475027869">
        <ele>401.97</ele>
        <time>2014-10-12T08:29:17Z</time>
      </trkpt>
      <trkpt lat="41.644536744" lon="2.475209085">
        <ele>402.45</ele>
        <time>2014-10-12T08:29:23Z</time>
      </trkpt>
      <trkpt lat="41.644474885" lon="2.475442270">
        <ele>403.41</ele>
        <time>2014-10-12T08:29:31Z</time>
      </trkpt>
      <trkpt lat="41.644375727" lon="2.475645783">
        <ele>404.37</ele>
        <time>2014-10-12T08:29:39Z</time>
      </trkpt>
      <trkpt lat="41.644256788" lon="2.475773187">
        <ele>405.81</ele>
        <time>2014-10-12T08:29:47Z</time>
      </trkpt>
      <trkpt lat="41.644237426" lon="2.475804871">
        <ele>406.29</ele>
        <time>2014-10-12T08:29:49Z</time>
      </trkpt>
      <trkpt lat="41.644188811" lon="2.476003857">
        <ele>407.26</ele>
        <time>2014-10-12T08:29:56Z</time>
      </trkpt>
      <trkpt lat="41.644111195" lon="2.476163114">
        <ele>409.18</ele>
        <time>2014-10-12T08:30:04Z</time>
      </trkpt>
      <trkpt lat="41.644187805" lon="2.476284651">
        <ele>410.14</ele>
        <time>2014-10-12T08:30:11Z</time>
      </trkpt>
      <trkpt lat="41.644218232" lon="2.476429407">
        <ele>411.58</ele>
        <time>2014-10-12T08:30:17Z</time>
      </trkpt>
      <trkpt lat="41.644251843" lon="2.476632249">
        <ele>412.06</ele>
        <time>2014-10-12T08:30:25Z</time>
      </trkpt>
      <trkpt lat="41.644242958" lon="2.476848669">
        <ele>413.02</ele>
        <time>2014-10-12T08:30:33Z</time>
      </trkpt>
      <trkpt lat="41.644227368" lon="2.476935506">
        <ele>413.98</ele>
        <time>2014-10-12T08:30:37Z</time>
      </trkpt>
      <trkpt lat="41.644105495" lon="2.476993593">
        <ele>414.47</ele>
        <time>2014-10-12T08:30:44Z</time>
      </trkpt>
      <trkpt lat="41.643958644" lon="2.477055954">
        <ele>416.39</ele>
        <time>2014-10-12T08:30:53Z</time>
      </trkpt>
      <trkpt lat="41.643879100" lon="2.477212109">
        <ele>417.35</ele>
        <time>2014-10-12T08:31:01Z</time>
      </trkpt>
      <trkpt lat="41.643827048" lon="2.477400199">
        <ele>418.79</ele>
        <time>2014-10-12T08:31:08Z</time>
      </trkpt>
      <trkpt lat="41.643772230" lon="2.477566915">
        <ele>419.75</ele>
        <time>2014-10-12T08:31:16Z</time>
      </trkpt>
      <trkpt lat="41.643664439" lon="2.477756513">
        <ele>421.68</ele>
        <time>2014-10-12T08:31:26Z</time>
      </trkpt>
      <trkpt lat="41.643578106" lon="2.477813929">
        <ele>422.64</ele>
        <time>2014-10-12T08:31:32Z</time>
      </trkpt>
      <trkpt lat="41.643448940" lon="2.477796160">
        <ele>423.60</ele>
        <time>2014-10-12T08:31:40Z</time>
      </trkpt>
      <trkpt lat="41.643322290" lon="2.477805045">
        <ele>425.04</ele>
        <time>2014-10-12T08:31:48Z</time>
      </trkpt>
      <trkpt lat="41.643212319" lon="2.477818372">
        <ele>426.48</ele>
        <time>2014-10-12T08:31:57Z</time>
      </trkpt>
      <trkpt lat="41.643194633" lon="2.477814013">
        <ele>426.48</ele>
        <time>2014-10-12T08:32:06Z</time>
      </trkpt>
      <trkpt lat="41.643184910" lon="2.477824658">
        <ele>426.48</ele>
        <time>2014-10-12T08:32:12Z</time>
      </trkpt>
      <trkpt lat="41.643160687" lon="2.477952985">
        <ele>426.48</ele>
        <time>2014-10-12T08:32:19Z</time>
      </trkpt>
      <trkpt lat="41.643185581" lon="2.478134537">
        <ele>424.56</ele>
        <time>2014-10-12T08:32:25Z</time>
      </trkpt>
      <trkpt lat="41.643174685" lon="2.478326734">
        <ele>422.64</ele>
        <time>2014-10-12T08:32:31Z</time>
      </trkpt>
      <trkpt lat="41.643138475" lon="2.478426395">
        <ele>421.68</ele>
        <time>2014-10-12T08:32:38Z</time>
      </trkpt>
      <trkpt lat="41.643092793" lon="2.478485488">
        <ele>421.19</ele>
        <time>2014-10-12T08:32:47Z</time>
      </trkpt>
      <trkpt lat="41.643024732" lon="2.478545921">
        <ele>421.19</ele>
        <time>2014-10-12T08:32:53Z</time>
      </trkpt>
      <trkpt lat="41.643025654" lon="2.478558159">
        <ele>421.19</ele>
        <time>2014-10-12T08:33:08Z</time>
      </trkpt>
      <trkpt lat="41.643044178" lon="2.478554135">
        <ele>421.19</ele>
        <time>2014-10-12T08:33:15Z</time>
      </trkpt>
      <trkpt lat="41.643055913" lon="2.478542736">
        <ele>421.19</ele>
        <time>2014-10-12T08:33:19Z</time>
      </trkpt>
      <trkpt lat="41.643143336" lon="2.478422456">
        <ele>421.19</ele>
        <time>2014-10-12T08:33:29Z</time>
      </trkpt>
      <trkpt lat="41.643170577" lon="2.478283232">
        <ele>423.12</ele>
        <time>2014-10-12T08:33:37Z</time>
      </trkpt>
      <trkpt lat="41.643169404" lon="2.478113499">
        <ele>424.08</ele>
        <time>2014-10-12T08:33:46Z</time>
      </trkpt>
      <trkpt lat="41.643153814" lon="2.477986932">
        <ele>425.52</ele>
        <time>2014-10-12T08:33:54Z</time>
      </trkpt>
      <trkpt lat="41.643167560" lon="2.477834297">
        <ele>426.48</ele>
        <time>2014-10-12T08:34:02Z</time>
      </trkpt>
      <trkpt lat="41.643200501" lon="2.477778893">
        <ele>426.48</ele>
        <time>2014-10-12T08:34:06Z</time>
      </trkpt>
      <trkpt lat="41.643321284" lon="2.477704462">
        <ele>428.89</ele>
        <time>2014-10-12T08:34:17Z</time>
      </trkpt>
      <trkpt lat="41.643425974" lon="2.477576973">
        <ele>431.29</ele>
        <time>2014-10-12T08:34:27Z</time>
      </trkpt>
      <trkpt lat="41.643447180" lon="2.477420315">
        <ele>433.21</ele>
        <time>2014-10-12T08:34:36Z</time>
      </trkpt>
      <trkpt lat="41.643431841" lon="2.477294251">
        <ele>434.17</ele>
        <time>2014-10-12T08:34:43Z</time>
      </trkpt>
      <trkpt lat="41.643409713" lon="2.477142623">
        <ele>435.13</ele>
        <time>2014-10-12T08:34:51Z</time>
      </trkpt>
      <trkpt lat="41.643424968" lon="2.476994766">
        <ele>436.10</ele>
        <time>2014-10-12T08:34:59Z</time>
      </trkpt>
      <trkpt lat="41.643463190" lon="2.476777759">
        <ele>437.54</ele>
        <time>2014-10-12T08:35:11Z</time>
      </trkpt>
      <trkpt lat="41.643538040" lon="2.476571899">
        <ele>438.50</ele>
        <time>2014-10-12T08:35:20Z</time>
      </trkpt>
      <trkpt lat="41.643475679" lon="2.476314072">
        <ele>438.50</ele>
        <time>2014-10-12T08:35:28Z</time>
      </trkpt>
      <trkpt lat="41.643433350" lon="2.476214998">
        <ele>437.06</ele>
        <time>2014-10-12T08:35:31Z</time>
      </trkpt>
      <trkpt lat="41.643401247" lon="2.476038391">
        <ele>438.50</ele>
        <time>2014-10-12T08:35:38Z</time>
      </trkpt>
      <trkpt lat="41.643386914" lon="2.475859521">
        <ele>438.50</ele>
        <time>2014-10-12T08:35:44Z</time>
      </trkpt>
      <trkpt lat="41.643468889" lon="2.475678891">
        <ele>438.98</ele>
        <time>2014-10-12T08:35:52Z</time>
      </trkpt>
      <trkpt lat="41.643512643" lon="2.475466661">
        <ele>439.46</ele>
        <time>2014-10-12T08:36:00Z</time>
      </trkpt>
      <trkpt lat="41.643575340" lon="2.475251749">
        <ele>439.94</ele>
        <time>2014-10-12T08:36:07Z</time>
      </trkpt>
      <trkpt lat="41.643681538" lon="2.475080423">
        <ele>440.42</ele>
        <time>2014-10-12T08:36:15Z</time>
      </trkpt>
      <trkpt lat="41.643702828" lon="2.474973470">
        <ele>440.90</ele>
        <time>2014-10-12T08:36:21Z</time>
      </trkpt>
      <trkpt lat="41.643669468" lon="2.474892249">
        <ele>442.82</ele>
        <time>2014-10-12T08:36:26Z</time>
      </trkpt>
      <trkpt lat="41.643608448" lon="2.474841958">
        <ele>445.23</ele>
        <time>2014-10-12T08:36:33Z</time>
      </trkpt>
      <trkpt lat="41.643565449" lon="2.474824440">
        <ele>446.67</ele>
        <time>2014-10-12T08:36:38Z</time>
      </trkpt>
      <trkpt lat="41.643546673" lon="2.474828547">
        <ele>447.15</ele>
        <time>2014-10-12T08:36:40Z</time>
      </trkpt>
      <trkpt lat="41.643507530" lon="2.474860063">
        <ele>447.63</ele>
        <time>2014-10-12T08:36:44Z</time>
      </trkpt>
      <trkpt lat="41.643406612" lon="2.474898117">
        <ele>450.03</ele>
        <time>2014-10-12T08:36:54Z</time>
      </trkpt>
      <trkpt lat="41.643394374" lon="2.474901470">
        <ele>450.52</ele>
        <time>2014-10-12T08:36:55Z</time>
      </trkpt>
      <trkpt lat="41.643313237" lon="2.474965088">
        <ele>451.48</ele>
        <time>2014-10-12T08:37:04Z</time>
      </trkpt>
      <trkpt lat="41.643245176" lon="2.475036837">
        <ele>452.92</ele>
        <time>2014-10-12T08:37:13Z</time>
      </trkpt>
      <trkpt lat="41.643240315" lon="2.475046560">
        <ele>452.92</ele>
        <time>2014-10-12T08:37:14Z</time>
      </trkpt>
      <trkpt lat="41.643181139" lon="2.475159716">
        <ele>454.36</ele>
        <time>2014-10-12T08:37:24Z</time>
      </trkpt>
      <trkpt lat="41.643124226" lon="2.475266082">
        <ele>454.36</ele>
        <time>2014-10-12T08:37:32Z</time>
      </trkpt>
      <trkpt lat="41.643031773" lon="2.475399774">
        <ele>455.32</ele>
        <time>2014-10-12T08:37:42Z</time>
      </trkpt>
      <trkpt lat="41.642971423" lon="2.475538243">
        <ele>456.28</ele>
        <time>2014-10-12T08:37:51Z</time>
      </trkpt>
      <trkpt lat="41.642943093" lon="2.475681489">
        <ele>457.24</ele>
        <time>2014-10-12T08:37:59Z</time>
      </trkpt>
      <trkpt lat="41.642939069" lon="2.475827502">
        <ele>457.24</ele>
        <time>2014-10-12T08:38:07Z</time>
      </trkpt>
      <trkpt lat="41.642909984" lon="2.475945855">
        <ele>458.21</ele>
        <time>2014-10-12T08:38:14Z</time>
      </trkpt>
      <trkpt lat="41.642836726" lon="2.476078875">
        <ele>460.61</ele>
        <time>2014-10-12T08:38:23Z</time>
      </trkpt>
      <trkpt lat="41.642780819" lon="2.476215249">
        <ele>461.09</ele>
        <time>2014-10-12T08:38:31Z</time>
      </trkpt>
      <trkpt lat="41.642741675" lon="2.476352126">
        <ele>463.01</ele>
        <time>2014-10-12T08:38:38Z</time>
      </trkpt>
      <trkpt lat="41.642724409" lon="2.476379786">
        <ele>463.49</ele>
        <time>2014-10-12T08:38:40Z</time>
      </trkpt>
      <trkpt lat="41.642656180" lon="2.476567289">
        <ele>464.93</ele>
        <time>2014-10-12T08:38:51Z</time>
      </trkpt>
      <trkpt lat="41.642600608" lon="2.476693185">
        <ele>466.38</ele>
        <time>2014-10-12T08:38:59Z</time>
      </trkpt>
      <trkpt lat="41.642536570" lon="2.476818662">
        <ele>466.86</ele>
        <time>2014-10-12T08:39:07Z</time>
      </trkpt>
      <trkpt lat="41.642479909" lon="2.476964926">
        <ele>466.86</ele>
        <time>2014-10-12T08:39:14Z</time>
      </trkpt>
      <trkpt lat="41.642374213" lon="2.477168942">
        <ele>467.82</ele>
        <time>2014-10-12T08:39:24Z</time>
      </trkpt>
      <trkpt lat="41.642259967" lon="2.477316044">
        <ele>468.78</ele>
        <time>2014-10-12T08:39:33Z</time>
      </trkpt>
      <trkpt lat="41.642159217" lon="2.477408832">
        <ele>470.22</ele>
        <time>2014-10-12T08:39:40Z</time>
      </trkpt>
      <trkpt lat="41.642047151" lon="2.477496255">
        <ele>472.14</ele>
        <time>2014-10-12T08:39:49Z</time>
      </trkpt>
      <trkpt lat="41.642034494" lon="2.477504973">
        <ele>472.63</ele>
        <time>2014-10-12T08:39:50Z</time>
      </trkpt>
      <trkpt lat="41.641971881" lon="2.477543781">
        <ele>473.59</ele>
        <time>2014-10-12T08:39:55Z</time>
      </trkpt>
      <trkpt lat="41.641894014" lon="2.477676634">
        <ele>475.99</ele>
        <time>2014-10-12T08:40:05Z</time>
      </trkpt>
      <trkpt lat="41.641828467" lon="2.477795657">
        <ele>476.95</ele>
        <time>2014-10-12T08:40:13Z</time>
      </trkpt>
      <trkpt lat="41.641732997" lon="2.477890792">
        <ele>478.87</ele>
        <time>2014-10-12T08:40:21Z</time>
      </trkpt>
      <trkpt lat="41.641612214" lon="2.477991039">
        <ele>480.80</ele>
        <time>2014-10-12T08:40:31Z</time>
      </trkpt>
      <trkpt lat="41.641598049" lon="2.477999170">
        <ele>480.80</ele>
        <time>2014-10-12T08:40:32Z</time>
      </trkpt>
      <trkpt lat="41.641497466" lon="2.478095478">
        <ele>481.76</ele>
        <time>2014-10-12T08:40:41Z</time>
      </trkpt>
      <trkpt lat="41.641426220" lon="2.478222966">
        <ele>482.24</ele>
        <time>2014-10-12T08:40:49Z</time>
      </trkpt>
      <trkpt lat="41.641343155" lon="2.478320615">
        <ele>482.24</ele>
        <time>2014-10-12T08:40:57Z</time>
      </trkpt>
      <trkpt lat="41.641320775" lon="2.478424048">
        <ele>482.24</ele>
        <time>2014-10-12T08:41:01Z</time>
      </trkpt>
      <trkpt lat="41.641340221" lon="2.478646001">
        <ele>482.24</ele>
        <time>2014-10-12T08:41:08Z</time>
      </trkpt>
      <trkpt lat="41.641333348" lon="2.478692018">
        <ele>482.24</ele>
        <time>2014-10-12T08:41:09Z</time>
      </trkpt>
      <trkpt lat="41.641294959" lon="2.478799893">
        <ele>480.80</ele>
        <time>2014-10-12T08:41:11Z</time>
      </trkpt>
      <trkpt lat="41.641163447" lon="2.478954371">
        <ele>478.39</ele>
        <time>2014-10-12T08:41:14Z</time>
      </trkpt>
      <trkpt lat="41.640886257" lon="2.479309848">
        <ele>475.51</ele>
        <time>2014-10-12T08:41:19Z</time>
      </trkpt>
      <trkpt lat="41.640688528" lon="2.479584942">
        <ele>475.03</ele>
        <time>2014-10-12T08:41:23Z</time>
      </trkpt>
      <trkpt lat="41.640556178" lon="2.479886104">
        <ele>474.55</ele>
        <time>2014-10-12T08:41:27Z</time>
      </trkpt>
      <trkpt lat="41.640484932" lon="2.480299164">
        <ele>474.55</ele>
        <time>2014-10-12T08:41:34Z</time>
      </trkpt>
      <trkpt lat="41.640406645" lon="2.480466886">
        <ele>476.47</ele>
        <time>2014-10-12T08:41:41Z</time>
      </trkpt>
      <trkpt lat="41.640299524" lon="2.480614156">
        <ele>477.91</ele>
        <time>2014-10-12T08:41:49Z</time>
      </trkpt>
      <trkpt lat="41.640173125" lon="2.480844909">
        <ele>477.91</ele>
        <time>2014-10-12T08:41:57Z</time>
      </trkpt>
      <trkpt lat="41.640066507" lon="2.481022271">
        <ele>476.47</ele>
        <time>2014-10-12T08:42:02Z</time>
      </trkpt>
      <trkpt lat="41.639993417" lon="2.481180353">
        <ele>474.55</ele>
        <time>2014-10-12T08:42:06Z</time>
      </trkpt>
      <trkpt lat="41.639969864" lon="2.481483778">
        <ele>474.07</ele>
        <time>2014-10-12T08:42:12Z</time>
      </trkpt>
      <trkpt lat="41.639976569" lon="2.481656697">
        <ele>473.59</ele>
        <time>2014-10-12T08:42:15Z</time>
      </trkpt>
      <trkpt lat="41.639877495" lon="2.481974790">
        <ele>473.11</ele>
        <time>2014-10-12T08:42:22Z</time>
      </trkpt>
      <trkpt lat="41.639682113" lon="2.482272096">
        <ele>471.18</ele>
        <time>2014-10-12T08:42:29Z</time>
      </trkpt>
      <trkpt lat="41.639461501" lon="2.482492121">
        <ele>471.18</ele>
        <time>2014-10-12T08:42:36Z</time>
      </trkpt>
      <trkpt lat="41.639311801" lon="2.482558757">
        <ele>471.18</ele>
        <time>2014-10-12T08:42:42Z</time>
      </trkpt>
      <trkpt lat="41.639162100" lon="2.482633189">
        <ele>472.14</ele>
        <time>2014-10-12T08:42:50Z</time>
      </trkpt>
      <trkpt lat="41.639038886" lon="2.482640565">
        <ele>473.11</ele>
        <time>2014-10-12T08:42:58Z</time>
      </trkpt>
      <trkpt lat="41.638952636" lon="2.482532438">
        <ele>474.55</ele>
        <time>2014-10-12T08:43:06Z</time>
      </trkpt>
      <trkpt lat="41.638902093" lon="2.482358178">
        <ele>475.51</ele>
        <time>2014-10-12T08:43:15Z</time>
      </trkpt>
      <trkpt lat="41.638822046" lon="2.482219290">
        <ele>477.91</ele>
        <time>2014-10-12T08:43:23Z</time>
      </trkpt>
      <trkpt lat="41.638708974" lon="2.482187774">
        <ele>479.35</ele>
        <time>2014-10-12T08:43:30Z</time>
      </trkpt>
      <trkpt lat="41.638575870" lon="2.482255416">
        <ele>481.28</ele>
        <time>2014-10-12T08:43:39Z</time>
      </trkpt>
      <trkpt lat="41.638480651" lon="2.482351640">
        <ele>483.20</ele>
        <time>2014-10-12T08:43:47Z</time>
      </trkpt>
      <trkpt lat="41.638369842" lon="2.482483236">
        <ele>484.64</ele>
        <time>2014-10-12T08:43:57Z</time>
      </trkpt>
      <trkpt lat="41.638300105" lon="2.482567139">
        <ele>485.60</ele>
        <time>2014-10-12T08:44:03Z</time>
      </trkpt>
      <trkpt lat="41.638195583" lon="2.482671745">
        <ele>487.05</ele>
        <time>2014-10-12T08:44:11Z</time>
      </trkpt>
      <trkpt lat="41.638089971" lon="2.482799150">
        <ele>488.97</ele>
        <time>2014-10-12T08:44:20Z</time>
      </trkpt>
      <trkpt lat="41.638043200" lon="2.482958658">
        <ele>490.41</ele>
        <time>2014-10-12T08:44:27Z</time>
      </trkpt>
      <trkpt lat="41.638018389" lon="2.483109532">
        <ele>491.85</ele>
        <time>2014-10-12T08:44:35Z</time>
      </trkpt>
      <trkpt lat="41.638003469" lon="2.483310530">
        <ele>495.22</ele>
        <time>2014-10-12T08:44:46Z</time>
      </trkpt>
      <trkpt lat="41.637998356" lon="2.483376915">
        <ele>495.70</ele>
        <time>2014-10-12T08:44:50Z</time>
      </trkpt>
      <trkpt lat="41.638018892" lon="2.483504906">
        <ele>497.14</ele>
        <time>2014-10-12T08:44:58Z</time>
      </trkpt>
      <trkpt lat="41.638029537" lon="2.483652176">
        <ele>497.62</ele>
        <time>2014-10-12T08:45:06Z</time>
      </trkpt>
      <trkpt lat="41.638024592" lon="2.483807493">
        <ele>499.06</ele>
        <time>2014-10-12T08:45:15Z</time>
      </trkpt>
      <trkpt lat="41.638015707" lon="2.483851414">
        <ele>499.06</ele>
        <time>2014-10-12T08:45:18Z</time>
      </trkpt>
      <trkpt lat="41.637995674" lon="2.483927522">
        <ele>499.54</ele>
        <time>2014-10-12T08:45:23Z</time>
      </trkpt>
      <trkpt lat="41.637951669" lon="2.483998433">
        <ele>500.02</ele>
        <time>2014-10-12T08:45:31Z</time>
      </trkpt>
      <trkpt lat="41.637929792" lon="2.484082084">
        <ele>500.02</ele>
        <time>2014-10-12T08:45:39Z</time>
      </trkpt>
      <trkpt lat="41.637915459" lon="2.484111337">
        <ele>500.50</ele>
        <time>2014-10-12T08:45:42Z</time>
      </trkpt>
      <trkpt lat="41.637889140" lon="2.484273527">
        <ele>500.98</ele>
        <time>2014-10-12T08:45:52Z</time>
      </trkpt>
      <trkpt lat="41.637882686" lon="2.484450553">
        <ele>502.43</ele>
        <time>2014-10-12T08:46:02Z</time>
      </trkpt>
      <trkpt lat="41.637880758" lon="2.484571755">
        <ele>503.39</ele>
        <time>2014-10-12T08:46:09Z</time>
      </trkpt>
      <trkpt lat="41.637806411" lon="2.484688012">
        <ele>504.35</ele>
        <time>2014-10-12T08:46:18Z</time>
      </trkpt>
      <trkpt lat="41.637753102" lon="2.484839892">
        <ele>506.27</ele>
        <time>2014-10-12T08:46:27Z</time>
      </trkpt>
      <trkpt lat="41.637738434" lon="2.485000322">
        <ele>506.27</ele>
        <time>2014-10-12T08:46:35Z</time>
      </trkpt>
      <trkpt lat="41.637751342" lon="2.485151950">
        <ele>507.23</ele>
        <time>2014-10-12T08:46:43Z</time>
      </trkpt>
      <trkpt lat="41.637795598" lon="2.485396534">
        <ele>507.23</ele>
        <time>2014-10-12T08:46:52Z</time>
      </trkpt>
      <trkpt lat="41.637756455" lon="2.485713286">
        <ele>507.23</ele>
        <time>2014-10-12T08:47:00Z</time>
      </trkpt>
      <trkpt lat="41.637728878" lon="2.486070523">
        <ele>506.27</ele>
        <time>2014-10-12T08:47:08Z</time>
      </trkpt>
      <trkpt lat="41.637713372" lon="2.486336146">
        <ele>505.79</ele>
        <time>2014-10-12T08:47:14Z</time>
      </trkpt>
      <trkpt lat="41.637732482" lon="2.486618867">
        <ele>505.31</ele>
        <time>2014-10-12T08:47:21Z</time>
      </trkpt>
      <trkpt lat="41.637752096" lon="2.486858338">
        <ele>505.31</ele>
        <time>2014-10-12T08:47:28Z</time>
      </trkpt>
      <trkpt lat="41.637664170" lon="2.487055816">
        <ele>505.31</ele>
        <time>2014-10-12T08:47:35Z</time>
      </trkpt>
      <trkpt lat="41.637519247" lon="2.487105604">
        <ele>506.75</ele>
        <time>2014-10-12T08:47:42Z</time>
      </trkpt>
      <trkpt lat="41.637322607" lon="2.487070065">
        <ele>507.71</ele>
        <time>2014-10-12T08:47:51Z</time>
      </trkpt>
      <trkpt lat="41.637159412" lon="2.487093786">
        <ele>508.67</ele>
        <time>2014-10-12T08:47:58Z</time>
      </trkpt>
      <trkpt lat="41.636894292" lon="2.487162685">
        <ele>508.67</ele>
        <time>2014-10-12T08:48:05Z</time>
      </trkpt>
      <trkpt lat="41.636858921" lon="2.487162518">
        <ele>508.67</ele>
        <time>2014-10-12T08:48:06Z</time>
      </trkpt>
      <trkpt lat="41.636642332" lon="2.487143491">
        <ele>507.23</ele>
        <time>2014-10-12T08:48:12Z</time>
      </trkpt>
      <trkpt lat="41.636421050" lon="2.487095798">
        <ele>507.23</ele>
        <time>2014-10-12T08:48:21Z</time>
      </trkpt>
      <trkpt lat="41.636368412" lon="2.487077944">
        <ele>508.67</ele>
        <time>2014-10-12T08:48:23Z</time>
      </trkpt>
      <trkpt lat="41.636093317" lon="2.487032011">
        <ele>509.16</ele>
        <time>2014-10-12T08:48:33Z</time>
      </trkpt>
      <trkpt lat="41.635887458" lon="2.486982307">
        <ele>509.16</ele>
        <time>2014-10-12T08:48:41Z</time>
      </trkpt>
      <trkpt lat="41.635666930" lon="2.486829505">
        <ele>509.64</ele>
        <time>2014-10-12T08:48:51Z</time>
      </trkpt>
      <trkpt lat="41.635594678" lon="2.486852722">
        <ele>510.12</ele>
        <time>2014-10-12T08:48:57Z</time>
      </trkpt>
      <trkpt lat="41.635577998" lon="2.486849621">
        <ele>510.12</ele>
        <time>2014-10-12T08:49:03Z</time>
      </trkpt>
      <trkpt lat="41.635506752" lon="2.486926064">
        <ele>510.12</ele>
        <time>2014-10-12T08:49:10Z</time>
      </trkpt>
      <trkpt lat="41.635370043" lon="2.487044249">
        <ele>510.12</ele>
        <time>2014-10-12T08:49:18Z</time>
      </trkpt>
      <trkpt lat="41.635317572" lon="2.487070903">
        <ele>510.12</ele>
        <time>2014-10-12T08:49:24Z</time>
      </trkpt>
      <trkpt lat="41.635281195" lon="2.487078950">
        <ele>510.60</ele>
        <time>2014-10-12T08:49:32Z</time>
      </trkpt>
      <trkpt lat="41.635255043" lon="2.487079956">
        <ele>510.60</ele>
        <time>2014-10-12T08:49:35Z</time>
      </trkpt>
      <trkpt lat="41.635198298" lon="2.487079956">
        <ele>511.08</ele>
        <time>2014-10-12T08:49:39Z</time>
      </trkpt>
      <trkpt lat="41.635069217" lon="2.487096552">
        <ele>512.04</ele>
        <time>2014-10-12T08:49:47Z</time>
      </trkpt>
      <trkpt lat="41.634909960" lon="2.487104431">
        <ele>512.52</ele>
        <time>2014-10-12T08:49:55Z</time>
      </trkpt>
      <trkpt lat="41.634784232" lon="2.487102671">
        <ele>513.48</ele>
        <time>2014-10-12T08:50:02Z</time>
      </trkpt>
      <trkpt lat="41.634676692" lon="2.487036957">
        <ele>513.96</ele>
        <time>2014-10-12T08:50:08Z</time>
      </trkpt>
      <trkpt lat="41.634573678" lon="2.487124967">
        <ele>513.96</ele>
        <time>2014-10-12T08:50:13Z</time>
      </trkpt>
      <trkpt lat="41.634566638" lon="2.487258155">
        <ele>513.96</ele>
        <time>2014-10-12T08:50:17Z</time>
      </trkpt>
      <trkpt lat="41.634556160" lon="2.487397127">
        <ele>514.44</ele>
        <time>2014-10-12T08:50:22Z</time>
      </trkpt>
      <trkpt lat="41.634501343" lon="2.487489663">
        <ele>514.92</ele>
        <time>2014-10-12T08:50:28Z</time>
      </trkpt>
      <trkpt lat="41.634438311" lon="2.487646405">
        <ele>518.29</ele>
        <time>2014-10-12T08:50:38Z</time>
      </trkpt>
      <trkpt lat="41.634402436" lon="2.487785628">
        <ele>521.17</ele>
        <time>2014-10-12T08:50:49Z</time>
      </trkpt>
      <trkpt lat="41.634352312" lon="2.487889983">
        <ele>522.13</ele>
        <time>2014-10-12T08:50:57Z</time>
      </trkpt>
      <trkpt lat="41.634295483" lon="2.487961061">
        <ele>523.09</ele>
        <time>2014-10-12T08:51:05Z</time>
      </trkpt>
      <trkpt lat="41.634251813" lon="2.488045132">
        <ele>524.54</ele>
        <time>2014-10-12T08:51:12Z</time>
      </trkpt>
      <trkpt lat="41.634157182" lon="2.488118976">
        <ele>525.50</ele>
        <time>2014-10-12T08:51:20Z</time>
      </trkpt>
      <trkpt lat="41.634062299" lon="2.488193911">
        <ele>526.46</ele>
        <time>2014-10-12T08:51:28Z</time>
      </trkpt>
      <trkpt lat="41.633997255" lon="2.488259122">
        <ele>527.90</ele>
        <time>2014-10-12T08:51:35Z</time>
      </trkpt>
      <trkpt lat="41.633951741" lon="2.488393316">
        <ele>528.86</ele>
        <time>2014-10-12T08:51:45Z</time>
      </trkpt>
      <trkpt lat="41.633918633" lon="2.488478392">
        <ele>530.79</ele>
        <time>2014-10-12T08:51:51Z</time>
      </trkpt>
      <trkpt lat="41.633856774" lon="2.488687605">
        <ele>531.27</ele>
        <time>2014-10-12T08:52:01Z</time>
      </trkpt>
      <trkpt lat="41.633837161" lon="2.488713756">
        <ele>531.75</ele>
        <time>2014-10-12T08:52:03Z</time>
      </trkpt>
      <trkpt lat="41.633779661" lon="2.488749296">
        <ele>532.23</ele>
        <time>2014-10-12T08:52:07Z</time>
      </trkpt>
      <trkpt lat="41.633664829" lon="2.488837138">
        <ele>533.19</ele>
        <time>2014-10-12T08:52:16Z</time>
      </trkpt>
      <trkpt lat="41.633604144" lon="2.488932189">
        <ele>533.67</ele>
        <time>2014-10-12T08:52:24Z</time>
      </trkpt>
      <trkpt lat="41.633607832" lon="2.488955658">
        <ele>533.67</ele>
        <time>2014-10-12T08:52:33Z</time>
      </trkpt>
      <trkpt lat="41.633602384" lon="2.488987342">
        <ele>533.67</ele>
        <time>2014-10-12T08:52:40Z</time>
      </trkpt>
      <trkpt lat="41.633616130" lon="2.489164451">
        <ele>534.15</ele>
        <time>2014-10-12T08:52:48Z</time>
      </trkpt>
      <trkpt lat="41.633621494" lon="2.489387578">
        <ele>534.15</ele>
        <time>2014-10-12T08:52:54Z</time>
      </trkpt>
      <trkpt lat="41.633637168" lon="2.489508612">
        <ele>532.23</ele>
        <time>2014-10-12T08:52:57Z</time>
      </trkpt>
      <trkpt lat="41.633525689" lon="2.489600646">
        <ele>529.34</ele>
        <time>2014-10-12T08:53:01Z</time>
      </trkpt>
      <trkpt lat="41.633293175" lon="2.489629898">
        <ele>525.98</ele>
        <time>2014-10-12T08:53:07Z</time>
      </trkpt>
      <trkpt lat="41.633082538" lon="2.489586732">
        <ele>522.13</ele>
        <time>2014-10-12T08:53:11Z</time>
      </trkpt>
      <trkpt lat="41.632892185" lon="2.489495956">
        <ele>518.29</ele>
        <time>2014-10-12T08:53:17Z</time>
      </trkpt>
      <trkpt lat="41.632862429" lon="2.489491513">
        <ele>517.81</ele>
        <time>2014-10-12T08:53:18Z</time>
      </trkpt>
      <trkpt lat="41.632774419" lon="2.489501069">
        <ele>515.88</ele>
        <time>2014-10-12T08:53:21Z</time>
      </trkpt>
      <trkpt lat="41.632637543" lon="2.489755878">
        <ele>511.08</ele>
        <time>2014-10-12T08:53:27Z</time>
      </trkpt>
      <trkpt lat="41.632624886" lon="2.489814384">
        <ele>511.08</ele>
        <time>2014-10-12T08:53:28Z</time>
      </trkpt>
      <trkpt lat="41.632623629" lon="2.489894850">
        <ele>510.12</ele>
        <time>2014-10-12T08:53:30Z</time>
      </trkpt>
      <trkpt lat="41.632652127" lon="2.490132393">
        <ele>505.79</ele>
        <time>2014-10-12T08:53:36Z</time>
      </trkpt>
      <trkpt lat="41.632603764" lon="2.490249070">
        <ele>503.39</ele>
        <time>2014-10-12T08:53:39Z</time>
      </trkpt>
      <trkpt lat="41.632491362" lon="2.490231384">
        <ele>502.43</ele>
        <time>2014-10-12T08:53:44Z</time>
      </trkpt>
      <trkpt lat="41.632394970" lon="2.490060728">
        <ele>502.43</ele>
        <time>2014-10-12T08:53:51Z</time>
      </trkpt>
      <trkpt lat="41.632353061" lon="2.489823185">
        <ele>501.95</ele>
        <time>2014-10-12T08:53:57Z</time>
      </trkpt>
      <trkpt lat="41.632336213" lon="2.489786053">
        <ele>501.95</ele>
        <time>2014-10-12T08:53:58Z</time>
      </trkpt>
      <trkpt lat="41.632239486" lon="2.489763003">
        <ele>501.95</ele>
        <time>2014-10-12T08:54:03Z</time>
      </trkpt>
      <trkpt lat="41.632186093" lon="2.489827627">
        <ele>501.95</ele>
        <time>2014-10-12T08:54:08Z</time>
      </trkpt>
      <trkpt lat="41.632166228" lon="2.489861407">
        <ele>503.39</ele>
        <time>2014-10-12T08:54:10Z</time>
      </trkpt>
      <trkpt lat="41.632051312" lon="2.489980346">
        <ele>501.95</ele>
        <time>2014-10-12T08:54:15Z</time>
      </trkpt>
      <trkpt lat="41.631851488" lon="2.490013538">
        <ele>498.10</ele>
        <time>2014-10-12T08:54:20Z</time>
      </trkpt>
      <trkpt lat="41.631811674" lon="2.490026279">
        <ele>497.62</ele>
        <time>2014-10-12T08:54:21Z</time>
      </trkpt>
      <trkpt lat="41.631600366" lon="2.490048323">
        <ele>495.70</ele>
        <time>2014-10-12T08:54:25Z</time>
      </trkpt>
      <trkpt lat="41.631550158" lon="2.490050167">
        <ele>494.74</ele>
        <time>2014-10-12T08:54:26Z</time>
      </trkpt>
      <trkpt lat="41.631389142" lon="2.490113869">
        <ele>493.77</ele>
        <time>2014-10-12T08:54:31Z</time>
      </trkpt>
      <trkpt lat="41.631238938" lon="2.490073133">
        <ele>491.85</ele>
        <time>2014-10-12T08:54:35Z</time>
      </trkpt>
      <trkpt lat="41.631189317" lon="2.490023345">
        <ele>490.89</ele>
        <time>2014-10-12T08:54:37Z</time>
      </trkpt>
      <trkpt lat="41.631096949" lon="2.489948662">
        <ele>489.45</ele>
        <time>2014-10-12T08:54:44Z</time>
      </trkpt>
      <trkpt lat="41.630963677" lon="2.489949417">
        <ele>488.97</ele>
        <time>2014-10-12T08:54:50Z</time>
      </trkpt>
      <trkpt lat="41.630849599" lon="2.490038935">
        <ele>488.97</ele>
        <time>2014-10-12T08:54:57Z</time>
      </trkpt>
      <trkpt lat="41.630787740" lon="2.490293075">
        <ele>488.97</ele>
        <time>2014-10-12T08:55:03Z</time>
      </trkpt>
      <trkpt lat="41.630772066" lon="2.490319729">
        <ele>488.49</ele>
        <time>2014-10-12T08:55:04Z</time>
      </trkpt>
      <trkpt lat="41.630598812" lon="2.490396675">
        <ele>488.49</ele>
        <time>2014-10-12T08:55:13Z</time>
      </trkpt>
      <trkpt lat="41.630543995" lon="2.490437243">
        <ele>488.49</ele>
        <time>2014-10-12T08:55:18Z</time>
      </trkpt>
      <trkpt lat="41.630502504" lon="2.490479740">
        <ele>488.49</ele>
        <time>2014-10-12T08:55:22Z</time>
      </trkpt>
      <trkpt lat="41.630479370" lon="2.490754750">
        <ele>486.56</ele>
        <time>2014-10-12T08:55:29Z</time>
      </trkpt>
      <trkpt lat="41.630441652" lon="2.490893889">
        <ele>485.12</ele>
        <time>2014-10-12T08:55:34Z</time>
      </trkpt>
      <trkpt lat="41.630274433" lon="2.491136797">
        <ele>483.68</ele>
        <time>2014-10-12T08:55:41Z</time>
      </trkpt>
      <trkpt lat="41.630114338" lon="2.491216593">
        <ele>483.20</ele>
        <time>2014-10-12T08:55:48Z</time>
      </trkpt>
      <trkpt lat="41.630019874" lon="2.491248611">
        <ele>483.20</ele>
        <time>2014-10-12T08:55:55Z</time>
      </trkpt>
      <trkpt lat="41.629949047" lon="2.491217934">
        <ele>484.64</ele>
        <time>2014-10-12T08:55:59Z</time>
      </trkpt>
      <trkpt lat="41.629857852" lon="2.491127158">
        <ele>485.12</ele>
        <time>2014-10-12T08:56:08Z</time>
      </trkpt>
      <trkpt lat="41.629847794" lon="2.491109723">
        <ele>485.12</ele>
        <time>2014-10-12T08:56:11Z</time>
      </trkpt>
      <trkpt lat="41.629736147" lon="2.490973517">
        <ele>485.12</ele>
        <time>2014-10-12T08:56:19Z</time>
      </trkpt>
      <trkpt lat="41.629705385" lon="2.490944097">
        <ele>485.60</ele>
        <time>2014-10-12T08:56:22Z</time>
      </trkpt>
      <trkpt lat="41.629617291" lon="2.490869749">
        <ele>486.08</ele>
        <time>2014-10-12T08:56:30Z</time>
      </trkpt>
      <trkpt lat="41.629535149" lon="2.490780817">
        <ele>486.56</ele>
        <time>2014-10-12T08:56:37Z</time>
      </trkpt>
      <trkpt lat="41.629459209" lon="2.490728179">
        <ele>487.05</ele>
        <time>2014-10-12T08:56:41Z</time>
      </trkpt>
      <trkpt lat="41.629276735" lon="2.490728263">
        <ele>487.05</ele>
        <time>2014-10-12T08:56:49Z</time>
      </trkpt>
      <trkpt lat="41.629182355" lon="2.490619717">
        <ele>487.05</ele>
        <time>2014-10-12T08:56:55Z</time>
      </trkpt>
      <trkpt lat="41.629164166" lon="2.490427688">
        <ele>485.60</ele>
        <time>2014-10-12T08:57:01Z</time>
      </trkpt>
      <trkpt lat="41.629149665" lon="2.490104482">
        <ele>482.72</ele>
        <time>2014-10-12T08:57:07Z</time>
      </trkpt>
      <trkpt lat="41.629058805" lon="2.489919158">
        <ele>479.35</ele>
        <time>2014-10-12T08:57:12Z</time>
      </trkpt>
      <trkpt lat="41.629027876" lon="2.489870459">
        <ele>478.39</ele>
        <time>2014-10-12T08:57:14Z</time>
      </trkpt>
      <trkpt lat="41.628999126" lon="2.489838440">
        <ele>476.95</ele>
        <time>2014-10-12T08:57:16Z</time>
      </trkpt>
      <trkpt lat="41.628883037" lon="2.489756046">
        <ele>474.55</ele>
        <time>2014-10-12T08:57:20Z</time>
      </trkpt>
      <trkpt lat="41.628799050" lon="2.489651859">
        <ele>472.63</ele>
        <time>2014-10-12T08:57:25Z</time>
      </trkpt>
      <trkpt lat="41.628712297" lon="2.489520850">
        <ele>471.18</ele>
        <time>2014-10-12T08:57:31Z</time>
      </trkpt>
      <trkpt lat="41.628666365" lon="2.489329826">
        <ele>472.63</ele>
        <time>2014-10-12T08:57:38Z</time>
      </trkpt>
      <trkpt lat="41.628698886" lon="2.489131762">
        <ele>472.63</ele>
        <time>2014-10-12T08:57:45Z</time>
      </trkpt>
      <trkpt lat="41.628738114" lon="2.489026150">
        <ele>472.63</ele>
        <time>2014-10-12T08:57:48Z</time>
      </trkpt>
      <trkpt lat="41.628698886" lon="2.488881730">
        <ele>471.18</ele>
        <time>2014-10-12T08:57:51Z</time>
      </trkpt>
      <trkpt lat="41.628663347" lon="2.488852980">
        <ele>471.18</ele>
        <time>2014-10-12T08:57:52Z</time>
      </trkpt>
      <trkpt lat="41.628414907" lon="2.488629183">
        <ele>466.86</ele>
        <time>2014-10-12T08:57:59Z</time>
      </trkpt>
      <trkpt lat="41.628425888" lon="2.488428101">
        <ele>465.90</ele>
        <time>2014-10-12T08:58:03Z</time>
      </trkpt>
      <trkpt lat="41.628437036" lon="2.488326596">
        <ele>464.93</ele>
        <time>2014-10-12T08:58:05Z</time>
      </trkpt>
      <trkpt lat="41.628315750" lon="2.488166083">
        <ele>464.45</ele>
        <time>2014-10-12T08:58:10Z</time>
      </trkpt>
      <trkpt lat="41.628284736" lon="2.488156611">
        <ele>464.45</ele>
        <time>2014-10-12T08:58:11Z</time>
      </trkpt>
      <trkpt lat="41.628190356" lon="2.488110930">
        <ele>464.45</ele>
        <time>2014-10-12T08:58:14Z</time>
      </trkpt>
      <trkpt lat="41.628101005" lon="2.487993751">
        <ele>463.49</ele>
        <time>2014-10-12T08:58:17Z</time>
      </trkpt>
      <trkpt lat="41.628035878" lon="2.487836506">
        <ele>463.01</ele>
        <time>2014-10-12T08:58:20Z</time>
      </trkpt>
      <trkpt lat="41.627920794" lon="2.487761907">
        <ele>462.53</ele>
        <time>2014-10-12T08:58:24Z</time>
      </trkpt>
      <trkpt lat="41.627873604" lon="2.487842541">
        <ele>462.53</ele>
        <time>2014-10-12T08:58:27Z</time>
      </trkpt>
      <trkpt lat="41.627757766" lon="2.488028368">
        <ele>463.97</ele>
        <time>2014-10-12T08:58:32Z</time>
      </trkpt>
      <trkpt lat="41.627651232" lon="2.488482081">
        <ele>461.09</ele>
        <time>2014-10-12T08:58:38Z</time>
      </trkpt>
      <trkpt lat="41.627548135" lon="2.488784332">
        <ele>458.69</ele>
        <time>2014-10-12T08:58:41Z</time>
      </trkpt>
      <trkpt lat="41.627347388" lon="2.489043165">
        <ele>457.72</ele>
        <time>2014-10-12T08:58:45Z</time>
      </trkpt>
      <trkpt lat="41.627170949" lon="2.489162775">
        <ele>457.24</ele>
        <time>2014-10-12T08:58:49Z</time>
      </trkpt>
      <trkpt lat="41.627179834" lon="2.489367964">
        <ele>457.24</ele>
        <time>2014-10-12T08:58:52Z</time>
      </trkpt>
      <trkpt lat="41.627236747" lon="2.489685638">
        <ele>458.69</ele>
        <time>2014-10-12T08:58:58Z</time>
      </trkpt>
      <trkpt lat="41.627210931" lon="2.489893006">
        <ele>459.17</ele>
        <time>2014-10-12T08:59:02Z</time>
      </trkpt>
      <trkpt lat="41.627125687" lon="2.489916559">
        <ele>459.17</ele>
        <time>2014-10-12T08:59:06Z</time>
      </trkpt>
      <trkpt lat="41.627046813" lon="2.489730146">
        <ele>460.61</ele>
        <time>2014-10-12T08:59:12Z</time>
      </trkpt>
      <trkpt lat="41.626935082" lon="2.489748921">
        <ele>460.61</ele>
        <time>2014-10-12T08:59:16Z</time>
      </trkpt>
      <trkpt lat="41.626889736" lon="2.489830896">
        <ele>461.09</ele>
        <time>2014-10-12T08:59:19Z</time>
      </trkpt>
      <trkpt lat="41.626861489" lon="2.490072882">
        <ele>461.57</ele>
        <time>2014-10-12T08:59:24Z</time>
      </trkpt>
      <trkpt lat="41.626828800" lon="2.490216464">
        <ele>459.17</ele>
        <time>2014-10-12T08:59:26Z</time>
      </trkpt>
      <trkpt lat="41.626823184" lon="2.490529109">
        <ele>458.69</ele>
        <time>2014-10-12T08:59:31Z</time>
      </trkpt>
      <trkpt lat="41.626747244" lon="2.490594320">
        <ele>458.69</ele>
        <time>2014-10-12T08:59:34Z</time>
      </trkpt>
      <trkpt lat="41.626699551" lon="2.490606977">
        <ele>460.13</ele>
        <time>2014-10-12T08:59:36Z</time>
      </trkpt>
      <trkpt lat="41.626499223" lon="2.490610078">
        <ele>462.05</ele>
        <time>2014-10-12T08:59:43Z</time>
      </trkpt>
      <trkpt lat="41.626324042" lon="2.490666237">
        <ele>463.49</ele>
        <time>2014-10-12T08:59:50Z</time>
      </trkpt>
      <trkpt lat="41.626256400" lon="2.490728598">
        <ele>463.97</ele>
        <time>2014-10-12T08:59:54Z</time>
      </trkpt>
      <trkpt lat="41.626276097" lon="2.490869749">
        <ele>464.45</ele>
        <time>2014-10-12T08:59:59Z</time>
      </trkpt>
      <trkpt lat="41.626431498" lon="2.490980726">
        <ele>463.01</ele>
        <time>2014-10-12T09:00:04Z</time>
      </trkpt>
      <trkpt lat="41.626529734" lon="2.491128583">
        <ele>461.09</ele>
        <time>2014-10-12T09:00:07Z</time>
      </trkpt>
      <trkpt lat="41.626641297" lon="2.491363946">
        <ele>458.69</ele>
        <time>2014-10-12T09:00:11Z</time>
      </trkpt>
      <trkpt lat="41.626609613" lon="2.491589839">
        <ele>456.76</ele>
        <time>2014-10-12T09:00:15Z</time>
      </trkpt>
      <trkpt lat="41.626532919" lon="2.491643231">
        <ele>456.28</ele>
        <time>2014-10-12T09:00:17Z</time>
      </trkpt>
      <trkpt lat="41.626276768" lon="2.491933581">
        <ele>454.84</ele>
        <time>2014-10-12T09:00:24Z</time>
      </trkpt>
      <trkpt lat="41.626261932" lon="2.491998289">
        <ele>454.84</ele>
        <time>2014-10-12T09:00:25Z</time>
      </trkpt>
      <trkpt lat="41.626086582" lon="2.492403302">
        <ele>452.92</ele>
        <time>2014-10-12T09:00:31Z</time>
      </trkpt>
      <trkpt lat="41.626028915" lon="2.492428029">
        <ele>452.92</ele>
        <time>2014-10-12T09:00:32Z</time>
      </trkpt>
      <trkpt lat="41.625830515" lon="2.492629530">
        <ele>451.96</ele>
        <time>2014-10-12T09:00:37Z</time>
      </trkpt>
      <trkpt lat="41.625848536" lon="2.492741512">
        <ele>451.48</ele>
        <time>2014-10-12T09:00:39Z</time>
      </trkpt>
      <trkpt lat="41.625872844" lon="2.492870845">
        <ele>451.48</ele>
        <time>2014-10-12T09:00:42Z</time>
      </trkpt>
      <trkpt lat="41.625764214" lon="2.493140826">
        <ele>452.92</ele>
        <time>2014-10-12T09:00:49Z</time>
      </trkpt>
      <trkpt lat="41.625868318" lon="2.493326737">
        <ele>452.92</ele>
        <time>2014-10-12T09:00:54Z</time>
      </trkpt>
      <trkpt lat="41.625935624" lon="2.493358337">
        <ele>451.48</ele>
        <time>2014-10-12T09:00:56Z</time>
      </trkpt>
      <trkpt lat="41.626077195" lon="2.493414328">
        <ele>451.00</ele>
        <time>2014-10-12T09:00:59Z</time>
      </trkpt>
      <trkpt lat="41.626350109" lon="2.493344255">
        <ele>449.07</ele>
        <time>2014-10-12T09:01:04Z</time>
      </trkpt>
      <trkpt lat="41.626665940" lon="2.493167397">
        <ele>447.15</ele>
        <time>2014-10-12T09:01:09Z</time>
      </trkpt>
      <trkpt lat="41.626792674" lon="2.493153986">
        <ele>446.19</ele>
        <time>2014-10-12T09:01:11Z</time>
      </trkpt>
      <trkpt lat="41.626969448" lon="2.493345345">
        <ele>445.23</ele>
        <time>2014-10-12T09:01:15Z</time>
      </trkpt>
      <trkpt lat="41.626976238" lon="2.493684728">
        <ele>444.27</ele>
        <time>2014-10-12T09:01:19Z</time>
      </trkpt>
      <trkpt lat="41.626958719" lon="2.493757986">
        <ele>443.79</ele>
        <time>2014-10-12T09:01:20Z</time>
      </trkpt>
      <trkpt lat="41.626777084" lon="2.494080102">
        <ele>442.82</ele>
        <time>2014-10-12T09:01:25Z</time>
      </trkpt>
      <trkpt lat="41.626718410" lon="2.494280011">
        <ele>441.38</ele>
        <time>2014-10-12T09:01:28Z</time>
      </trkpt>
      <trkpt lat="41.626736012" lon="2.494555440">
        <ele>440.90</ele>
        <time>2014-10-12T09:01:32Z</time>
      </trkpt>
      <trkpt lat="41.626613134" lon="2.494814776">
        <ele>440.42</ele>
        <time>2014-10-12T09:01:37Z</time>
      </trkpt>
      <trkpt lat="41.626548006" lon="2.494921059">
        <ele>440.42</ele>
        <time>2014-10-12T09:01:39Z</time>
      </trkpt>
      <trkpt lat="41.626416997" lon="2.495173605">
        <ele>440.42</ele>
        <time>2014-10-12T09:01:44Z</time>
      </trkpt>
      <trkpt lat="41.626301243" lon="2.495339399">
        <ele>440.42</ele>
        <time>2014-10-12T09:01:48Z</time>
      </trkpt>
      <trkpt lat="41.626234607" lon="2.495632347">
        <ele>440.42</ele>
        <time>2014-10-12T09:01:53Z</time>
      </trkpt>
      <trkpt lat="41.626325299" lon="2.495807864">
        <ele>439.94</ele>
        <time>2014-10-12T09:01:57Z</time>
      </trkpt>
      <trkpt lat="41.626441472" lon="2.495793363">
        <ele>440.42</ele>
        <time>2014-10-12T09:02:01Z</time>
      </trkpt>
      <trkpt lat="41.626625287" lon="2.495843822">
        <ele>440.42</ele>
        <time>2014-10-12T09:02:06Z</time>
      </trkpt>
      <trkpt lat="41.626775407" lon="2.496157138">
        <ele>440.42</ele>
        <time>2014-10-12T09:02:11Z</time>
      </trkpt>
      <trkpt lat="41.626716734" lon="2.496415217">
        <ele>439.94</ele>
        <time>2014-10-12T09:02:15Z</time>
      </trkpt>
      <trkpt lat="41.626668873" lon="2.496530468">
        <ele>439.94</ele>
        <time>2014-10-12T09:02:17Z</time>
      </trkpt>
      <trkpt lat="41.626544653" lon="2.496812854">
        <ele>439.94</ele>
        <time>2014-10-12T09:02:22Z</time>
      </trkpt>
      <trkpt lat="41.626527470" lon="2.497111501">
        <ele>438.50</ele>
        <time>2014-10-12T09:02:26Z</time>
      </trkpt>
      <trkpt lat="41.626536523" lon="2.497457255">
        <ele>437.06</ele>
        <time>2014-10-12T09:02:31Z</time>
      </trkpt>
      <trkpt lat="41.626591257" lon="2.497659845">
        <ele>436.10</ele>
        <time>2014-10-12T09:02:35Z</time>
      </trkpt>
      <trkpt lat="41.626823435" lon="2.497971485">
        <ele>436.10</ele>
        <time>2014-10-12T09:02:42Z</time>
      </trkpt>
      <trkpt lat="41.626886970" lon="2.498032170">
        <ele>436.10</ele>
        <time>2014-10-12T09:02:44Z</time>
      </trkpt>
      <trkpt lat="41.627079754" lon="2.498120599">
        <ele>437.54</ele>
        <time>2014-10-12T09:02:49Z</time>
      </trkpt>
      <trkpt lat="41.627158795" lon="2.498149600">
        <ele>437.54</ele>
        <time>2014-10-12T09:02:51Z</time>
      </trkpt>
      <trkpt lat="41.627230964" lon="2.498309024">
        <ele>437.54</ele>
        <time>2014-10-12T09:02:55Z</time>
      </trkpt>
      <trkpt lat="41.627099787" lon="2.498342468">
        <ele>438.02</ele>
        <time>2014-10-12T09:02:59Z</time>
      </trkpt>
      <trkpt lat="41.626989565" lon="2.498319920">
        <ele>438.02</ele>
        <time>2014-10-12T09:03:02Z</time>
      </trkpt>
      <trkpt lat="41.626733079" lon="2.498447241">
        <ele>438.02</ele>
        <time>2014-10-12T09:03:08Z</time>
      </trkpt>
      <trkpt lat="41.626616738" lon="2.498604318">
        <ele>436.58</ele>
        <time>2014-10-12T09:03:11Z</time>
      </trkpt>
      <trkpt lat="41.626557394" lon="2.498743709">
        <ele>436.10</ele>
        <time>2014-10-12T09:03:14Z</time>
      </trkpt>
      <trkpt lat="41.626580612" lon="2.498796851">
        <ele>436.10</ele>
        <time>2014-10-12T09:03:16Z</time>
      </trkpt>
      <trkpt lat="41.626623611" lon="2.498873713">
        <ele>436.10</ele>
        <time>2014-10-12T09:03:18Z</time>
      </trkpt>
      <trkpt lat="41.626708855" lon="2.499182837">
        <ele>437.54</ele>
        <time>2014-10-12T09:03:24Z</time>
      </trkpt>
      <trkpt lat="41.626678848" lon="2.499544349">
        <ele>438.02</ele>
        <time>2014-10-12T09:03:31Z</time>
      </trkpt>
      <trkpt lat="41.626686978" lon="2.499787843">
        <ele>438.98</ele>
        <time>2014-10-12T09:03:37Z</time>
      </trkpt>
      <trkpt lat="41.626704329" lon="2.499811899">
        <ele>438.98</ele>
        <time>2014-10-12T09:03:38Z</time>
      </trkpt>
      <trkpt lat="41.626947823" lon="2.499842409">
        <ele>438.98</ele>
        <time>2014-10-12T09:03:45Z</time>
      </trkpt>
      <trkpt lat="41.627139769" lon="2.499902591">
        <ele>438.98</ele>
        <time>2014-10-12T09:03:50Z</time>
      </trkpt>
      <trkpt lat="41.627348143" lon="2.500160419">
        <ele>439.46</ele>
        <time>2014-10-12T09:03:57Z</time>
      </trkpt>
      <trkpt lat="41.627356357" lon="2.500380444">
        <ele>440.42</ele>
        <time>2014-10-12T09:04:02Z</time>
      </trkpt>
      <trkpt lat="41.627327775" lon="2.500508854">
        <ele>440.90</ele>
        <time>2014-10-12T09:04:06Z</time>
      </trkpt>
      <trkpt lat="41.627367086" lon="2.500703398">
        <ele>442.34</ele>
        <time>2014-10-12T09:04:13Z</time>
      </trkpt>
      <trkpt lat="41.627477811" lon="2.500876233">
        <ele>442.34</ele>
        <time>2014-10-12T09:04:19Z</time>
      </trkpt>
      <trkpt lat="41.627542100" lon="2.500938594">
        <ele>442.34</ele>
        <time>2014-10-12T09:04:22Z</time>
      </trkpt>
      <trkpt lat="41.627717198" lon="2.501024174">
        <ele>443.79</ele>
        <time>2014-10-12T09:04:29Z</time>
      </trkpt>
      <trkpt lat="41.627737733" lon="2.501051415">
        <ele>443.79</ele>
        <time>2014-10-12T09:04:30Z</time>
      </trkpt>
      <trkpt lat="41.627745361" lon="2.501249479">
        <ele>445.23</ele>
        <time>2014-10-12T09:04:36Z</time>
      </trkpt>
      <trkpt lat="41.627699261" lon="2.501589785">
        <ele>445.71</ele>
        <time>2014-10-12T09:04:45Z</time>
      </trkpt>
      <trkpt lat="41.627686520" lon="2.501807630">
        <ele>446.67</ele>
        <time>2014-10-12T09:04:51Z</time>
      </trkpt>
      <trkpt lat="41.627639581" lon="2.502059590">
        <ele>446.67</ele>
        <time>2014-10-12T09:04:58Z</time>
      </trkpt>
      <trkpt lat="41.627600689" lon="2.502298055">
        <ele>446.67</ele>
        <time>2014-10-12T09:05:05Z</time>
      </trkpt>
      <trkpt lat="41.627576633" lon="2.502391849">
        <ele>446.67</ele>
        <time>2014-10-12T09:05:07Z</time>
      </trkpt>
      <trkpt lat="41.627426346" lon="2.502413558">
        <ele>445.23</ele>
        <time>2014-10-12T09:05:11Z</time>
      </trkpt>
      <trkpt lat="41.627351579" lon="2.502390675">
        <ele>445.23</ele>
        <time>2014-10-12T09:05:13Z</time>
      </trkpt>
      <trkpt lat="41.627168267" lon="2.502381288">
        <ele>446.19</ele>
        <time>2014-10-12T09:05:19Z</time>
      </trkpt>
      <trkpt lat="41.627034492" lon="2.502340803">
        <ele>446.67</ele>
        <time>2014-10-12T09:05:23Z</time>
      </trkpt>
      <trkpt lat="41.626755542" lon="2.502323872">
        <ele>443.79</ele>
        <time>2014-10-12T09:05:28Z</time>
      </trkpt>
      <trkpt lat="41.626679183" lon="2.502318675">
        <ele>442.82</ele>
        <time>2014-10-12T09:05:29Z</time>
      </trkpt>
      <trkpt lat="41.626507773" lon="2.502295960">
        <ele>441.38</ele>
        <time>2014-10-12T09:05:31Z</time>
      </trkpt>
      <trkpt lat="41.626204097" lon="2.502345497">
        <ele>438.50</ele>
        <time>2014-10-12T09:05:35Z</time>
      </trkpt>
      <trkpt lat="41.626120697" lon="2.502430489">
        <ele>438.02</ele>
        <time>2014-10-12T09:05:37Z</time>
      </trkpt>
      <trkpt lat="41.626101083" lon="2.502724191">
        <ele>437.54</ele>
        <time>2014-10-12T09:05:41Z</time>
      </trkpt>
      <trkpt lat="41.626060012" lon="2.502905073">
        <ele>437.54</ele>
        <time>2014-10-12T09:05:44Z</time>
      </trkpt>
      <trkpt lat="41.625935038" lon="2.503204223">
        <ele>438.98</ele>
        <time>2014-10-12T09:05:51Z</time>
      </trkpt>
      <trkpt lat="41.625915508" lon="2.503239595">
        <ele>438.98</ele>
        <time>2014-10-12T09:05:52Z</time>
      </trkpt>
      <trkpt lat="41.625786091" lon="2.503371526">
        <ele>438.98</ele>
        <time>2014-10-12T09:05:57Z</time>
      </trkpt>
      <trkpt lat="41.625731693" lon="2.503396336">
        <ele>437.54</ele>
        <time>2014-10-12T09:05:59Z</time>
      </trkpt>
      <trkpt lat="41.625529856" lon="2.503462637">
        <ele>435.61</ele>
        <time>2014-10-12T09:06:05Z</time>
      </trkpt>
      <trkpt lat="41.625481828" lon="2.503471438">
        <ele>435.61</ele>
        <time>2014-10-12T09:06:06Z</time>
      </trkpt>
      <trkpt lat="41.625388454" lon="2.503589455">
        <ele>434.17</ele>
        <time>2014-10-12T09:06:10Z</time>
      </trkpt>
      <trkpt lat="41.625436314" lon="2.503785927">
        <ele>433.69</ele>
        <time>2014-10-12T09:06:14Z</time>
      </trkpt>
      <trkpt lat="41.625459784" lon="2.503913583">
        <ele>433.21</ele>
        <time>2014-10-12T09:06:16Z</time>
      </trkpt>
      <trkpt lat="41.625461125" lon="2.504258247">
        <ele>433.21</ele>
        <time>2014-10-12T09:06:22Z</time>
      </trkpt>
      <trkpt lat="41.625380239" lon="2.504551949">
        <ele>433.21</ele>
        <time>2014-10-12T09:06:30Z</time>
      </trkpt>
      <trkpt lat="41.625214781" lon="2.504836515">
        <ele>432.25</ele>
        <time>2014-10-12T09:06:35Z</time>
      </trkpt>
      <trkpt lat="41.625122077" lon="2.504915808">
        <ele>430.81</ele>
        <time>2014-10-12T09:06:37Z</time>
      </trkpt>
      <trkpt lat="41.625027864" lon="2.504996274">
        <ele>429.85</ele>
        <time>2014-10-12T09:06:40Z</time>
      </trkpt>
      <trkpt lat="41.625092489" lon="2.505130049">
        <ele>429.85</ele>
        <time>2014-10-12T09:06:45Z</time>
      </trkpt>
      <trkpt lat="41.625190473" lon="2.505393492">
        <ele>427.92</ele>
        <time>2014-10-12T09:06:49Z</time>
      </trkpt>
      <trkpt lat="41.625210841" lon="2.505642016">
        <ele>427.92</ele>
        <time>2014-10-12T09:06:52Z</time>
      </trkpt>
      <trkpt lat="41.625207237" lon="2.505799009">
        <ele>427.92</ele>
        <time>2014-10-12T09:06:54Z</time>
      </trkpt>
      <trkpt lat="41.625256774" lon="2.506190024">
        <ele>426.48</ele>
        <time>2014-10-12T09:06:59Z</time>
      </trkpt>
      <trkpt lat="41.625252834" lon="2.506264623">
        <ele>426.48</ele>
        <time>2014-10-12T09:07:00Z</time>
      </trkpt>
      <trkpt lat="41.625231796" lon="2.506410049">
        <ele>424.56</ele>
        <time>2014-10-12T09:07:02Z</time>
      </trkpt>
      <trkpt lat="41.625276471" lon="2.506887315">
        <ele>420.71</ele>
        <time>2014-10-12T09:07:07Z</time>
      </trkpt>
      <trkpt lat="41.625297175" lon="2.506986976">
        <ele>420.71</ele>
        <time>2014-10-12T09:07:08Z</time>
      </trkpt>
      <trkpt lat="41.625412007" lon="2.507728188">
        <ele>418.79</ele>
        <time>2014-10-12T09:07:16Z</time>
      </trkpt>
      <trkpt lat="41.625440002" lon="2.507853497">
        <ele>417.83</ele>
        <time>2014-10-12T09:07:20Z</time>
      </trkpt>
      <trkpt lat="41.625451737" lon="2.507854251">
        <ele>417.83</ele>
        <time>2014-10-12T09:07:35Z</time>
      </trkpt>
      <trkpt lat="41.625568245" lon="2.507911751">
        <ele>417.83</ele>
        <time>2014-10-12T09:07:43Z</time>
      </trkpt>
      <trkpt lat="41.625588278" lon="2.507916445">
        <ele>417.83</ele>
        <time>2014-10-12T09:07:44Z</time>
      </trkpt>
      <trkpt lat="41.625717695" lon="2.507911835">
        <ele>419.27</ele>
        <time>2014-10-12T09:07:53Z</time>
      </trkpt>
      <trkpt lat="41.625866306" lon="2.507911248">
        <ele>419.75</ele>
        <time>2014-10-12T09:08:00Z</time>
      </trkpt>
      <trkpt lat="41.626037548" lon="2.507890880">
        <ele>420.71</ele>
        <time>2014-10-12T09:08:08Z</time>
      </trkpt>
      <trkpt lat="41.626215245" lon="2.507842600">
        <ele>421.19</ele>
        <time>2014-10-12T09:08:15Z</time>
      </trkpt>
      <trkpt lat="41.626369136" lon="2.507814353">
        <ele>422.64</ele>
        <time>2014-10-12T09:08:22Z</time>
      </trkpt>
      <trkpt lat="41.626535936" lon="2.507806642">
        <ele>424.08</ele>
        <time>2014-10-12T09:08:29Z</time>
      </trkpt>
      <trkpt lat="41.626653199" lon="2.507871686">
        <ele>424.56</ele>
        <time>2014-10-12T09:08:35Z</time>
      </trkpt>
      <trkpt lat="41.626692845" lon="2.507898005">
        <ele>425.52</ele>
        <time>2014-10-12T09:08:37Z</time>
      </trkpt>
      <trkpt lat="41.626735090" lon="2.508042174">
        <ele>426.48</ele>
        <time>2014-10-12T09:08:44Z</time>
      </trkpt>
      <trkpt lat="41.626697204" lon="2.508179302">
        <ele>427.92</ele>
        <time>2014-10-12T09:08:50Z</time>
      </trkpt>
      <trkpt lat="41.626682620" lon="2.508319531">
        <ele>428.40</ele>
        <time>2014-10-12T09:08:57Z</time>
      </trkpt>
      <trkpt lat="41.626611290" lon="2.508547267">
        <ele>429.85</ele>
        <time>2014-10-12T09:09:06Z</time>
      </trkpt>
      <trkpt lat="41.626512551" lon="2.508729071">
        <ele>430.81</ele>
        <time>2014-10-12T09:09:14Z</time>
      </trkpt>
      <trkpt lat="41.626451195" lon="2.508922357">
        <ele>431.77</ele>
        <time>2014-10-12T09:09:21Z</time>
      </trkpt>
      <trkpt lat="41.626469049" lon="2.509212874">
        <ele>432.25</ele>
        <time>2014-10-12T09:09:29Z</time>
      </trkpt>
      <trkpt lat="41.626474413" lon="2.509541612">
        <ele>432.73</ele>
        <time>2014-10-12T09:09:38Z</time>
      </trkpt>
      <trkpt lat="41.626388499" lon="2.509772282">
        <ele>433.69</ele>
        <time>2014-10-12T09:09:46Z</time>
      </trkpt>
      <trkpt lat="41.626313313" lon="2.509977723">
        <ele>434.65</ele>
        <time>2014-10-12T09:09:53Z</time>
      </trkpt>
      <trkpt lat="41.626232344" lon="2.510222893">
        <ele>435.61</ele>
        <time>2014-10-12T09:10:01Z</time>
      </trkpt>
      <trkpt lat="41.626183561" lon="2.510386843">
        <ele>437.06</ele>
        <time>2014-10-12T09:10:07Z</time>
      </trkpt>
      <trkpt lat="41.626113907" lon="2.510567390">
        <ele>438.50</ele>
        <time>2014-10-12T09:10:13Z</time>
      </trkpt>
      <trkpt lat="41.626051211" lon="2.510743242">
        <ele>439.94</ele>
        <time>2014-10-12T09:10:20Z</time>
      </trkpt>
      <trkpt lat="41.626005613" lon="2.510894116">
        <ele>440.42</ele>
        <time>2014-10-12T09:10:26Z</time>
      </trkpt>
      <trkpt lat="41.625911736" lon="2.511141466">
        <ele>442.82</ele>
        <time>2014-10-12T09:10:36Z</time>
      </trkpt>
      <trkpt lat="41.625842669" lon="2.511371633">
        <ele>444.27</ele>
        <time>2014-10-12T09:10:44Z</time>
      </trkpt>
      <trkpt lat="41.625885333" lon="2.511634657">
        <ele>445.71</ele>
        <time>2014-10-12T09:10:52Z</time>
      </trkpt>
      <trkpt lat="41.626013325" lon="2.511692912">
        <ele>447.63</ele>
        <time>2014-10-12T09:11:00Z</time>
      </trkpt>
      <trkpt lat="41.626135533" lon="2.511769774">
        <ele>449.55</ele>
        <time>2014-10-12T09:11:09Z</time>
      </trkpt>
      <trkpt lat="41.626241899" lon="2.511934729">
        <ele>451.48</ele>
        <time>2014-10-12T09:11:19Z</time>
      </trkpt>
      <trkpt lat="41.626278025" lon="2.512100859">
        <ele>452.44</ele>
        <time>2014-10-12T09:11:27Z</time>
      </trkpt>
      <trkpt lat="41.626322449" lon="2.512305293">
        <ele>453.88</ele>
        <time>2014-10-12T09:11:37Z</time>
      </trkpt>
      <trkpt lat="41.626347930" lon="2.512510231">
        <ele>454.84</ele>
        <time>2014-10-12T09:11:47Z</time>
      </trkpt>
      <trkpt lat="41.626357988" lon="2.512691029">
        <ele>455.80</ele>
        <time>2014-10-12T09:11:55Z</time>
      </trkpt>
      <trkpt lat="41.626408867" lon="2.512840310">
        <ele>456.76</ele>
        <time>2014-10-12T09:12:02Z</time>
      </trkpt>
      <trkpt lat="41.626508946" lon="2.512901666">
        <ele>458.21</ele>
        <time>2014-10-12T09:12:09Z</time>
      </trkpt>
      <trkpt lat="41.626589664" lon="2.512891691">
        <ele>458.69</ele>
        <time>2014-10-12T09:12:15Z</time>
      </trkpt>
      <trkpt lat="41.626774066" lon="2.512920777">
        <ele>459.17</ele>
        <time>2014-10-12T09:12:24Z</time>
      </trkpt>
      <trkpt lat="41.626953858" lon="2.513023371">
        <ele>460.13</ele>
        <time>2014-10-12T09:12:31Z</time>
      </trkpt>
      <trkpt lat="41.627073971" lon="2.513197631">
        <ele>460.61</ele>
        <time>2014-10-12T09:12:37Z</time>
      </trkpt>
      <trkpt lat="41.627181929" lon="2.513400305">
        <ele>461.09</ele>
        <time>2014-10-12T09:12:44Z</time>
      </trkpt>
      <trkpt lat="41.627299025" lon="2.513624270">
        <ele>462.05</ele>
        <time>2014-10-12T09:12:51Z</time>
      </trkpt>
      <trkpt lat="41.627356944" lon="2.513719991">
        <ele>461.09</ele>
        <time>2014-10-12T09:12:53Z</time>
      </trkpt>
      <trkpt lat="41.627415282" lon="2.514000869">
        <ele>460.13</ele>
        <time>2014-10-12T09:12:57Z</time>
      </trkpt>
      <trkpt lat="41.627481583" lon="2.514407475">
        <ele>457.72</ele>
        <time>2014-10-12T09:13:02Z</time>
      </trkpt>
      <trkpt lat="41.627473033" lon="2.514591709">
        <ele>456.76</ele>
        <time>2014-10-12T09:13:04Z</time>
      </trkpt>
      <trkpt lat="41.627378737" lon="2.514950538">
        <ele>454.36</ele>
        <time>2014-10-12T09:13:08Z</time>
      </trkpt>
      <trkpt lat="41.627326434" lon="2.515089762">
        <ele>452.92</ele>
        <time>2014-10-12T09:13:10Z</time>
      </trkpt>
      <trkpt lat="41.627257786" lon="2.515214317">
        <ele>451.96</ele>
        <time>2014-10-12T09:13:12Z</time>
      </trkpt>
      <trkpt lat="41.627047232" lon="2.515486729">
        <ele>449.55</ele>
        <time>2014-10-12T09:13:16Z</time>
      </trkpt>
      <trkpt lat="41.626989732" lon="2.515552694">
        <ele>449.07</ele>
        <time>2014-10-12T09:13:17Z</time>
      </trkpt>
      <trkpt lat="41.626767612" lon="2.516003054">
        <ele>445.71</ele>
        <time>2014-10-12T09:13:22Z</time>
      </trkpt>
      <trkpt lat="41.626680021" lon="2.516480236">
        <ele>443.31</ele>
        <time>2014-10-12T09:13:26Z</time>
      </trkpt>
      <trkpt lat="41.626576337" lon="2.517202672">
        <ele>439.94</ele>
        <time>2014-10-12T09:13:32Z</time>
      </trkpt>
      <trkpt lat="41.626530823" lon="2.517589329">
        <ele>438.50</ele>
        <time>2014-10-12T09:13:35Z</time>
      </trkpt>
      <trkpt lat="41.626528644" lon="2.517843720">
        <ele>437.06</ele>
        <time>2014-10-12T09:13:37Z</time>
      </trkpt>
      <trkpt lat="41.626525543" lon="2.518516870">
        <ele>435.13</ele>
        <time>2014-10-12T09:13:43Z</time>
      </trkpt>
      <trkpt lat="41.626600477" lon="2.518746954">
        <ele>435.13</ele>
        <time>2014-10-12T09:13:47Z</time>
      </trkpt>
      <trkpt lat="41.626688990" lon="2.519058677">
        <ele>435.61</ele>
        <time>2014-10-12T09:13:54Z</time>
      </trkpt>
      <trkpt lat="41.626689074" lon="2.519117937">
        <ele>435.13</ele>
        <time>2014-10-12T09:13:55Z</time>
      </trkpt>
      <trkpt lat="41.626728720" lon="2.519575337">
        <ele>433.21</ele>
        <time>2014-10-12T09:14:01Z</time>
      </trkpt>
      <trkpt lat="41.626666107" lon="2.519990996">
        <ele>432.25</ele>
        <time>2014-10-12T09:14:06Z</time>
      </trkpt>
      <trkpt lat="41.626637944" lon="2.520054614">
        <ele>432.25</ele>
        <time>2014-10-12T09:14:07Z</time>
      </trkpt>
      <trkpt lat="41.626507857" lon="2.520458371">
        <ele>432.25</ele>
        <time>2014-10-12T09:14:15Z</time>
      </trkpt>
      <trkpt lat="41.626463852" lon="2.520526013">
        <ele>433.21</ele>
        <time>2014-10-12T09:14:17Z</time>
      </trkpt>
      <trkpt lat="41.626370142" lon="2.520683844">
        <ele>435.13</ele>
        <time>2014-10-12T09:14:23Z</time>
      </trkpt>
      <trkpt lat="41.626321359" lon="2.520999674">
        <ele>433.69</ele>
        <time>2014-10-12T09:14:29Z</time>
      </trkpt>
      <trkpt lat="41.626310463" lon="2.521055497">
        <ele>433.69</ele>
        <time>2014-10-12T09:14:30Z</time>
      </trkpt>
      <trkpt lat="41.626209880" lon="2.521427235">
        <ele>432.25</ele>
        <time>2014-10-12T09:14:36Z</time>
      </trkpt>
      <trkpt lat="41.626062443" lon="2.521666287">
        <ele>431.29</ele>
        <time>2014-10-12T09:14:40Z</time>
      </trkpt>
      <trkpt lat="41.625936630" lon="2.522000976">
        <ele>427.44</ele>
        <time>2014-10-12T09:14:45Z</time>
      </trkpt>
      <trkpt lat="41.625878795" lon="2.522267521">
        <ele>424.56</ele>
        <time>2014-10-12T09:14:48Z</time>
      </trkpt>
      <trkpt lat="41.625847028" lon="2.522454772">
        <ele>422.16</ele>
        <time>2014-10-12T09:14:50Z</time>
      </trkpt>
      <trkpt lat="41.625838646" lon="2.522882668">
        <ele>418.79</ele>
        <time>2014-10-12T09:14:55Z</time>
      </trkpt>
      <trkpt lat="41.625965632" lon="2.523370076">
        <ele>414.47</ele>
        <time>2014-10-12T09:15:01Z</time>
      </trkpt>
      <trkpt lat="41.626080547" lon="2.523764026">
        <ele>409.66</ele>
        <time>2014-10-12T09:15:06Z</time>
      </trkpt>
      <trkpt lat="41.626119356" lon="2.523916911">
        <ele>407.26</ele>
        <time>2014-10-12T09:15:08Z</time>
      </trkpt>
      <trkpt lat="41.626266961" lon="2.524311029">
        <ele>402.45</ele>
        <time>2014-10-12T09:15:13Z</time>
      </trkpt>
      <trkpt lat="41.626391935" lon="2.524779745">
        <ele>398.60</ele>
        <time>2014-10-12T09:15:18Z</time>
      </trkpt>
      <trkpt lat="41.626420601" lon="2.524894493">
        <ele>397.64</ele>
        <time>2014-10-12T09:15:19Z</time>
      </trkpt>
      <trkpt lat="41.626597376" lon="2.525302943">
        <ele>392.36</ele>
        <time>2014-10-12T09:15:23Z</time>
      </trkpt>
      <trkpt lat="41.626739281" lon="2.525646098">
        <ele>389.47</ele>
        <time>2014-10-12T09:15:26Z</time>
      </trkpt>
      <trkpt lat="41.626861992" lon="2.525994282">
        <ele>385.63</ele>
        <time>2014-10-12T09:15:29Z</time>
      </trkpt>
      <trkpt lat="41.626936004" lon="2.526194610">
        <ele>384.18</ele>
        <time>2014-10-12T09:15:31Z</time>
      </trkpt>
      <trkpt lat="41.627091824" lon="2.526312124">
        <ele>381.78</ele>
        <time>2014-10-12T09:15:34Z</time>
      </trkpt>
      <trkpt lat="41.627232137" lon="2.526181283">
        <ele>381.30</ele>
        <time>2014-10-12T09:15:37Z</time>
      </trkpt>
      <trkpt lat="41.627381419" lon="2.526064104">
        <ele>381.78</ele>
        <time>2014-10-12T09:15:40Z</time>
      </trkpt>
      <trkpt lat="41.627560708" lon="2.525987074">
        <ele>381.30</ele>
        <time>2014-10-12T09:15:43Z</time>
      </trkpt>
      <trkpt lat="41.627821385" lon="2.525748693">
        <ele>379.38</ele>
        <time>2014-10-12T09:15:48Z</time>
      </trkpt>
      <trkpt lat="41.627936804" lon="2.525670573">
        <ele>377.94</ele>
        <time>2014-10-12T09:15:51Z</time>
      </trkpt>
      <trkpt lat="41.627982150" lon="2.525837708">
        <ele>377.45</ele>
        <time>2014-10-12T09:15:54Z</time>
      </trkpt>
      <trkpt lat="41.627948203" lon="2.525956983">
        <ele>376.97</ele>
        <time>2014-10-12T09:15:56Z</time>
      </trkpt>
      <trkpt lat="41.627821804" lon="2.526234005">
        <ele>375.53</ele>
        <time>2014-10-12T09:16:00Z</time>
      </trkpt>
      <trkpt lat="41.627603036" lon="2.526552769">
        <ele>372.65</ele>
        <time>2014-10-12T09:16:04Z</time>
      </trkpt>
      <trkpt lat="41.627388040" lon="2.526972870">
        <ele>368.32</ele>
        <time>2014-10-12T09:16:10Z</time>
      </trkpt>
      <trkpt lat="41.627297013" lon="2.527061969">
        <ele>367.84</ele>
        <time>2014-10-12T09:16:14Z</time>
      </trkpt>
      <trkpt lat="41.627177990" lon="2.527081164">
        <ele>367.84</ele>
        <time>2014-10-12T09:16:21Z</time>
      </trkpt>
      <trkpt lat="41.627003479" lon="2.527097508">
        <ele>368.32</ele>
        <time>2014-10-12T09:16:28Z</time>
      </trkpt>
      <trkpt lat="41.626928042" lon="2.527095413">
        <ele>367.84</ele>
        <time>2014-10-12T09:16:30Z</time>
      </trkpt>
      <trkpt lat="41.626550940" lon="2.527100358">
        <ele>365.44</ele>
        <time>2014-10-12T09:16:38Z</time>
      </trkpt>
      <trkpt lat="41.626488327" lon="2.527076805">
        <ele>364.48</ele>
        <time>2014-10-12T09:16:43Z</time>
      </trkpt>
      <trkpt lat="41.626471563" lon="2.527083678">
        <ele>364.48</ele>
        <time>2014-10-12T09:16:52Z</time>
      </trkpt>
      <trkpt lat="41.626459577" lon="2.527066495">
        <ele>364.48</ele>
        <time>2014-10-12T09:16:56Z</time>
      </trkpt>
      <trkpt lat="41.626384056" lon="2.526978737">
        <ele>363.04</ele>
        <time>2014-10-12T09:17:02Z</time>
      </trkpt>
      <trkpt lat="41.626366035" lon="2.526862899">
        <ele>363.04</ele>
        <time>2014-10-12T09:17:07Z</time>
      </trkpt>
      <trkpt lat="41.626362934" lon="2.526837418">
        <ele>362.55</ele>
        <time>2014-10-12T09:17:08Z</time>
      </trkpt>
      <trkpt lat="41.626307194" lon="2.526705990">
        <ele>362.55</ele>
        <time>2014-10-12T09:17:15Z</time>
      </trkpt>
      <trkpt lat="41.626294454" lon="2.526683945">
        <ele>362.55</ele>
        <time>2014-10-12T09:17:16Z</time>
      </trkpt>
      <trkpt lat="41.626137461" lon="2.526452856">
        <ele>362.07</ele>
        <time>2014-10-12T09:17:24Z</time>
      </trkpt>
      <trkpt lat="41.625956076" lon="2.526264599">
        <ele>361.59</ele>
        <time>2014-10-12T09:17:30Z</time>
      </trkpt>
      <trkpt lat="41.625712666" lon="2.526093021">
        <ele>361.59</ele>
        <time>2014-10-12T09:17:38Z</time>
      </trkpt>
      <trkpt lat="41.625538825" lon="2.525878864">
        <ele>361.59</ele>
        <time>2014-10-12T09:17:45Z</time>
      </trkpt>
      <trkpt lat="41.625389208" lon="2.525632436">
        <ele>361.59</ele>
        <time>2014-10-12T09:17:52Z</time>
      </trkpt>
      <trkpt lat="41.625225007" lon="2.525421044">
        <ele>360.63</ele>
        <time>2014-10-12T09:17:58Z</time>
      </trkpt>
      <trkpt lat="41.625026355" lon="2.525184088">
        <ele>360.63</ele>
        <time>2014-10-12T09:18:06Z</time>
      </trkpt>
      <trkpt lat="41.624879756" lon="2.524856020">
        <ele>359.19</ele>
        <time>2014-10-12T09:18:14Z</time>
      </trkpt>
      <trkpt lat="41.624861232" lon="2.524800867">
        <ele>359.19</ele>
        <time>2014-10-12T09:18:15Z</time>
      </trkpt>
      <trkpt lat="41.624671801" lon="2.524329385">
        <ele>357.27</ele>
        <time>2014-10-12T09:18:24Z</time>
      </trkpt>
      <trkpt lat="41.624527716" lon="2.523940800">
        <ele>354.38</ele>
        <time>2014-10-12T09:18:30Z</time>
      </trkpt>
      <trkpt lat="41.624374327" lon="2.523592951">
        <ele>351.98</ele>
        <time>2014-10-12T09:18:36Z</time>
      </trkpt>
      <trkpt lat="41.624237032" lon="2.523105879">
        <ele>351.02</ele>
        <time>2014-10-12T09:18:43Z</time>
      </trkpt>
      <trkpt lat="41.624066376" lon="2.522720646">
        <ele>349.58</ele>
        <time>2014-10-12T09:18:50Z</time>
      </trkpt>
      <trkpt lat="41.623935199" lon="2.522543201">
        <ele>349.10</ele>
        <time>2014-10-12T09:18:54Z</time>
      </trkpt>
      <trkpt lat="41.623794970" lon="2.522424933">
        <ele>348.13</ele>
        <time>2014-10-12T09:18:57Z</time>
      </trkpt>
      <trkpt lat="41.623631271" lon="2.522295600">
        <ele>347.17</ele>
        <time>2014-10-12T09:19:02Z</time>
      </trkpt>
      <trkpt lat="41.623515350" lon="2.522182109">
        <ele>346.69</ele>
        <time>2014-10-12T09:19:09Z</time>
      </trkpt>
      <trkpt lat="41.623403703" lon="2.522060739">
        <ele>346.21</ele>
        <time>2014-10-12T09:19:13Z</time>
      </trkpt>
      <trkpt lat="41.623323991" lon="2.521936352">
        <ele>346.21</ele>
        <time>2014-10-12T09:19:16Z</time>
      </trkpt>
      <trkpt lat="41.623101787" lon="2.521840127">
        <ele>344.29</ele>
        <time>2014-10-12T09:19:21Z</time>
      </trkpt>
      <trkpt lat="41.622731139" lon="2.521873068">
        <ele>340.44</ele>
        <time>2014-10-12T09:19:27Z</time>
      </trkpt>
      <trkpt lat="41.622635920" lon="2.521845743">
        <ele>339.48</ele>
        <time>2014-10-12T09:19:29Z</time>
      </trkpt>
      <trkpt lat="41.622528213" lon="2.521780364">
        <ele>338.52</ele>
        <time>2014-10-12T09:19:31Z</time>
      </trkpt>
      <trkpt lat="41.622421511" lon="2.521713058">
        <ele>336.60</ele>
        <time>2014-10-12T09:19:33Z</time>
      </trkpt>
      <trkpt lat="41.622319168" lon="2.521620521">
        <ele>335.64</ele>
        <time>2014-10-12T09:19:35Z</time>
      </trkpt>
      <trkpt lat="41.622217328" lon="2.521539552">
        <ele>335.16</ele>
        <time>2014-10-12T09:19:37Z</time>
      </trkpt>
      <trkpt lat="41.622016246" lon="2.521653965">
        <ele>333.23</ele>
        <time>2014-10-12T09:19:41Z</time>
      </trkpt>
      <trkpt lat="41.621979450" lon="2.521805007">
        <ele>330.35</ele>
        <time>2014-10-12T09:19:43Z</time>
      </trkpt>
      <trkpt lat="41.621960758" lon="2.521948170">
        <ele>329.87</ele>
        <time>2014-10-12T09:19:45Z</time>
      </trkpt>
      <trkpt lat="41.621970565" lon="2.522226785">
        <ele>326.50</ele>
        <time>2014-10-12T09:19:50Z</time>
      </trkpt>
      <trkpt lat="41.621904264" lon="2.522252517">
        <ele>326.02</ele>
        <time>2014-10-12T09:19:53Z</time>
      </trkpt>
      <trkpt lat="41.621861684" lon="2.522188060">
        <ele>324.58</ele>
        <time>2014-10-12T09:19:56Z</time>
      </trkpt>
      <trkpt lat="41.621827989" lon="2.522075826">
        <ele>323.14</ele>
        <time>2014-10-12T09:20:00Z</time>
      </trkpt>
      <trkpt lat="41.621778536" lon="2.521933837">
        <ele>321.22</ele>
        <time>2014-10-12T09:20:04Z</time>
      </trkpt>
      <trkpt lat="41.621642330" lon="2.521661928">
        <ele>317.85</ele>
        <time>2014-10-12T09:20:10Z</time>
      </trkpt>
      <trkpt lat="41.621621207" lon="2.521610128">
        <ele>317.37</ele>
        <time>2014-10-12T09:20:11Z</time>
      </trkpt>
      <trkpt lat="41.621457760" lon="2.521333357">
        <ele>313.53</ele>
        <time>2014-10-12T09:20:17Z</time>
      </trkpt>
      <trkpt lat="41.621423143" lon="2.521292538">
        <ele>313.05</ele>
        <time>2014-10-12T09:20:18Z</time>
      </trkpt>
      <trkpt lat="41.621265982" lon="2.521211820">
        <ele>311.12</ele>
        <time>2014-10-12T09:20:22Z</time>
      </trkpt>
      <trkpt lat="41.621195407" lon="2.521200672">
        <ele>310.16</ele>
        <time>2014-10-12T09:20:24Z</time>
      </trkpt>
      <trkpt lat="41.621166405" lon="2.521132695">
        <ele>308.72</ele>
        <time>2014-10-12T09:20:26Z</time>
      </trkpt>
      <trkpt lat="41.621241088" lon="2.521038063">
        <ele>307.28</ele>
        <time>2014-10-12T09:20:30Z</time>
      </trkpt>
      <trkpt lat="41.621351981" lon="2.520978887">
        <ele>306.80</ele>
        <time>2014-10-12T09:20:36Z</time>
      </trkpt>
      <trkpt lat="41.621428004" lon="2.520970337">
        <ele>306.80</ele>
        <time>2014-10-12T09:20:41Z</time>
      </trkpt>
      <trkpt lat="41.621531018" lon="2.521019874">
        <ele>306.32</ele>
        <time>2014-10-12T09:20:44Z</time>
      </trkpt>
      <trkpt lat="41.621765879" lon="2.520962291">
        <ele>304.88</ele>
        <time>2014-10-12T09:20:49Z</time>
      </trkpt>
      <trkpt lat="41.621906108" lon="2.520821726">
        <ele>303.91</ele>
        <time>2014-10-12T09:20:52Z</time>
      </trkpt>
      <trkpt lat="41.622109705" lon="2.520658698">
        <ele>300.07</ele>
        <time>2014-10-12T09:20:56Z</time>
      </trkpt>
      <trkpt lat="41.622207773" lon="2.520575298">
        <ele>298.63</ele>
        <time>2014-10-12T09:20:58Z</time>
      </trkpt>
      <trkpt lat="41.622407011" lon="2.520495251">
        <ele>295.26</ele>
        <time>2014-10-12T09:21:03Z</time>
      </trkpt>
      <trkpt lat="41.622440622" lon="2.520474548">
        <ele>295.26</ele>
        <time>2014-10-12T09:21:04Z</time>
      </trkpt>
      <trkpt lat="41.622446657" lon="2.520363068">
        <ele>294.30</ele>
        <time>2014-10-12T09:21:07Z</time>
      </trkpt>
      <trkpt lat="41.622343811" lon="2.520344963">
        <ele>292.86</ele>
        <time>2014-10-12T09:21:10Z</time>
      </trkpt>
      <trkpt lat="41.622083218" lon="2.520438757">
        <ele>288.53</ele>
        <time>2014-10-12T09:21:16Z</time>
      </trkpt>
      <trkpt lat="41.621916921" lon="2.520427106">
        <ele>286.13</ele>
        <time>2014-10-12T09:21:21Z</time>
      </trkpt>
      <trkpt lat="41.621803765" lon="2.520402296">
        <ele>284.21</ele>
        <time>2014-10-12T09:21:24Z</time>
      </trkpt>
      <trkpt lat="41.621604360" lon="2.520353513">
        <ele>280.36</ele>
        <time>2014-10-12T09:21:28Z</time>
      </trkpt>
      <trkpt lat="41.621423394" lon="2.520298276">
        <ele>277.96</ele>
        <time>2014-10-12T09:21:31Z</time>
      </trkpt>
      <trkpt lat="41.621086358" lon="2.520255948">
        <ele>273.63</ele>
        <time>2014-10-12T09:21:36Z</time>
      </trkpt>
      <trkpt lat="41.621025841" lon="2.520244800">
        <ele>273.15</ele>
        <time>2014-10-12T09:21:37Z</time>
      </trkpt>
      <trkpt lat="41.620725182" lon="2.520197358">
        <ele>270.27</ele>
        <time>2014-10-12T09:21:42Z</time>
      </trkpt>
      <trkpt lat="41.620543462" lon="2.520179421">
        <ele>266.90</ele>
        <time>2014-10-12T09:21:45Z</time>
      </trkpt>
      <trkpt lat="41.620198547" lon="2.520129046">
        <ele>263.54</ele>
        <time>2014-10-12T09:21:51Z</time>
      </trkpt>
      <trkpt lat="41.620071645" lon="2.520146648">
        <ele>263.06</ele>
        <time>2014-10-12T09:21:53Z</time>
      </trkpt>
      <trkpt lat="41.620014899" lon="2.520164920">
        <ele>261.62</ele>
        <time>2014-10-12T09:21:54Z</time>
      </trkpt>
      <trkpt lat="41.619897972" lon="2.520225018">
        <ele>260.17</ele>
        <time>2014-10-12T09:21:56Z</time>
      </trkpt>
      <trkpt lat="41.619635534" lon="2.520319566">
        <ele>254.89</ele>
        <time>2014-10-12T09:22:01Z</time>
      </trkpt>
      <trkpt lat="41.619473345" lon="2.520322081">
        <ele>252.00</ele>
        <time>2014-10-12T09:22:05Z</time>
      </trkpt>
      <trkpt lat="41.619309562" lon="2.520291403">
        <ele>250.56</ele>
        <time>2014-10-12T09:22:08Z</time>
      </trkpt>
      <trkpt lat="41.619164052" lon="2.520345550">
        <ele>249.12</ele>
        <time>2014-10-12T09:22:10Z</time>
      </trkpt>
      <trkpt lat="41.618827184" lon="2.520514781">
        <ele>244.31</ele>
        <time>2014-10-12T09:22:15Z</time>
      </trkpt>
      <trkpt lat="41.618526273" lon="2.520570437">
        <ele>239.99</ele>
        <time>2014-10-12T09:22:20Z</time>
      </trkpt>
      <trkpt lat="41.618466678" lon="2.520584937">
        <ele>239.99</ele>
        <time>2014-10-12T09:22:21Z</time>
      </trkpt>
      <trkpt lat="41.618299878" lon="2.520785265">
        <ele>238.06</ele>
        <time>2014-10-12T09:22:25Z</time>
      </trkpt>
      <trkpt lat="41.618283198" lon="2.520868413">
        <ele>236.62</ele>
        <time>2014-10-12T09:22:26Z</time>
      </trkpt>
      <trkpt lat="41.618247156" lon="2.521031609">
        <ele>234.70</ele>
        <time>2014-10-12T09:22:28Z</time>
      </trkpt>
      <trkpt lat="41.618079099" lon="2.521387002">
        <ele>230.85</ele>
        <time>2014-10-12T09:22:33Z</time>
      </trkpt>
      <trkpt lat="41.618054037" lon="2.521450034">
        <ele>229.41</ele>
        <time>2014-10-12T09:22:34Z</time>
      </trkpt>
      <trkpt lat="41.618006847" lon="2.521588838">
        <ele>227.49</ele>
        <time>2014-10-12T09:22:37Z</time>
      </trkpt>
      <trkpt lat="41.617922776" lon="2.521601411">
        <ele>226.05</ele>
        <time>2014-10-12T09:22:40Z</time>
      </trkpt>
      <trkpt lat="41.617890255" lon="2.521531673">
        <ele>225.57</ele>
        <time>2014-10-12T09:22:42Z</time>
      </trkpt>
      <trkpt lat="41.617863600" lon="2.521408040">
        <ele>224.61</ele>
        <time>2014-10-12T09:22:44Z</time>
      </trkpt>
      <trkpt lat="41.617841807" lon="2.521277953">
        <ele>223.64</ele>
        <time>2014-10-12T09:22:46Z</time>
      </trkpt>
      <trkpt lat="41.617737117" lon="2.520921135">
        <ele>222.20</ele>
        <time>2014-10-12T09:22:52Z</time>
      </trkpt>
      <trkpt lat="41.617698477" lon="2.520630032">
        <ele>220.28</ele>
        <time>2014-10-12T09:22:58Z</time>
      </trkpt>
      <trkpt lat="41.617721024" lon="2.520569096">
        <ele>220.28</ele>
        <time>2014-10-12T09:23:01Z</time>
      </trkpt>
      <trkpt lat="41.617725383" lon="2.520459628">
        <ele>219.80</ele>
        <time>2014-10-12T09:23:05Z</time>
      </trkpt>
      <trkpt lat="41.617715827" lon="2.520307748">
        <ele>218.84</ele>
        <time>2014-10-12T09:23:09Z</time>
      </trkpt>
      <trkpt lat="41.617803167" lon="2.520138936">
        <ele>216.91</ele>
        <time>2014-10-12T09:23:14Z</time>
      </trkpt>
      <trkpt lat="41.617835102" lon="2.520111947">
        <ele>215.95</ele>
        <time>2014-10-12T09:23:15Z</time>
      </trkpt>
      <trkpt lat="41.617929147" lon="2.519862501">
        <ele>213.55</ele>
        <time>2014-10-12T09:23:21Z</time>
      </trkpt>
      <trkpt lat="41.617851195" lon="2.519744568">
        <ele>212.11</ele>
        <time>2014-10-12T09:23:25Z</time>
      </trkpt>
      <trkpt lat="41.617830492" lon="2.519712297">
        <ele>212.11</ele>
        <time>2014-10-12T09:23:27Z</time>
      </trkpt>
      <trkpt lat="41.617834347" lon="2.519668041">
        <ele>211.63</ele>
        <time>2014-10-12T09:23:30Z</time>
      </trkpt>
      <trkpt lat="41.617821774" lon="2.519646835">
        <ele>211.15</ele>
        <time>2014-10-12T09:23:32Z</time>
      </trkpt>
      <trkpt lat="41.617635361" lon="2.519643733">
        <ele>210.67</ele>
        <time>2014-10-12T09:23:39Z</time>
      </trkpt>
      <trkpt lat="41.617244261" lon="2.519661587">
        <ele>209.22</ele>
        <time>2014-10-12T09:23:47Z</time>
      </trkpt>
      <trkpt lat="41.616878475" lon="2.519708861">
        <ele>207.30</ele>
        <time>2014-10-12T09:23:54Z</time>
      </trkpt>
      <trkpt lat="41.616549904" lon="2.519826878">
        <ele>204.42</ele>
        <time>2014-10-12T09:24:01Z</time>
      </trkpt>
      <trkpt lat="41.616384529" lon="2.519990325">
        <ele>203.94</ele>
        <time>2014-10-12T09:24:07Z</time>
      </trkpt>
      <trkpt lat="41.616325940" lon="2.520075234">
        <ele>205.38</ele>
        <time>2014-10-12T09:24:13Z</time>
      </trkpt>
      <trkpt lat="41.616305237" lon="2.520123262">
        <ele>205.38</ele>
        <time>2014-10-12T09:24:20Z</time>
      </trkpt>
      <trkpt lat="41.616303896" lon="2.520150419">
        <ele>205.38</ele>
        <time>2014-10-12T09:24:23Z</time>
      </trkpt>
      <trkpt lat="41.616242289" lon="2.520342114">
        <ele>205.38</ele>
        <time>2014-10-12T09:24:30Z</time>
      </trkpt>
      <trkpt lat="41.616164337" lon="2.520606814">
        <ele>203.94</ele>
        <time>2014-10-12T09:24:37Z</time>
      </trkpt>
      <trkpt lat="41.616075070" lon="2.520914598">
        <ele>203.46</ele>
        <time>2014-10-12T09:24:44Z</time>
      </trkpt>
      <trkpt lat="41.616024191" lon="2.521249287">
        <ele>202.98</ele>
        <time>2014-10-12T09:24:50Z</time>
      </trkpt>
      <trkpt lat="41.615963171" lon="2.521698473">
        <ele>202.49</ele>
        <time>2014-10-12T09:24:57Z</time>
      </trkpt>
      <trkpt lat="41.615954789" lon="2.521753458">
        <ele>202.49</ele>
        <time>2014-10-12T09:24:58Z</time>
      </trkpt>
      <trkpt lat="41.615897876" lon="2.522078173">
        <ele>201.05</ele>
        <time>2014-10-12T09:25:03Z</time>
      </trkpt>
      <trkpt lat="41.615790001" lon="2.522700530">
        <ele>199.61</ele>
        <time>2014-10-12T09:25:10Z</time>
      </trkpt>
      <trkpt lat="41.615719509" lon="2.523249544">
        <ele>198.17</ele>
        <time>2014-10-12T09:25:16Z</time>
      </trkpt>
      <trkpt lat="41.615707188" lon="2.523444424">
        <ele>197.69</ele>
        <time>2014-10-12T09:25:18Z</time>
      </trkpt>
      <trkpt lat="41.615654969" lon="2.524132913">
        <ele>194.32</ele>
        <time>2014-10-12T09:25:25Z</time>
      </trkpt>
      <trkpt lat="41.615652454" lon="2.524242968">
        <ele>194.32</ele>
        <time>2014-10-12T09:25:26Z</time>
      </trkpt>
      <trkpt lat="41.615589003" lon="2.525040506">
        <ele>191.92</ele>
        <time>2014-10-12T09:25:33Z</time>
      </trkpt>
      <trkpt lat="41.615572323" lon="2.525148297">
        <ele>190.96</ele>
        <time>2014-10-12T09:25:34Z</time>
      </trkpt>
      <trkpt lat="41.615555056" lon="2.525946422">
        <ele>189.04</ele>
        <time>2014-10-12T09:25:41Z</time>
      </trkpt>
      <trkpt lat="41.615605096" lon="2.526480014">
        <ele>187.11</ele>
        <time>2014-10-12T09:25:46Z</time>
      </trkpt>
      <trkpt lat="41.615602833" lon="2.526872873">
        <ele>185.19</ele>
        <time>2014-10-12T09:25:50Z</time>
      </trkpt>
      <trkpt lat="41.615548602" lon="2.527235642">
        <ele>183.75</ele>
        <time>2014-10-12T09:25:55Z</time>
      </trkpt>
      <trkpt lat="41.615438129" lon="2.527893035">
        <ele>181.35</ele>
        <time>2014-10-12T09:26:03Z</time>
      </trkpt>
      <trkpt lat="41.615298319" lon="2.528620919">
        <ele>179.90</ele>
        <time>2014-10-12T09:26:11Z</time>
      </trkpt>
      <trkpt lat="41.615207794" lon="2.529316701">
        <ele>178.46</ele>
        <time>2014-10-12T09:26:18Z</time>
      </trkpt>
      <trkpt lat="41.615194970" lon="2.529926485">
        <ele>176.54</ele>
        <time>2014-10-12T09:26:24Z</time>
      </trkpt>
      <trkpt lat="41.615159598" lon="2.530759310">
        <ele>173.66</ele>
        <time>2014-10-12T09:26:32Z</time>
      </trkpt>
      <trkpt lat="41.615131938" lon="2.531248646">
        <ele>172.69</ele>
        <time>2014-10-12T09:26:37Z</time>
      </trkpt>
      <trkpt lat="41.615206704" lon="2.531669920">
        <ele>170.77</ele>
        <time>2014-10-12T09:26:42Z</time>
      </trkpt>
      <trkpt lat="41.615222379" lon="2.531882402">
        <ele>169.81</ele>
        <time>2014-10-12T09:26:44Z</time>
      </trkpt>
      <trkpt lat="41.615221037" lon="2.531988768">
        <ele>169.33</ele>
        <time>2014-10-12T09:26:45Z</time>
      </trkpt>
      <trkpt lat="41.615078461" lon="2.532674743">
        <ele>167.89</ele>
        <time>2014-10-12T09:26:52Z</time>
      </trkpt>
      <trkpt lat="41.614857095" lon="2.533395503">
        <ele>165.96</ele>
        <time>2014-10-12T09:27:00Z</time>
      </trkpt>
      <trkpt lat="41.614623408" lon="2.534129506">
        <ele>164.04</ele>
        <time>2014-10-12T09:27:08Z</time>
      </trkpt>
      <trkpt lat="41.614536655" lon="2.534405355">
        <ele>163.08</ele>
        <time>2014-10-12T09:27:11Z</time>
      </trkpt>
      <trkpt lat="41.614289305" lon="2.535194175">
        <ele>159.72</ele>
        <time>2014-10-12T09:27:20Z</time>
      </trkpt>
      <trkpt lat="41.614254353" lon="2.535283359">
        <ele>159.72</ele>
        <time>2014-10-12T09:27:21Z</time>
      </trkpt>
      <trkpt lat="41.613967105" lon="2.536125992">
        <ele>157.31</ele>
        <time>2014-10-12T09:27:31Z</time>
      </trkpt>
      <trkpt lat="41.613905246" lon="2.536277704">
        <ele>156.35</ele>
        <time>2014-10-12T09:27:33Z</time>
      </trkpt>
      <trkpt lat="41.613762922" lon="2.536551122">
        <ele>154.91</ele>
        <time>2014-10-12T09:27:39Z</time>
      </trkpt>
      <trkpt lat="41.613612634" lon="2.536779948">
        <ele>154.91</ele>
        <time>2014-10-12T09:27:46Z</time>
      </trkpt>
      <trkpt lat="41.613458659" lon="2.537024532">
        <ele>153.47</ele>
        <time>2014-10-12T09:27:52Z</time>
      </trkpt>
      <trkpt lat="41.613328320" lon="2.537217148">
        <ele>152.99</ele>
        <time>2014-10-12T09:27:56Z</time>
      </trkpt>
      <trkpt lat="41.613050544" lon="2.537533648">
        <ele>151.54</ele>
        <time>2014-10-12T09:28:03Z</time>
      </trkpt>
      <trkpt lat="41.612849210" lon="2.537773958">
        <ele>151.06</ele>
        <time>2014-10-12T09:28:08Z</time>
      </trkpt>
      <trkpt lat="41.612531117" lon="2.538123902">
        <ele>149.62</ele>
        <time>2014-10-12T09:28:15Z</time>
      </trkpt>
      <trkpt lat="41.612339507" lon="2.538322972">
        <ele>149.14</ele>
        <time>2014-10-12T09:28:19Z</time>
      </trkpt>
      <trkpt lat="41.612220903" lon="2.538561354">
        <ele>147.22</ele>
        <time>2014-10-12T09:28:25Z</time>
      </trkpt>
      <trkpt lat="41.612177736" lon="2.538679119">
        <ele>146.74</ele>
        <time>2014-10-12T09:28:32Z</time>
      </trkpt>
      <trkpt lat="41.612169689" lon="2.538718011">
        <ele>146.74</ele>
        <time>2014-10-12T09:28:40Z</time>
      </trkpt>
      <trkpt lat="41.612098779" lon="2.538860588">
        <ele>146.74</ele>
        <time>2014-10-12T09:28:48Z</time>
      </trkpt>
      <trkpt lat="41.611960812" lon="2.538990423">
        <ele>145.78</ele>
        <time>2014-10-12T09:28:54Z</time>
      </trkpt>
      <trkpt lat="41.611903229" lon="2.539015485">
        <ele>145.30</ele>
        <time>2014-10-12T09:28:59Z</time>
      </trkpt>
      <trkpt lat="41.611885459" lon="2.539002661">
        <ele>145.30</ele>
        <time>2014-10-12T09:29:01Z</time>
      </trkpt>
      <trkpt lat="41.611847070" lon="2.538806357">
        <ele>146.74</ele>
        <time>2014-10-12T09:29:10Z</time>
      </trkpt>
      <trkpt lat="41.611797114" lon="2.538713569">
        <ele>147.70</ele>
        <time>2014-10-12T09:29:15Z</time>
      </trkpt>
      <trkpt lat="41.611654202" lon="2.538732009">
        <ele>148.18</ele>
        <time>2014-10-12T09:29:22Z</time>
      </trkpt>
      <trkpt lat="41.611589243" lon="2.538734775">
        <ele>148.18</ele>
        <time>2014-10-12T09:29:24Z</time>
      </trkpt>
      <trkpt lat="41.611502993" lon="2.538737122">
        <ele>148.18</ele>
        <time>2014-10-12T09:29:26Z</time>
      </trkpt>
      <trkpt lat="41.611366452" lon="2.538730417">
        <ele>146.74</ele>
        <time>2014-10-12T09:29:29Z</time>
      </trkpt>
      <trkpt lat="41.611205687" lon="2.538733350">
        <ele>145.78</ele>
        <time>2014-10-12T09:29:32Z</time>
      </trkpt>
      <trkpt lat="41.610882313" lon="2.538866036">
        <ele>143.85</ele>
        <time>2014-10-12T09:29:38Z</time>
      </trkpt>
      <trkpt lat="41.610621133" lon="2.538998889">
        <ele>142.89</ele>
        <time>2014-10-12T09:29:43Z</time>
      </trkpt>
      <trkpt lat="41.610488280" lon="2.539109614">
        <ele>142.41</ele>
        <time>2014-10-12T09:29:46Z</time>
      </trkpt>
      <trkpt lat="41.610097264" lon="2.539340284">
        <ele>140.49</ele>
        <time>2014-10-12T09:29:53Z</time>
      </trkpt>
      <trkpt lat="41.609897775" lon="2.539453356">
        <ele>138.57</ele>
        <time>2014-10-12T09:29:58Z</time>
      </trkpt>
      <trkpt lat="41.609738183" lon="2.539593417">
        <ele>138.09</ele>
        <time>2014-10-12T09:30:05Z</time>
      </trkpt>
      <trkpt lat="41.609520170" lon="2.539708082">
        <ele>137.61</ele>
        <time>2014-10-12T09:30:12Z</time>
      </trkpt>
      <trkpt lat="41.609336439" lon="2.539847138">
        <ele>136.16</ele>
        <time>2014-10-12T09:30:18Z</time>
      </trkpt>
      <trkpt lat="41.609291344" lon="2.539898854">
        <ele>135.68</ele>
        <time>2014-10-12T09:30:22Z</time>
      </trkpt>
      <trkpt lat="41.609193024" lon="2.539999856">
        <ele>135.20</ele>
        <time>2014-10-12T09:30:29Z</time>
      </trkpt>
      <trkpt lat="41.609137117" lon="2.540144527">
        <ele>135.20</ele>
        <time>2014-10-12T09:30:36Z</time>
      </trkpt>
      <trkpt lat="41.608956235" lon="2.540327253">
        <ele>134.72</ele>
        <time>2014-10-12T09:30:45Z</time>
      </trkpt>
      <trkpt lat="41.608913739" lon="2.540381652">
        <ele>134.24</ele>
        <time>2014-10-12T09:30:47Z</time>
      </trkpt>
      <trkpt lat="41.608889180" lon="2.540453233">
        <ele>134.24</ele>
        <time>2014-10-12T09:30:53Z</time>
      </trkpt>
      <trkpt lat="41.608894712" lon="2.540442336">
        <ele>133.76</ele>
        <time>2014-10-12T09:31:00Z</time>
      </trkpt>
      <trkpt lat="41.608910554" lon="2.540440073">
        <ele>133.76</ele>
        <time>2014-10-12T09:31:12Z</time>
      </trkpt>
      <trkpt lat="41.608893958" lon="2.540456167">
        <ele>133.76</ele>
        <time>2014-10-12T09:31:25Z</time>
      </trkpt>
      <trkpt lat="41.608894377" lon="2.540456334">
        <ele>133.76</ele>
        <time>2014-10-12T09:31:40Z</time>
      </trkpt>
      <trkpt lat="41.608880798" lon="2.540437726">
        <ele>133.76</ele>
        <time>2014-10-12T09:31:58Z</time>
      </trkpt>
      <trkpt lat="41.608874931" lon="2.540421466">
        <ele>133.76</ele>
        <time>2014-10-12T09:32:00Z</time>
      </trkpt>
      <trkpt lat="41.608759177" lon="2.540325157">
        <ele>132.80</ele>
        <time>2014-10-12T09:32:06Z</time>
      </trkpt>
      <trkpt lat="41.608425074" lon="2.540354746">
        <ele>132.32</ele>
        <time>2014-10-12T09:32:16Z</time>
      </trkpt>
      <trkpt lat="41.608191219" lon="2.540393721">
        <ele>131.84</ele>
        <time>2014-10-12T09:32:22Z</time>
      </trkpt>
      <trkpt lat="41.607851920" lon="2.540410569">
        <ele>131.36</ele>
        <time>2014-10-12T09:32:31Z</time>
      </trkpt>
      <trkpt lat="41.607794252" lon="2.540414173">
        <ele>130.88</ele>
        <time>2014-10-12T09:32:34Z</time>
      </trkpt>
      <trkpt lat="41.607687718" lon="2.540489527">
        <ele>130.88</ele>
        <time>2014-10-12T09:32:39Z</time>
      </trkpt>
      <trkpt lat="41.607576490" lon="2.540489946">
        <ele>129.43</ele>
        <time>2014-10-12T09:32:43Z</time>
      </trkpt>
      <trkpt lat="41.607136692" lon="2.540356422">
        <ele>127.99</ele>
        <time>2014-10-12T09:32:51Z</time>
      </trkpt>
      <trkpt lat="41.606754142" lon="2.540243182">
        <ele>127.03</ele>
        <time>2014-10-12T09:32:58Z</time>
      </trkpt>
      <trkpt lat="41.606309230" lon="2.540135307">
        <ele>125.59</ele>
        <time>2014-10-12T09:33:07Z</time>
      </trkpt>
      <trkpt lat="41.606256927" lon="2.540134972">
        <ele>125.59</ele>
        <time>2014-10-12T09:33:09Z</time>
      </trkpt>
      <trkpt lat="41.606172102" lon="2.540163554">
        <ele>125.11</ele>
        <time>2014-10-12T09:33:15Z</time>
      </trkpt>
      <trkpt lat="41.606153746" lon="2.540201021">
        <ele>125.11</ele>
        <time>2014-10-12T09:33:27Z</time>
      </trkpt>
      <trkpt lat="41.606115441" lon="2.540210242">
        <ele>125.11</ele>
        <time>2014-10-12T09:33:46Z</time>
      </trkpt>
      <trkpt lat="41.606103119" lon="2.540245613">
        <ele>124.63</ele>
        <time>2014-10-12T09:34:10Z</time>
      </trkpt>
      <trkpt lat="41.606105550" lon="2.540228682">
        <ele>124.63</ele>
        <time>2014-10-12T09:34:23Z</time>
      </trkpt>
      <trkpt lat="41.606097252" lon="2.540243015">
        <ele>124.63</ele>
        <time>2014-10-12T09:34:33Z</time>
      </trkpt>
      <trkpt lat="41.606033969" lon="2.540389447">
        <ele>124.63</ele>
        <time>2014-10-12T09:34:40Z</time>
      </trkpt>
      <trkpt lat="41.605956771" lon="2.540408557">
        <ele>124.63</ele>
        <time>2014-10-12T09:34:45Z</time>
      </trkpt>
      <trkpt lat="41.605959789" lon="2.540451389">
        <ele>125.59</ele>
        <time>2014-10-12T09:34:51Z</time>
      </trkpt>
      <trkpt lat="41.605959956" lon="2.540463710">
        <ele>125.59</ele>
        <time>2014-10-12T09:34:59Z</time>
      </trkpt>
      <trkpt lat="41.605955849" lon="2.540475948">
        <ele>125.59</ele>
        <time>2014-10-12T09:35:07Z</time>
      </trkpt>
      <trkpt lat="41.605954341" lon="2.540577201">
        <ele>125.59</ele>
        <time>2014-10-12T09:35:13Z</time>
      </trkpt>
      <trkpt lat="41.605983929" lon="2.540604861">
        <ele>125.59</ele>
        <time>2014-10-12T09:35:15Z</time>
      </trkpt>
      <trkpt lat="41.606131953" lon="2.540639563">
        <ele>126.07</ele>
        <time>2014-10-12T09:35:23Z</time>
      </trkpt>
      <trkpt lat="41.606229099" lon="2.540651633">
        <ele>126.55</ele>
        <time>2014-10-12T09:35:29Z</time>
      </trkpt>
      <trkpt lat="41.606359522" lon="2.540684573">
        <ele>127.03</ele>
        <time>2014-10-12T09:35:36Z</time>
      </trkpt>
      <trkpt lat="41.606483071" lon="2.540825222">
        <ele>127.99</ele>
        <time>2014-10-12T09:35:44Z</time>
      </trkpt>
      <trkpt lat="41.606495979" lon="2.540850619">
        <ele>127.99</ele>
        <time>2014-10-12T09:35:45Z</time>
      </trkpt>
      <trkpt lat="41.606586839" lon="2.541037452">
        <ele>128.95</ele>
        <time>2014-10-12T09:35:52Z</time>
      </trkpt>
      <trkpt lat="41.606604776" lon="2.541106602">
        <ele>128.95</ele>
        <time>2014-10-12T09:35:54Z</time>
      </trkpt>
      <trkpt lat="41.606657750" lon="2.541383121">
        <ele>130.88</ele>
        <time>2014-10-12T09:36:03Z</time>
      </trkpt>
      <trkpt lat="41.606730170" lon="2.541656790">
        <ele>132.32</ele>
        <time>2014-10-12T09:36:12Z</time>
      </trkpt>
      <trkpt lat="41.606839134" lon="2.541913696">
        <ele>133.76</ele>
        <time>2014-10-12T09:36:21Z</time>
      </trkpt>
      <trkpt lat="41.606961259" lon="2.542092566">
        <ele>134.72</ele>
        <time>2014-10-12T09:36:29Z</time>
      </trkpt>
      <trkpt lat="41.607071564" lon="2.542247882">
        <ele>136.64</ele>
        <time>2014-10-12T09:36:37Z</time>
      </trkpt>
      <trkpt lat="41.607103667" lon="2.542279566">
        <ele>137.13</ele>
        <time>2014-10-12T09:36:43Z</time>
      </trkpt>
      <trkpt lat="41.607100985" lon="2.542299012">
        <ele>136.64</ele>
        <time>2014-10-12T09:36:51Z</time>
      </trkpt>
      <trkpt lat="41.607106852" lon="2.542309657">
        <ele>137.13</ele>
        <time>2014-10-12T09:37:00Z</time>
      </trkpt>
      <trkpt lat="41.607095788" lon="2.542311501">
        <ele>137.13</ele>
        <time>2014-10-12T09:37:14Z</time>
      </trkpt>
      <trkpt lat="41.607058237" lon="2.542362547">
        <ele>137.13</ele>
        <time>2014-10-12T09:37:32Z</time>
      </trkpt>
      <trkpt lat="41.607041390" lon="2.542422813">
        <ele>137.13</ele>
        <time>2014-10-12T09:37:47Z</time>
      </trkpt>
      <trkpt lat="41.607033175" lon="2.542423651">
        <ele>136.64</ele>
        <time>2014-10-12T09:38:04Z</time>
      </trkpt>
      <trkpt lat="41.607009622" lon="2.542447791">
        <ele>136.64</ele>
        <time>2014-10-12T09:38:19Z</time>
      </trkpt>
      <trkpt lat="41.607027559" lon="2.542432284">
        <ele>136.64</ele>
        <time>2014-10-12T09:38:37Z</time>
      </trkpt>
      <trkpt lat="41.607065781" lon="2.542387106">
        <ele>136.64</ele>
        <time>2014-10-12T09:38:53Z</time>
      </trkpt>
    </trkseg>
  </trk>
</gpx>
